<?xml version='1.0' encoding='UTF-8'?><gpx version="1.1" creator="JPX - https://github.com/jenetics/jpx" xmlns="http://www.topografix.com/GPX/1/1"><trk><trkseg><trkpt lat="40.921478232716844" lon="15.677058109003497"><ele>640.0</ele><time>2026-04-24T12:41:49Z</time></trkpt><trkpt lat="40.92140323012467" lon="15.677117367766126"><ele>640.0</ele><time>2026-04-24T12:41:51Z</time></trkpt><trkpt lat="40.92130710053673" lon="15.677217315600483"><ele>640.0</ele><time>2026-04-24T12:41:53Z</time></trkpt><trkpt lat="40.9212629276468" lon="15.67730100517086"><ele>640.0</ele><time>2026-04-24T12:41:54Z</time></trkpt><trkpt lat="40.921222093780734" lon="15.677390915810065"><ele>640.0</ele><time>2026-04-24T12:41:55Z</time></trkpt><trkpt lat="40.92118486102663" lon="15.677479113108815"><ele>640.0</ele><time>2026-04-24T12:41:56Z</time></trkpt><trkpt lat="40.921143458378594" lon="15.677562988720616"><ele>640.0</ele><time>2026-04-24T12:41:57Z</time></trkpt><trkpt lat="40.92109086359122" lon="15.677647203776777"><ele>640.0</ele><time>2026-04-24T12:41:58Z</time></trkpt><trkpt lat="40.921025818329554" lon="15.677708866005423"><ele>640.0</ele><time>2026-04-24T12:41:59Z</time></trkpt><trkpt lat="40.92097906250664" lon="15.677775697968075"><ele>640.0</ele><time>2026-04-24T12:42:00Z</time></trkpt><trkpt lat="40.92093939870027" lon="15.6778550497155"><ele>640.0</ele><time>2026-04-24T12:42:01Z</time></trkpt><trkpt lat="40.92088622369673" lon="15.677910371930881"><ele>640.0</ele><time>2026-04-24T12:42:02Z</time></trkpt><trkpt lat="40.92081667737685" lon="15.677963172670374"><ele>640.4</ele><time>2026-04-24T12:42:03Z</time></trkpt><trkpt lat="40.92069482765074" lon="15.678013118629178"><ele>640.8</ele><time>2026-04-24T12:42:05Z</time></trkpt><trkpt lat="40.92062181676175" lon="15.678024230742537"><ele>641.2</ele><time>2026-04-24T12:42:06Z</time></trkpt><trkpt lat="40.9205155806515" lon="15.67804247785036"><ele>641.6</ele><time>2026-04-24T12:42:08Z</time></trkpt><trkpt lat="40.920397489232464" lon="15.678059406947577"><ele>642.0</ele><time>2026-04-24T12:42:10Z</time></trkpt><trkpt lat="40.92027454704412" lon="15.678082165115255"><ele>642.0</ele><time>2026-04-24T12:42:12Z</time></trkpt><trkpt lat="40.92014790444693" lon="15.678098071981328"><ele>642.0</ele><time>2026-04-24T12:42:14Z</time></trkpt><trkpt lat="40.920082023524685" lon="15.678139891350414"><ele>642.0</ele><time>2026-04-24T12:42:15Z</time></trkpt><trkpt lat="40.92000810229501" lon="15.678158700210542"><ele>642.0</ele><time>2026-04-24T12:42:16Z</time></trkpt><trkpt lat="40.91993194626788" lon="15.678188375401174"><ele>642.0</ele><time>2026-04-24T12:42:17Z</time></trkpt><trkpt lat="40.919850838376824" lon="15.67822227984993"><ele>642.0</ele><time>2026-04-24T12:42:18Z</time></trkpt><trkpt lat="40.91977244271077" lon="15.67824774066736"><ele>641.8333333333334</ele><time>2026-04-24T12:42:19Z</time></trkpt><trkpt lat="40.91969195502004" lon="15.678277458552557"><ele>641.6666666666666</ele><time>2026-04-24T12:42:20Z</time></trkpt><trkpt lat="40.919615025775535" lon="15.678300723684853"><ele>641.5</ele><time>2026-04-24T12:42:21Z</time></trkpt><trkpt lat="40.9195407319305" lon="15.678326827164593"><ele>641.3333333333333</ele><time>2026-04-24T12:42:22Z</time></trkpt><trkpt lat="40.91944591215242" lon="15.67834171176171"><ele>641.1666666666666</ele><time>2026-04-24T12:42:23Z</time></trkpt><trkpt lat="40.91933716931786" lon="15.678384096575131"><ele>641.0</ele><time>2026-04-24T12:42:24Z</time></trkpt><trkpt lat="40.919221466646974" lon="15.678430656790475"><ele>641.5999999999999</ele><time>2026-04-24T12:42:25Z</time></trkpt><trkpt lat="40.91910697294415" lon="15.67849833949907"><ele>642.2</ele><time>2026-04-24T12:42:26Z</time></trkpt><trkpt lat="40.91899830441572" lon="15.678541743837862"><ele>642.8</ele><time>2026-04-24T12:42:27Z</time></trkpt><trkpt lat="40.918890685187975" lon="15.678562134604507"><ele>643.4000000000001</ele><time>2026-04-24T12:42:28Z</time></trkpt><trkpt lat="40.9188112959396" lon="15.678592140435928"><ele>644.0</ele><time>2026-04-24T12:42:29Z</time></trkpt><trkpt lat="40.918746563150314" lon="15.678616259466168"><ele>644.0</ele><time>2026-04-24T12:42:30Z</time></trkpt><trkpt lat="40.91868236566203" lon="15.678640069270974"><ele>644.0</ele><time>2026-04-24T12:42:31Z</time></trkpt><trkpt lat="40.91861686298809" lon="15.678687305372122"><ele>644.0</ele><time>2026-04-24T12:42:32Z</time></trkpt><trkpt lat="40.91855108903417" lon="15.678710128879512"><ele>644.0</ele><time>2026-04-24T12:42:33Z</time></trkpt><trkpt lat="40.91848235196911" lon="15.678732492720027"><ele>644.0</ele><time>2026-04-24T12:42:34Z</time></trkpt><trkpt lat="40.918410265976306" lon="15.678760692369872"><ele>644.0</ele><time>2026-04-24T12:42:35Z</time></trkpt><trkpt lat="40.9183465989277" lon="15.678782672796762"><ele>644.0</ele><time>2026-04-24T12:42:36Z</time></trkpt><trkpt lat="40.91826887652483" lon="15.678794810138195"><ele>644.5</ele><time>2026-04-24T12:42:37Z</time></trkpt><trkpt lat="40.91820611591936" lon="15.678840237275042"><ele>645.0</ele><time>2026-04-24T12:42:38Z</time></trkpt><trkpt lat="40.918116803673406" lon="15.678852551356215"><ele>645.5</ele><time>2026-04-24T12:42:39Z</time></trkpt><trkpt lat="40.91803149881643" lon="15.67888500866331"><ele>646.0</ele><time>2026-04-24T12:42:40Z</time></trkpt><trkpt lat="40.917955210218494" lon="15.67891419634952"><ele>646.5</ele><time>2026-04-24T12:42:41Z</time></trkpt><trkpt lat="40.91786595963749" lon="15.678948343234111"><ele>647.0</ele><time>2026-04-24T12:42:42Z</time></trkpt><trkpt lat="40.917756815539086" lon="15.67899116957926"><ele>647.0</ele><time>2026-04-24T12:42:43Z</time></trkpt><trkpt lat="40.91764118657598" lon="15.679040398536191"><ele>647.0</ele><time>2026-04-24T12:42:44Z</time></trkpt><trkpt lat="40.9175241030021" lon="15.679092745020718"><ele>647.0</ele><time>2026-04-24T12:42:45Z</time></trkpt><trkpt lat="40.917418788956525" lon="15.679166993968822"><ele>647.0</ele><time>2026-04-24T12:42:46Z</time></trkpt><trkpt lat="40.9173094704123" lon="15.679223993393833"><ele>647.25</ele><time>2026-04-24T12:42:47Z</time></trkpt><trkpt lat="40.917207595467595" lon="15.679294049654949"><ele>647.5</ele><time>2026-04-24T12:42:48Z</time></trkpt><trkpt lat="40.917116384960615" lon="15.67937804599009"><ele>647.75</ele><time>2026-04-24T12:42:49Z</time></trkpt><trkpt lat="40.91702486566435" lon="15.679472507928342"><ele>648.0</ele><time>2026-04-24T12:42:50Z</time></trkpt><trkpt lat="40.91692920994429" lon="15.679562171433268"><ele>649.0</ele><time>2026-04-24T12:42:51Z</time></trkpt><trkpt lat="40.91684088763597" lon="15.679644062429883"><ele>650.0</ele><time>2026-04-24T12:42:52Z</time></trkpt><trkpt lat="40.91675127595941" lon="15.679727469272667"><ele>651.0</ele><time>2026-04-24T12:42:53Z</time></trkpt><trkpt lat="40.91665871020402" lon="15.679810673867143"><ele>652.0</ele><time>2026-04-24T12:42:54Z</time></trkpt><trkpt lat="40.91656507721917" lon="15.679884883974221"><ele>653.0</ele><time>2026-04-24T12:42:55Z</time></trkpt><trkpt lat="40.916459442395414" lon="15.679961485785816"><ele>653.0</ele><time>2026-04-24T12:42:56Z</time></trkpt><trkpt lat="40.91635804126409" lon="15.680037375403163"><ele>653.0</ele><time>2026-04-24T12:42:57Z</time></trkpt><trkpt lat="40.916256209040974" lon="15.68011053338907"><ele>653.0</ele><time>2026-04-24T12:42:58Z</time></trkpt><trkpt lat="40.916152494246845" lon="15.680186188738189"><ele>653.0</ele><time>2026-04-24T12:42:59Z</time></trkpt><trkpt lat="40.91603857548448" lon="15.680222784022737"><ele>653.0</ele><time>2026-04-24T12:43:00Z</time></trkpt><trkpt lat="40.91593233775913" lon="15.680278192685781"><ele>653.0</ele><time>2026-04-24T12:43:01Z</time></trkpt><trkpt lat="40.91582535853002" lon="15.680330966834015"><ele>653.0</ele><time>2026-04-24T12:43:02Z</time></trkpt><trkpt lat="40.91572581024401" lon="15.680402260336919"><ele>653.0</ele><time>2026-04-24T12:43:03Z</time></trkpt><trkpt lat="40.915616040443666" lon="15.680449838777532"><ele>652.5</ele><time>2026-04-24T12:43:04Z</time></trkpt><trkpt lat="40.91550351878972" lon="15.68050018408068"><ele>652.0</ele><time>2026-04-24T12:43:05Z</time></trkpt><trkpt lat="40.91539142996439" lon="15.680553683251823"><ele>651.5</ele><time>2026-04-24T12:43:06Z</time></trkpt><trkpt lat="40.91527450318532" lon="15.680584288888609"><ele>651.0</ele><time>2026-04-24T12:43:07Z</time></trkpt><trkpt lat="40.91517033680609" lon="15.680632426374757"><ele>650.25</ele><time>2026-04-24T12:43:08Z</time></trkpt><trkpt lat="40.91505802243577" lon="15.680686723205438"><ele>649.5</ele><time>2026-04-24T12:43:09Z</time></trkpt><trkpt lat="40.914944206731626" lon="15.680742016472305"><ele>648.75</ele><time>2026-04-24T12:43:10Z</time></trkpt><trkpt lat="40.914836676617625" lon="15.680801012912086"><ele>648.0</ele><time>2026-04-24T12:43:11Z</time></trkpt><trkpt lat="40.91472552349419" lon="15.680872328297086"><ele>648.0</ele><time>2026-04-24T12:43:12Z</time></trkpt><trkpt lat="40.914617812345426" lon="15.680949524402097"><ele>648.0</ele><time>2026-04-24T12:43:13Z</time></trkpt><trkpt lat="40.914511556490005" lon="15.68103053176851"><ele>648.0</ele><time>2026-04-24T12:43:14Z</time></trkpt><trkpt lat="40.914407451701955" lon="15.681111415324489"><ele>648.0</ele><time>2026-04-24T12:43:15Z</time></trkpt><trkpt lat="40.91430000426208" lon="15.681197207100142"><ele>645.5</ele><time>2026-04-24T12:43:16Z</time></trkpt><trkpt lat="40.91419525690782" lon="15.681282728921662"><ele>643.0</ele><time>2026-04-24T12:43:17Z</time></trkpt><trkpt lat="40.91409059999382" lon="15.681370069991228"><ele>640.5</ele><time>2026-04-24T12:43:18Z</time></trkpt><trkpt lat="40.913998642935056" lon="15.68146972447952"><ele>638.0</ele><time>2026-04-24T12:43:19Z</time></trkpt><trkpt lat="40.91389298856333" lon="15.68154971454342"><ele>638.0</ele><time>2026-04-24T12:43:20Z</time></trkpt><trkpt lat="40.913789573317075" lon="15.6816341852552"><ele>638.0</ele><time>2026-04-24T12:43:21Z</time></trkpt><trkpt lat="40.913679629368495" lon="15.68172636968215"><ele>638.0</ele><time>2026-04-24T12:43:22Z</time></trkpt><trkpt lat="40.91357268729919" lon="15.681820940360453"><ele>638.0</ele><time>2026-04-24T12:43:23Z</time></trkpt><trkpt lat="40.913463853819835" lon="15.68191334764937"><ele>636.75</ele><time>2026-04-24T12:43:24Z</time></trkpt><trkpt lat="40.91334699809464" lon="15.681976554746685"><ele>635.5</ele><time>2026-04-24T12:43:25Z</time></trkpt><trkpt lat="40.9132407227068" lon="15.682068396906699"><ele>634.25</ele><time>2026-04-24T12:43:26Z</time></trkpt><trkpt lat="40.913135498903195" lon="15.682162213279947"><ele>633.0</ele><time>2026-04-24T12:43:27Z</time></trkpt><trkpt lat="40.91303259801669" lon="15.68227132938133"><ele>633.0</ele><time>2026-04-24T12:43:28Z</time></trkpt><trkpt lat="40.91295409802329" lon="15.682390556615744"><ele>633.0</ele><time>2026-04-24T12:43:29Z</time></trkpt><trkpt lat="40.91287053000568" lon="15.682488876848886"><ele>633.0</ele><time>2026-04-24T12:43:30Z</time></trkpt><trkpt lat="40.912794565962926" lon="15.682605179522833"><ele>633.0</ele><time>2026-04-24T12:43:31Z</time></trkpt><trkpt lat="40.91272079373238" lon="15.682722340284426"><ele>631.75</ele><time>2026-04-24T12:43:32Z</time></trkpt><trkpt lat="40.91264095424674" lon="15.682826644196723"><ele>630.5</ele><time>2026-04-24T12:43:33Z</time></trkpt><trkpt lat="40.91255601583202" lon="15.68293101843489"><ele>629.25</ele><time>2026-04-24T12:43:34Z</time></trkpt><trkpt lat="40.912453037268776" lon="15.68300854908495"><ele>628.0</ele><time>2026-04-24T12:43:35Z</time></trkpt><trkpt lat="40.912353622245845" lon="15.683097701579328"><ele>628.0</ele><time>2026-04-24T12:43:36Z</time></trkpt><trkpt lat="40.91225000488226" lon="15.683186782031132"><ele>628.0</ele><time>2026-04-24T12:43:37Z</time></trkpt><trkpt lat="40.91215640588501" lon="15.68327985699548"><ele>628.0</ele><time>2026-04-24T12:43:38Z</time></trkpt><trkpt lat="40.91206190477888" lon="15.683358628434092"><ele>628.0</ele><time>2026-04-24T12:43:39Z</time></trkpt><trkpt lat="40.91197043892853" lon="15.683441825060651"><ele>628.0</ele><time>2026-04-24T12:43:40Z</time></trkpt><trkpt lat="40.91187876457991" lon="15.683515400143104"><ele>628.0</ele><time>2026-04-24T12:43:41Z</time></trkpt><trkpt lat="40.911788009596954" lon="15.683588166814198"><ele>628.0</ele><time>2026-04-24T12:43:42Z</time></trkpt><trkpt lat="40.91169964771323" lon="15.683661994263996"><ele>628.0</ele><time>2026-04-24T12:43:43Z</time></trkpt><trkpt lat="40.91161042730529" lon="15.68373316325165"><ele>628.0</ele><time>2026-04-24T12:43:44Z</time></trkpt><trkpt lat="40.9115216231803" lon="15.683800133264059"><ele>628.6</ele><time>2026-04-24T12:43:45Z</time></trkpt><trkpt lat="40.91143018902307" lon="15.683867441846056"><ele>629.1999999999999</ele><time>2026-04-24T12:43:46Z</time></trkpt><trkpt lat="40.911333033698526" lon="15.683939750995444"><ele>629.8</ele><time>2026-04-24T12:43:47Z</time></trkpt><trkpt lat="40.91123535200872" lon="15.684010687626698"><ele>630.4</ele><time>2026-04-24T12:43:48Z</time></trkpt><trkpt lat="40.911133798379794" lon="15.684089141219719"><ele>631.0</ele><time>2026-04-24T12:43:49Z</time></trkpt><trkpt lat="40.911031116249795" lon="15.684162387427566"><ele>631.0</ele><time>2026-04-24T12:43:50Z</time></trkpt><trkpt lat="40.91091165584246" lon="15.684219797166822"><ele>631.0</ele><time>2026-04-24T12:43:51Z</time></trkpt><trkpt lat="40.91077713374626" lon="15.684247403490282"><ele>631.0</ele><time>2026-04-24T12:43:52Z</time></trkpt><trkpt lat="40.910642888599845" lon="15.684251515057795"><ele>631.0</ele><time>2026-04-24T12:43:53Z</time></trkpt><trkpt lat="40.910502050427844" lon="15.684239424084602"><ele>633.75</ele><time>2026-04-24T12:43:54Z</time></trkpt><trkpt lat="40.91037502040387" lon="15.684212940105558"><ele>636.5</ele><time>2026-04-24T12:43:55Z</time></trkpt><trkpt lat="40.91025129327336" lon="15.684177085117634"><ele>639.25</ele><time>2026-04-24T12:43:56Z</time></trkpt><trkpt lat="40.91012686286479" lon="15.684178995083165"><ele>642.0</ele><time>2026-04-24T12:43:57Z</time></trkpt><trkpt lat="40.91000525889884" lon="15.684180861662684"><ele>643.5</ele><time>2026-04-24T12:43:58Z</time></trkpt><trkpt lat="40.90987901549416" lon="15.68418134296687"><ele>645.0</ele><time>2026-04-24T12:43:59Z</time></trkpt><trkpt lat="40.90975974921092" lon="15.68417899383504"><ele>646.5</ele><time>2026-04-24T12:44:00Z</time></trkpt><trkpt lat="40.909640092645915" lon="15.684171309806148"><ele>648.0</ele><time>2026-04-24T12:44:01Z</time></trkpt><trkpt lat="40.90953260245601" lon="15.684162430637675"><ele>648.0</ele><time>2026-04-24T12:44:02Z</time></trkpt><trkpt lat="40.90941957593171" lon="15.684157142980371"><ele>648.0</ele><time>2026-04-24T12:44:03Z</time></trkpt><trkpt lat="40.90931171175061" lon="15.68416045911094"><ele>648.0</ele><time>2026-04-24T12:44:04Z</time></trkpt><trkpt lat="40.90920517916041" lon="15.684176961789062"><ele>648.0</ele><time>2026-04-24T12:44:05Z</time></trkpt><trkpt lat="40.909105062878304" lon="15.684223583551974"><ele>648.0</ele><time>2026-04-24T12:44:06Z</time></trkpt><trkpt lat="40.90901647784454" lon="15.684292342207092"><ele>649.75</ele><time>2026-04-24T12:44:07Z</time></trkpt><trkpt lat="40.90895905368317" lon="15.684422750155168"><ele>651.5</ele><time>2026-04-24T12:44:08Z</time></trkpt><trkpt lat="40.90889490624823" lon="15.684549984348058"><ele>653.25</ele><time>2026-04-24T12:44:09Z</time></trkpt><trkpt lat="40.90883068779068" lon="15.68469195027584"><ele>655.0</ele><time>2026-04-24T12:44:10Z</time></trkpt><trkpt lat="40.908768066489706" lon="15.684841361078531"><ele>656.75</ele><time>2026-04-24T12:44:11Z</time></trkpt><trkpt lat="40.90870733431822" lon="15.684997127635915"><ele>658.5</ele><time>2026-04-24T12:44:12Z</time></trkpt><trkpt lat="40.908640775349475" lon="15.685149832063258"><ele>660.25</ele><time>2026-04-24T12:44:13Z</time></trkpt><trkpt lat="40.90857162087943" lon="15.685291880914058"><ele>662.0</ele><time>2026-04-24T12:44:14Z</time></trkpt><trkpt lat="40.908502098570956" lon="15.685430456504285"><ele>662.0</ele><time>2026-04-24T12:44:15Z</time></trkpt><trkpt lat="40.908436894002094" lon="15.685556731270049"><ele>662.0</ele><time>2026-04-24T12:44:16Z</time></trkpt><trkpt lat="40.9083555771155" lon="15.685659176169322"><ele>662.0</ele><time>2026-04-24T12:44:17Z</time></trkpt><trkpt lat="40.90827922815305" lon="15.685761942491375"><ele>662.0</ele><time>2026-04-24T12:44:18Z</time></trkpt><trkpt lat="40.90820014837985" lon="15.685860396844538"><ele>662.0</ele><time>2026-04-24T12:44:19Z</time></trkpt><trkpt lat="40.90812795778409" lon="15.685966319499839"><ele>662.0</ele><time>2026-04-24T12:44:20Z</time></trkpt><trkpt lat="40.9080496826225" lon="15.686050548351004"><ele>662.0</ele><time>2026-04-24T12:44:21Z</time></trkpt><trkpt lat="40.90797130430449" lon="15.686135944622938"><ele>662.0</ele><time>2026-04-24T12:44:22Z</time></trkpt><trkpt lat="40.90789535709406" lon="15.68621882346099"><ele>662.0</ele><time>2026-04-24T12:44:23Z</time></trkpt><trkpt lat="40.907822411658465" lon="15.686302111658536"><ele>662.0</ele><time>2026-04-24T12:44:24Z</time></trkpt><trkpt lat="40.907759935016216" lon="15.686376988952567"><ele>662.3333333333333</ele><time>2026-04-24T12:44:25Z</time></trkpt><trkpt lat="40.907681652954935" lon="15.686438634109845"><ele>662.6666666666666</ele><time>2026-04-24T12:44:26Z</time></trkpt><trkpt lat="40.90761376686484" lon="15.686500484397683"><ele>663.0</ele><time>2026-04-24T12:44:27Z</time></trkpt><trkpt lat="40.907538458544025" lon="15.686559518500045"><ele>663.3333333333334</ele><time>2026-04-24T12:44:28Z</time></trkpt><trkpt lat="40.90746245030966" lon="15.686634100786456"><ele>663.6666666666667</ele><time>2026-04-24T12:44:29Z</time></trkpt><trkpt lat="40.90737790749811" lon="15.686684888272202"><ele>664.0</ele><time>2026-04-24T12:44:30Z</time></trkpt><trkpt lat="40.90728318744044" lon="15.686723924623195"><ele>664.25</ele><time>2026-04-24T12:44:31Z</time></trkpt><trkpt lat="40.90719962994486" lon="15.686797183665027"><ele>664.5</ele><time>2026-04-24T12:44:32Z</time></trkpt><trkpt lat="40.90710049527517" lon="15.686855256686266"><ele>664.75</ele><time>2026-04-24T12:44:33Z</time></trkpt><trkpt lat="40.9069925846473" lon="15.686917472770276"><ele>665.0</ele><time>2026-04-24T12:44:34Z</time></trkpt><trkpt lat="40.906872170360785" lon="15.686994779211865"><ele>665.75</ele><time>2026-04-24T12:44:35Z</time></trkpt><trkpt lat="40.90674273073883" lon="15.687076063326593"><ele>666.5</ele><time>2026-04-24T12:44:36Z</time></trkpt><trkpt lat="40.90660902692487" lon="15.687158198563775"><ele>667.25</ele><time>2026-04-24T12:44:37Z</time></trkpt><trkpt lat="40.906479975120476" lon="15.687240318854716"><ele>668.0</ele><time>2026-04-24T12:44:38Z</time></trkpt><trkpt lat="40.90635698415027" lon="15.687344760233708"><ele>668.0</ele><time>2026-04-24T12:44:39Z</time></trkpt><trkpt lat="40.9062428172414" lon="15.687468153636559"><ele>668.0</ele><time>2026-04-24T12:44:40Z</time></trkpt><trkpt lat="40.90614016094018" lon="15.687615712249853"><ele>668.0</ele><time>2026-04-24T12:44:41Z</time></trkpt><trkpt lat="40.9060394780942" lon="15.687768777624022"><ele>667.3333333333333</ele><time>2026-04-24T12:44:42Z</time></trkpt><trkpt lat="40.90593786265133" lon="15.687915014029262"><ele>666.6666666666666</ele><time>2026-04-24T12:44:43Z</time></trkpt><trkpt lat="40.905833819164506" lon="15.688065711710554"><ele>666.0</ele><time>2026-04-24T12:44:44Z</time></trkpt><trkpt lat="40.90573216082915" lon="15.688206243558076"><ele>666.0</ele><time>2026-04-24T12:44:45Z</time></trkpt><trkpt lat="40.90562574791682" lon="15.688351421081771"><ele>666.0</ele><time>2026-04-24T12:44:46Z</time></trkpt><trkpt lat="40.90552433113215" lon="15.688506601748207"><ele>666.0</ele><time>2026-04-24T12:44:47Z</time></trkpt><trkpt lat="40.9054206889287" lon="15.688647243957135"><ele>665.3333333333334</ele><time>2026-04-24T12:44:48Z</time></trkpt><trkpt lat="40.90531557812197" lon="15.688792081046444"><ele>664.6666666666667</ele><time>2026-04-24T12:44:49Z</time></trkpt><trkpt lat="40.90521296794001" lon="15.68893801874872"><ele>664.0</ele><time>2026-04-24T12:44:50Z</time></trkpt><trkpt lat="40.90509366862586" lon="15.689062002817032"><ele>665.0</ele><time>2026-04-24T12:44:51Z</time></trkpt><trkpt lat="40.90497244968951" lon="15.689190772634825"><ele>666.0</ele><time>2026-04-24T12:44:52Z</time></trkpt><trkpt lat="40.904844259284026" lon="15.689310663679558"><ele>667.0</ele><time>2026-04-24T12:44:53Z</time></trkpt><trkpt lat="40.904709594190614" lon="15.68943403910908"><ele>668.3333333333334</ele><time>2026-04-24T12:44:54Z</time></trkpt><trkpt lat="40.904585610051036" lon="15.68957540692214"><ele>669.6666666666666</ele><time>2026-04-24T12:44:55Z</time></trkpt><trkpt lat="40.904456716686525" lon="15.689692880313311"><ele>671.0</ele><time>2026-04-24T12:44:56Z</time></trkpt><trkpt lat="40.904320995643275" lon="15.689816764282234"><ele>671.6666666666666</ele><time>2026-04-24T12:44:57Z</time></trkpt><trkpt lat="40.90419499093893" lon="15.689938664790313"><ele>672.3333333333334</ele><time>2026-04-24T12:44:58Z</time></trkpt><trkpt lat="40.904069734763176" lon="15.69007541960434"><ele>673.0</ele><time>2026-04-24T12:44:59Z</time></trkpt><trkpt lat="40.903948052513265" lon="15.690226838885657"><ele>675.0</ele><time>2026-04-24T12:45:00Z</time></trkpt><trkpt lat="40.903844418361636" lon="15.69038104131481"><ele>677.0</ele><time>2026-04-24T12:45:01Z</time></trkpt><trkpt lat="40.90374416750111" lon="15.69056710032596"><ele>679.0</ele><time>2026-04-24T12:45:02Z</time></trkpt><trkpt lat="40.903646893667705" lon="15.690744453912536"><ele>679.0</ele><time>2026-04-24T12:45:03Z</time></trkpt><trkpt lat="40.90354063789919" lon="15.690934414918985"><ele>679.0</ele><time>2026-04-24T12:45:04Z</time></trkpt><trkpt lat="40.90343539828825" lon="15.691113575233357"><ele>679.0</ele><time>2026-04-24T12:45:05Z</time></trkpt><trkpt lat="40.90332798152541" lon="15.69130011129823"><ele>679.3333333333334</ele><time>2026-04-24T12:45:06Z</time></trkpt><trkpt lat="40.90322108743583" lon="15.691477599699304"><ele>679.6666666666666</ele><time>2026-04-24T12:45:07Z</time></trkpt><trkpt lat="40.90311427434428" lon="15.69165229323446"><ele>680.0</ele><time>2026-04-24T12:45:08Z</time></trkpt><trkpt lat="40.90300753232854" lon="15.691834537046146"><ele>680.3333333333333</ele><time>2026-04-24T12:45:09Z</time></trkpt><trkpt lat="40.902907855862956" lon="15.692011997615849"><ele>680.6666666666666</ele><time>2026-04-24T12:45:10Z</time></trkpt><trkpt lat="40.90280626346466" lon="15.692189601364065"><ele>681.0</ele><time>2026-04-24T12:45:11Z</time></trkpt><trkpt lat="40.90269837725938" lon="15.69236507570823"><ele>681.0</ele><time>2026-04-24T12:45:12Z</time></trkpt><trkpt lat="40.90258669110545" lon="15.692517473407293"><ele>681.0</ele><time>2026-04-24T12:45:13Z</time></trkpt><trkpt lat="40.902453102615404" lon="15.69262541512956"><ele>681.0</ele><time>2026-04-24T12:45:14Z</time></trkpt><trkpt lat="40.90231479559686" lon="15.692731701604526"><ele>679.6666666666666</ele><time>2026-04-24T12:45:15Z</time></trkpt><trkpt lat="40.902158055784994" lon="15.69283969708905"><ele>678.3333333333333</ele><time>2026-04-24T12:45:16Z</time></trkpt><trkpt lat="40.90200501165316" lon="15.692962662162095"><ele>677.0</ele><time>2026-04-24T12:45:17Z</time></trkpt><trkpt lat="40.90184182739641" lon="15.693071964658708"><ele>677.3333333333333</ele><time>2026-04-24T12:45:18Z</time></trkpt><trkpt lat="40.90166741376109" lon="15.693168390487003"><ele>677.6666666666666</ele><time>2026-04-24T12:45:19Z</time></trkpt><trkpt lat="40.9015079470722" lon="15.693302359203773"><ele>678.0</ele><time>2026-04-24T12:45:20Z</time></trkpt><trkpt lat="40.901337267322845" lon="15.69341383183574"><ele>678.0</ele><time>2026-04-24T12:45:21Z</time></trkpt><trkpt lat="40.90116137581396" lon="15.693532604342376"><ele>678.0</ele><time>2026-04-24T12:45:22Z</time></trkpt><trkpt lat="40.900992939532955" lon="15.693652326756636"><ele>678.0</ele><time>2026-04-24T12:45:23Z</time></trkpt><trkpt lat="40.90081551230216" lon="15.693749518939507"><ele>678.0</ele><time>2026-04-24T12:45:24Z</time></trkpt><trkpt lat="40.9006496839886" lon="15.693861023344635"><ele>678.0</ele><time>2026-04-24T12:45:25Z</time></trkpt><trkpt lat="40.90048394421103" lon="15.693974979240004"><ele>678.0</ele><time>2026-04-24T12:45:26Z</time></trkpt><trkpt lat="40.90032308960705" lon="15.694086951403262"><ele>678.0</ele><time>2026-04-24T12:45:27Z</time></trkpt><trkpt lat="40.90017097942083" lon="15.694208756594337"><ele>678.0</ele><time>2026-04-24T12:45:28Z</time></trkpt><trkpt lat="40.900013165047895" lon="15.694317997543575"><ele>678.0</ele><time>2026-04-24T12:45:29Z</time></trkpt><trkpt lat="40.89985759347659" lon="15.694428910932638"><ele>680.3333333333334</ele><time>2026-04-24T12:45:30Z</time></trkpt><trkpt lat="40.89970304812561" lon="15.69454089473782"><ele>682.6666666666667</ele><time>2026-04-24T12:45:31Z</time></trkpt><trkpt lat="40.89954172584649" lon="15.694656109645972"><ele>685.0</ele><time>2026-04-24T12:45:32Z</time></trkpt><trkpt lat="40.89937685630121" lon="15.694771424060724"><ele>683.6666666666667</ele><time>2026-04-24T12:45:33Z</time></trkpt><trkpt lat="40.89920643430138" lon="15.694887579331215"><ele>682.3333333333334</ele><time>2026-04-24T12:45:34Z</time></trkpt><trkpt lat="40.89903510285312" lon="15.69499645874291"><ele>681.0</ele><time>2026-04-24T12:45:35Z</time></trkpt><trkpt lat="40.898853191137" lon="15.695102131587978"><ele>681.0</ele><time>2026-04-24T12:45:36Z</time></trkpt><trkpt lat="40.89866580862939" lon="15.695196725360312"><ele>681.0</ele><time>2026-04-24T12:45:37Z</time></trkpt><trkpt lat="40.898479914003424" lon="15.695283947700336"><ele>681.0</ele><time>2026-04-24T12:45:38Z</time></trkpt><trkpt lat="40.898276259229775" lon="15.695350526446372"><ele>679.6666666666666</ele><time>2026-04-24T12:45:39Z</time></trkpt><trkpt lat="40.89808285552995" lon="15.695433503738832"><ele>678.3333333333333</ele><time>2026-04-24T12:45:40Z</time></trkpt><trkpt lat="40.89789388576131" lon="15.695517997080831"><ele>677.0</ele><time>2026-04-24T12:45:41Z</time></trkpt><trkpt lat="40.89768891386034" lon="15.695609645605385"><ele>678.0</ele><time>2026-04-24T12:45:42Z</time></trkpt><trkpt lat="40.89749426447149" lon="15.695693359346796"><ele>679.0</ele><time>2026-04-24T12:45:43Z</time></trkpt><trkpt lat="40.89729357554963" lon="15.695777179682924"><ele>680.0</ele><time>2026-04-24T12:45:44Z</time></trkpt><trkpt lat="40.89711503661211" lon="15.695849706475988"><ele>680.0</ele><time>2026-04-24T12:45:45Z</time></trkpt><trkpt lat="40.89692372961017" lon="15.695928917665842"><ele>680.0</ele><time>2026-04-24T12:45:46Z</time></trkpt><trkpt lat="40.89672667087404" lon="15.696032533825825"><ele>680.0</ele><time>2026-04-24T12:45:47Z</time></trkpt><trkpt lat="40.89655036126207" lon="15.696098813276938"><ele>680.3333333333333</ele><time>2026-04-24T12:45:48Z</time></trkpt><trkpt lat="40.896388769366986" lon="15.69617067140067"><ele>680.6666666666666</ele><time>2026-04-24T12:45:49Z</time></trkpt><trkpt lat="40.89623388774409" lon="15.696245845984492"><ele>681.0</ele><time>2026-04-24T12:45:50Z</time></trkpt><trkpt lat="40.89607362978852" lon="15.696304337508877"><ele>681.0</ele><time>2026-04-24T12:45:51Z</time></trkpt><trkpt lat="40.8959425845925" lon="15.696412774165605"><ele>681.0</ele><time>2026-04-24T12:45:52Z</time></trkpt><trkpt lat="40.89582156242534" lon="15.696524452325754"><ele>681.0</ele><time>2026-04-24T12:45:53Z</time></trkpt><trkpt lat="40.89571467347769" lon="15.696661856597272"><ele>680.5</ele><time>2026-04-24T12:45:54Z</time></trkpt><trkpt lat="40.89562654741427" lon="15.696817421497245"><ele>680.0</ele><time>2026-04-24T12:45:55Z</time></trkpt><trkpt lat="40.89555323775822" lon="15.696986922172913"><ele>679.5</ele><time>2026-04-24T12:45:56Z</time></trkpt><trkpt lat="40.89549239168465" lon="15.697175222247203"><ele>679.0</ele><time>2026-04-24T12:45:57Z</time></trkpt><trkpt lat="40.89543019492803" lon="15.697350792157016"><ele>679.0</ele><time>2026-04-24T12:45:58Z</time></trkpt><trkpt lat="40.895363284943194" lon="15.697524461391417"><ele>679.0</ele><time>2026-04-24T12:45:59Z</time></trkpt><trkpt lat="40.89527883658421" lon="15.697685318515768"><ele>679.0</ele><time>2026-04-24T12:46:00Z</time></trkpt><trkpt lat="40.89519883659701" lon="15.697860250877438"><ele>676.75</ele><time>2026-04-24T12:46:01Z</time></trkpt><trkpt lat="40.89511452176649" lon="15.698008995634453"><ele>674.5</ele><time>2026-04-24T12:46:02Z</time></trkpt><trkpt lat="40.89501501964259" lon="15.698141344516099"><ele>672.25</ele><time>2026-04-24T12:46:03Z</time></trkpt><trkpt lat="40.89491244726236" lon="15.698256978370816"><ele>670.0</ele><time>2026-04-24T12:46:04Z</time></trkpt><trkpt lat="40.89478551165343" lon="15.69837584197671"><ele>671.75</ele><time>2026-04-24T12:46:05Z</time></trkpt><trkpt lat="40.89467565202435" lon="15.698473526518768"><ele>673.5</ele><time>2026-04-24T12:46:06Z</time></trkpt><trkpt lat="40.894565952046506" lon="15.698575134663205"><ele>675.25</ele><time>2026-04-24T12:46:07Z</time></trkpt><trkpt lat="40.89447638319567" lon="15.698691463755672"><ele>677.0</ele><time>2026-04-24T12:46:08Z</time></trkpt><trkpt lat="40.89439896150159" lon="15.698812487909219"><ele>677.0</ele><time>2026-04-24T12:46:09Z</time></trkpt><trkpt lat="40.89434014626624" lon="15.698947312435724"><ele>677.0</ele><time>2026-04-24T12:46:10Z</time></trkpt><trkpt lat="40.894293983948494" lon="15.699100083709963"><ele>677.0</ele><time>2026-04-24T12:46:11Z</time></trkpt><trkpt lat="40.89427238103249" lon="15.699248621976409"><ele>677.0</ele><time>2026-04-24T12:46:12Z</time></trkpt><trkpt lat="40.894252815375005" lon="15.69941436706863"><ele>679.25</ele><time>2026-04-24T12:46:13Z</time></trkpt><trkpt lat="40.8942478779498" lon="15.699578121539734"><ele>681.5</ele><time>2026-04-24T12:46:14Z</time></trkpt><trkpt lat="40.89423008504502" lon="15.699751056046388"><ele>683.75</ele><time>2026-04-24T12:46:15Z</time></trkpt><trkpt lat="40.894228019483585" lon="15.699930724860403"><ele>686.0</ele><time>2026-04-24T12:46:16Z</time></trkpt><trkpt lat="40.8942259438452" lon="15.700129295793966"><ele>685.3333333333333</ele><time>2026-04-24T12:46:17Z</time></trkpt><trkpt lat="40.894238834203776" lon="15.700319831235971"><ele>684.6666666666666</ele><time>2026-04-24T12:46:18Z</time></trkpt><trkpt lat="40.894230291310706" lon="15.700535530464093"><ele>684.0</ele><time>2026-04-24T12:46:19Z</time></trkpt><trkpt lat="40.89421691398638" lon="15.700728650695554"><ele>684.0</ele><time>2026-04-24T12:46:20Z</time></trkpt><trkpt lat="40.89420592635129" lon="15.700924097861666"><ele>684.0</ele><time>2026-04-24T12:46:21Z</time></trkpt><trkpt lat="40.89419934385166" lon="15.701119717354748"><ele>684.0</ele><time>2026-04-24T12:46:22Z</time></trkpt><trkpt lat="40.89420697338198" lon="15.701315598096228"><ele>684.0</ele><time>2026-04-24T12:46:23Z</time></trkpt><trkpt lat="40.89422757406539" lon="15.701506049885257"><ele>683.5</ele><time>2026-04-24T12:46:24Z</time></trkpt><trkpt lat="40.894255301050755" lon="15.70169158297733"><ele>683.0</ele><time>2026-04-24T12:46:25Z</time></trkpt><trkpt lat="40.89428536193431" lon="15.701869628223104"><ele>682.5</ele><time>2026-04-24T12:46:26Z</time></trkpt><trkpt lat="40.894308567014356" lon="15.702025220496198"><ele>682.0</ele><time>2026-04-24T12:46:27Z</time></trkpt><trkpt lat="40.894314162267015" lon="15.702165536841708"><ele>680.0</ele><time>2026-04-24T12:46:28Z</time></trkpt><trkpt lat="40.89428853497288" lon="15.702291785432108"><ele>678.0</ele><time>2026-04-24T12:46:29Z</time></trkpt><trkpt lat="40.89422261906185" lon="15.702412728528987"><ele>676.0</ele><time>2026-04-24T12:46:30Z</time></trkpt><trkpt lat="40.89416512849404" lon="15.702553719467303"><ele>674.0</ele><time>2026-04-24T12:46:31Z</time></trkpt><trkpt lat="40.894099337818695" lon="15.702691128040081"><ele>678.25</ele><time>2026-04-24T12:46:32Z</time></trkpt><trkpt lat="40.894069085188114" lon="15.702838842447802"><ele>682.5</ele><time>2026-04-24T12:46:33Z</time></trkpt><trkpt lat="40.894061345426785" lon="15.70301240306815"><ele>686.75</ele><time>2026-04-24T12:46:34Z</time></trkpt><trkpt lat="40.89405597415613" lon="15.703203916203739"><ele>691.0</ele><time>2026-04-24T12:46:35Z</time></trkpt><trkpt lat="40.89404754255954" lon="15.703389520160089"><ele>690.75</ele><time>2026-04-24T12:46:36Z</time></trkpt><trkpt lat="40.89403335090833" lon="15.703585567273628"><ele>690.5</ele><time>2026-04-24T12:46:37Z</time></trkpt><trkpt lat="40.89400748159611" lon="15.70378183670105"><ele>690.25</ele><time>2026-04-24T12:46:38Z</time></trkpt><trkpt lat="40.89398126070538" lon="15.703953114578097"><ele>690.0</ele><time>2026-04-24T12:46:39Z</time></trkpt><trkpt lat="40.89396255206117" lon="15.704112291871242"><ele>690.0</ele><time>2026-04-24T12:46:40Z</time></trkpt><trkpt lat="40.89396477311152" lon="15.704279058433773"><ele>690.0</ele><time>2026-04-24T12:46:41Z</time></trkpt><trkpt lat="40.89398429970582" lon="15.704440090026392"><ele>690.0</ele><time>2026-04-24T12:46:42Z</time></trkpt><trkpt lat="40.89403496798793" lon="15.7045882368231"><ele>690.0</ele><time>2026-04-24T12:46:43Z</time></trkpt><trkpt lat="40.89411066961186" lon="15.704709714950077"><ele>692.0</ele><time>2026-04-24T12:46:44Z</time></trkpt><trkpt lat="40.89421275029422" lon="15.704814800163247"><ele>694.0</ele><time>2026-04-24T12:46:45Z</time></trkpt><trkpt lat="40.89432704537985" lon="15.704913544061732"><ele>696.0</ele><time>2026-04-24T12:46:46Z</time></trkpt><trkpt lat="40.89444405566234" lon="15.705023291406851"><ele>698.0</ele><time>2026-04-24T12:46:47Z</time></trkpt><trkpt lat="40.89453852257543" lon="15.705152566851778"><ele>696.5</ele><time>2026-04-24T12:46:48Z</time></trkpt><trkpt lat="40.894626777331595" lon="15.705299780201413"><ele>695.0</ele><time>2026-04-24T12:46:49Z</time></trkpt><trkpt lat="40.89471562080016" lon="15.705447983008884"><ele>693.5</ele><time>2026-04-24T12:46:50Z</time></trkpt><trkpt lat="40.89480501315561" lon="15.705604402559679"><ele>692.0</ele><time>2026-04-24T12:46:51Z</time></trkpt><trkpt lat="40.89488254192268" lon="15.705760109882636"><ele>692.0</ele><time>2026-04-24T12:46:52Z</time></trkpt><trkpt lat="40.89495737463911" lon="15.705909651509586"><ele>692.0</ele><time>2026-04-24T12:46:53Z</time></trkpt><trkpt lat="40.895027312921705" lon="15.706056580900292"><ele>692.0</ele><time>2026-04-24T12:46:54Z</time></trkpt><trkpt lat="40.89507240969774" lon="15.706199191719337"><ele>692.0</ele><time>2026-04-24T12:46:55Z</time></trkpt><trkpt lat="40.895093340676475" lon="15.706364039221075"><ele>692.5</ele><time>2026-04-24T12:46:56Z</time></trkpt><trkpt lat="40.895078557356406" lon="15.706538562900633"><ele>693.0</ele><time>2026-04-24T12:46:57Z</time></trkpt><trkpt lat="40.89508486129147" lon="15.7067193774413"><ele>693.5</ele><time>2026-04-24T12:46:58Z</time></trkpt><trkpt lat="40.895068592653" lon="15.706906228906771"><ele>694.0</ele><time>2026-04-24T12:46:59Z</time></trkpt><trkpt lat="40.895064235140936" lon="15.707099338110085"><ele>694.0</ele><time>2026-04-24T12:47:00Z</time></trkpt><trkpt lat="40.895084525772695" lon="15.707290685008331"><ele>694.0</ele><time>2026-04-24T12:47:01Z</time></trkpt><trkpt lat="40.8951275273239" lon="15.70749334329935"><ele>694.0</ele><time>2026-04-24T12:47:02Z</time></trkpt><trkpt lat="40.89519833448504" lon="15.707690805447315"><ele>692.0</ele><time>2026-04-24T12:47:03Z</time></trkpt><trkpt lat="40.895280206244884" lon="15.707864491566394"><ele>690.0</ele><time>2026-04-24T12:47:04Z</time></trkpt><trkpt lat="40.89535723256584" lon="15.708040302971867"><ele>688.0</ele><time>2026-04-24T12:47:05Z</time></trkpt><trkpt lat="40.895418980404656" lon="15.708195896655473"><ele>686.0</ele><time>2026-04-24T12:47:06Z</time></trkpt><trkpt lat="40.8954753621275" lon="15.708345599945991"><ele>686.0</ele><time>2026-04-24T12:47:07Z</time></trkpt><trkpt lat="40.89552493559529" lon="15.708489613606451"><ele>686.0</ele><time>2026-04-24T12:47:08Z</time></trkpt><trkpt lat="40.895556515066986" lon="15.708647624684993"><ele>686.0</ele><time>2026-04-24T12:47:09Z</time></trkpt><trkpt lat="40.89558264746299" lon="15.708824817853374"><ele>686.0</ele><time>2026-04-24T12:47:10Z</time></trkpt><trkpt lat="40.89559245304174" lon="15.709006291979714"><ele>686.0</ele><time>2026-04-24T12:47:11Z</time></trkpt><trkpt lat="40.8955795964673" lon="15.709205739885128"><ele>686.0</ele><time>2026-04-24T12:47:12Z</time></trkpt><trkpt lat="40.89555466128066" lon="15.709384564914712"><ele>686.0</ele><time>2026-04-24T12:47:13Z</time></trkpt><trkpt lat="40.895531926967436" lon="15.709547712835226"><ele>686.0</ele><time>2026-04-24T12:47:14Z</time></trkpt><trkpt lat="40.895497193828504" lon="15.709690144258836"><ele>686.0</ele><time>2026-04-24T12:47:15Z</time></trkpt><trkpt lat="40.89543242258706" lon="15.7098131068422"><ele>686.0</ele><time>2026-04-24T12:47:16Z</time></trkpt><trkpt lat="40.89532597012902" lon="15.709883154911395"><ele>686.0</ele><time>2026-04-24T12:47:17Z</time></trkpt><trkpt lat="40.89521385234917" lon="15.709945532012547"><ele>686.0</ele><time>2026-04-24T12:47:18Z</time></trkpt><trkpt lat="40.895087273676786" lon="15.710001269671722"><ele>688.75</ele><time>2026-04-24T12:47:19Z</time></trkpt><trkpt lat="40.89496302889965" lon="15.710066593224948"><ele>691.5</ele><time>2026-04-24T12:47:20Z</time></trkpt><trkpt lat="40.89482022910927" lon="15.710107529175778"><ele>694.25</ele><time>2026-04-24T12:47:21Z</time></trkpt><trkpt lat="40.89468514971309" lon="15.710160587928758"><ele>697.0</ele><time>2026-04-24T12:47:22Z</time></trkpt><trkpt lat="40.894574295967615" lon="15.710237254542175"><ele>696.75</ele><time>2026-04-24T12:47:23Z</time></trkpt><trkpt lat="40.8944615227108" lon="15.710324069020242"><ele>696.5</ele><time>2026-04-24T12:47:24Z</time></trkpt><trkpt lat="40.89436609009364" lon="15.710434922480072"><ele>696.25</ele><time>2026-04-24T12:47:25Z</time></trkpt><trkpt lat="40.894295163418974" lon="15.71056891494867"><ele>696.0</ele><time>2026-04-24T12:47:26Z</time></trkpt><trkpt lat="40.89424365994937" lon="15.710718258606438"><ele>696.0</ele><time>2026-04-24T12:47:27Z</time></trkpt><trkpt lat="40.89420617584952" lon="15.710891942431044"><ele>696.0</ele><time>2026-04-24T12:47:28Z</time></trkpt><trkpt lat="40.89417845099833" lon="15.711057412356974"><ele>696.0</ele><time>2026-04-24T12:47:29Z</time></trkpt><trkpt lat="40.894147596909704" lon="15.711195053270842"><ele>696.0</ele><time>2026-04-24T12:47:30Z</time></trkpt><trkpt lat="40.89410549716631" lon="15.71130678572506"><ele>693.8</ele><time>2026-04-24T12:47:31Z</time></trkpt><trkpt lat="40.894034792454754" lon="15.71140812026433"><ele>691.5999999999999</ele><time>2026-04-24T12:47:32Z</time></trkpt><trkpt lat="40.893943078246714" lon="15.71147994505543"><ele>689.4</ele><time>2026-04-24T12:47:33Z</time></trkpt><trkpt lat="40.89383405457598" lon="15.711477251852997"><ele>687.2</ele><time>2026-04-24T12:47:34Z</time></trkpt><trkpt lat="40.89371854932135" lon="15.711449608445301"><ele>685.0</ele><time>2026-04-24T12:47:35Z</time></trkpt><trkpt lat="40.893588001768705" lon="15.71140419079549"><ele>685.0</ele><time>2026-04-24T12:47:36Z</time></trkpt><trkpt lat="40.893435778687866" lon="15.711352626439913"><ele>685.0</ele><time>2026-04-24T12:47:37Z</time></trkpt><trkpt lat="40.89330790705039" lon="15.71132154342959"><ele>685.0</ele><time>2026-04-24T12:47:38Z</time></trkpt><trkpt lat="40.89316951759217" lon="15.71127909514498"><ele>685.0</ele><time>2026-04-24T12:47:39Z</time></trkpt><trkpt lat="40.893032266342686" lon="15.711243093418393"><ele>684.3333333333334</ele><time>2026-04-24T12:47:40Z</time></trkpt><trkpt lat="40.89289058845024" lon="15.711195972814224"><ele>683.6666666666666</ele><time>2026-04-24T12:47:41Z</time></trkpt><trkpt lat="40.89274165901505" lon="15.71121998869819"><ele>683.0</ele><time>2026-04-24T12:47:42Z</time></trkpt><trkpt lat="40.89258904658176" lon="15.71126504959564"><ele>682.3333333333333</ele><time>2026-04-24T12:47:43Z</time></trkpt><trkpt lat="40.89242438904265" lon="15.711322005004991"><ele>681.6666666666666</ele><time>2026-04-24T12:47:44Z</time></trkpt><trkpt lat="40.89225211874095" lon="15.711393443879539"><ele>681.0</ele><time>2026-04-24T12:47:45Z</time></trkpt><trkpt lat="40.89208275705129" lon="15.71146182704106"><ele>681.0</ele><time>2026-04-24T12:47:46Z</time></trkpt><trkpt lat="40.89190853789336" lon="15.711528639516338"><ele>681.0</ele><time>2026-04-24T12:47:47Z</time></trkpt><trkpt lat="40.891736113331035" lon="15.711594228692949"><ele>681.0</ele><time>2026-04-24T12:47:48Z</time></trkpt><trkpt lat="40.89157433395973" lon="15.711656585654746"><ele>682.0</ele><time>2026-04-24T12:47:49Z</time></trkpt><trkpt lat="40.891421410372715" lon="15.71171059063242"><ele>683.0</ele><time>2026-04-24T12:47:50Z</time></trkpt><trkpt lat="40.89128407268219" lon="15.711757894520712"><ele>684.0</ele><time>2026-04-24T12:47:51Z</time></trkpt><trkpt lat="40.891156936534784" lon="15.71180159706915"><ele>685.0</ele><time>2026-04-24T12:47:52Z</time></trkpt><trkpt lat="40.89103280277366" lon="15.711861383863683"><ele>684.75</ele><time>2026-04-24T12:47:53Z</time></trkpt><trkpt lat="40.89090911403295" lon="15.711945440865062"><ele>684.5</ele><time>2026-04-24T12:47:54Z</time></trkpt><trkpt lat="40.89080093155707" lon="15.712060081751167"><ele>684.25</ele><time>2026-04-24T12:47:55Z</time></trkpt><trkpt lat="40.890701331821305" lon="15.712205004553038"><ele>684.0</ele><time>2026-04-24T12:47:56Z</time></trkpt><trkpt lat="40.89060635060849" lon="15.712348219075775"><ele>684.0</ele><time>2026-04-24T12:47:57Z</time></trkpt><trkpt lat="40.89049691427152" lon="15.712469995895693"><ele>684.0</ele><time>2026-04-24T12:47:58Z</time></trkpt><trkpt lat="40.8903830866117" lon="15.71255833366054"><ele>684.0</ele><time>2026-04-24T12:47:59Z</time></trkpt><trkpt lat="40.890261447131884" lon="15.71263910989692"><ele>684.0</ele><time>2026-04-24T12:48:00Z</time></trkpt><trkpt lat="40.89012751266268" lon="15.712706094061247"><ele>684.0</ele><time>2026-04-24T12:48:01Z</time></trkpt><trkpt lat="40.88998318262471" lon="15.71277217980443"><ele>684.0</ele><time>2026-04-24T12:48:02Z</time></trkpt><trkpt lat="40.88984057276278" lon="15.712848839598452"><ele>684.0</ele><time>2026-04-24T12:48:03Z</time></trkpt><trkpt lat="40.88970067658058" lon="15.712928001695241"><ele>684.0</ele><time>2026-04-24T12:48:04Z</time></trkpt><trkpt lat="40.88955731992879" lon="15.712998774108764"><ele>684.0</ele><time>2026-04-24T12:48:05Z</time></trkpt><trkpt lat="40.889415662983" lon="15.713065934181813"><ele>684.0</ele><time>2026-04-24T12:48:06Z</time></trkpt><trkpt lat="40.889258886057426" lon="15.71315752591948"><ele>687.3333333333334</ele><time>2026-04-24T12:48:07Z</time></trkpt><trkpt lat="40.889103376563725" lon="15.713244322948315"><ele>690.6666666666667</ele><time>2026-04-24T12:48:08Z</time></trkpt><trkpt lat="40.888943875300725" lon="15.713337709030318"><ele>694.0</ele><time>2026-04-24T12:48:09Z</time></trkpt><trkpt lat="40.88878549169181" lon="15.713413490146756"><ele>694.0</ele><time>2026-04-24T12:48:10Z</time></trkpt><trkpt lat="40.88861576597584" lon="15.71350385768111"><ele>694.0</ele><time>2026-04-24T12:48:11Z</time></trkpt><trkpt lat="40.88845309505289" lon="15.713600602957108"><ele>694.0</ele><time>2026-04-24T12:48:12Z</time></trkpt><trkpt lat="40.8882820826724" lon="15.713696858668918"><ele>697.3333333333334</ele><time>2026-04-24T12:48:13Z</time></trkpt><trkpt lat="40.88811516927703" lon="15.713798060966571"><ele>700.6666666666666</ele><time>2026-04-24T12:48:14Z</time></trkpt><trkpt lat="40.88793890678398" lon="15.713885907768026"><ele>704.0</ele><time>2026-04-24T12:48:15Z</time></trkpt><trkpt lat="40.88776572815965" lon="15.713983486705574"><ele>703.0</ele><time>2026-04-24T12:48:16Z</time></trkpt><trkpt lat="40.88759281671117" lon="15.714082653617064"><ele>702.0</ele><time>2026-04-24T12:48:17Z</time></trkpt><trkpt lat="40.88742887167984" lon="15.714168141995197"><ele>701.0</ele><time>2026-04-24T12:48:18Z</time></trkpt><trkpt lat="40.88729285962442" lon="15.714280215009742"><ele>701.0</ele><time>2026-04-24T12:48:19Z</time></trkpt><trkpt lat="40.887170338525415" lon="15.714402664433598"><ele>701.0</ele><time>2026-04-24T12:48:20Z</time></trkpt><trkpt lat="40.887071270117225" lon="15.714553005985648"><ele>701.0</ele><time>2026-04-24T12:48:21Z</time></trkpt><trkpt lat="40.88697218133797" lon="15.714736414096485"><ele>700.3333333333333</ele><time>2026-04-24T12:48:22Z</time></trkpt><trkpt lat="40.88688319016845" lon="15.714919864671353"><ele>699.6666666666666</ele><time>2026-04-24T12:48:23Z</time></trkpt><trkpt lat="40.88679180484457" lon="15.715110907055719"><ele>699.0</ele><time>2026-04-24T12:48:24Z</time></trkpt><trkpt lat="40.88669033411651" lon="15.7152953998653"><ele>699.0</ele><time>2026-04-24T12:48:25Z</time></trkpt><trkpt lat="40.88659186205661" lon="15.715462755071556"><ele>699.0</ele><time>2026-04-24T12:48:26Z</time></trkpt><trkpt lat="40.88650203996404" lon="15.71563419108367"><ele>699.0</ele><time>2026-04-24T12:48:27Z</time></trkpt><trkpt lat="40.88642927693413" lon="15.715782507176229"><ele>699.0</ele><time>2026-04-24T12:48:28Z</time></trkpt><trkpt lat="40.88637696834964" lon="15.715929877879663"><ele>699.0</ele><time>2026-04-24T12:48:29Z</time></trkpt><trkpt lat="40.88633602843689" lon="15.716091629270572"><ele>699.0</ele><time>2026-04-24T12:48:30Z</time></trkpt><trkpt lat="40.88631417432751" lon="15.716241070894238"><ele>699.0</ele><time>2026-04-24T12:48:31Z</time></trkpt><trkpt lat="40.88626610574103" lon="15.716368320941479"><ele>698.0</ele><time>2026-04-24T12:48:32Z</time></trkpt><trkpt lat="40.886221924528265" lon="15.71647737388466"><ele>697.0</ele><time>2026-04-24T12:48:33Z</time></trkpt><trkpt lat="40.88615551555289" lon="15.716571854318817"><ele>696.0</ele><time>2026-04-24T12:48:34Z</time></trkpt><trkpt lat="40.88606509535129" lon="15.71665196953375"><ele>695.0</ele><time>2026-04-24T12:48:35Z</time></trkpt><trkpt lat="40.88595841073636" lon="15.716714403172961"><ele>694.0</ele><time>2026-04-24T12:48:36Z</time></trkpt><trkpt lat="40.885849605140095" lon="15.716804699916258"><ele>693.5</ele><time>2026-04-24T12:48:37Z</time></trkpt><trkpt lat="40.885725805853006" lon="15.716878852059306"><ele>693.0</ele><time>2026-04-24T12:48:38Z</time></trkpt><trkpt lat="40.885592813696164" lon="15.71694359427936"><ele>692.5</ele><time>2026-04-24T12:48:39Z</time></trkpt><trkpt lat="40.88546308563727" lon="15.71703007398522"><ele>692.0</ele><time>2026-04-24T12:48:40Z</time></trkpt><trkpt lat="40.88533395484147" lon="15.71712691019037"><ele>691.75</ele><time>2026-04-24T12:48:41Z</time></trkpt><trkpt lat="40.88519990817458" lon="15.717255626582123"><ele>691.5</ele><time>2026-04-24T12:48:42Z</time></trkpt><trkpt lat="40.885117567795554" lon="15.717394215967252"><ele>691.25</ele><time>2026-04-24T12:48:43Z</time></trkpt><trkpt lat="40.885018935481526" lon="15.717488798091297"><ele>691.0</ele><time>2026-04-24T12:48:44Z</time></trkpt><trkpt lat="40.8849350799107" lon="15.717587868969373"><ele>691.0</ele><time>2026-04-24T12:48:45Z</time></trkpt><trkpt lat="40.88484045100885" lon="15.717678506183375"><ele>691.0</ele><time>2026-04-24T12:48:46Z</time></trkpt><trkpt lat="40.884726588925396" lon="15.717757211400102"><ele>691.0</ele><time>2026-04-24T12:48:47Z</time></trkpt><trkpt lat="40.884596879045674" lon="15.717831407181695"><ele>691.0</ele><time>2026-04-24T12:48:48Z</time></trkpt><trkpt lat="40.88445540402154" lon="15.717908772418422"><ele>691.6666666666667</ele><time>2026-04-24T12:48:49Z</time></trkpt><trkpt lat="40.88431897621093" lon="15.717984921892558"><ele>692.3333333333334</ele><time>2026-04-24T12:48:50Z</time></trkpt><trkpt lat="40.88417768788371" lon="15.71806414043601"><ele>693.0</ele><time>2026-04-24T12:48:51Z</time></trkpt><trkpt lat="40.88403542834279" lon="15.718144180617704"><ele>693.0</ele><time>2026-04-24T12:48:52Z</time></trkpt><trkpt lat="40.883907680067274" lon="15.718216056214949"><ele>693.0</ele><time>2026-04-24T12:48:53Z</time></trkpt><trkpt lat="40.88379964780804" lon="15.718276838921527"><ele>693.0</ele><time>2026-04-24T12:48:54Z</time></trkpt><trkpt lat="40.88370125073088" lon="15.718347037030385"><ele>693.0</ele><time>2026-04-24T12:48:55Z</time></trkpt><trkpt lat="40.88360003801667" lon="15.718375968057014"><ele>693.0</ele><time>2026-04-24T12:48:56Z</time></trkpt><trkpt lat="40.88349895681142" lon="15.718375336707085"><ele>693.0</ele><time>2026-04-24T12:48:57Z</time></trkpt><trkpt lat="40.88341151679281" lon="15.718297698772409"><ele>693.0</ele><time>2026-04-24T12:48:58Z</time></trkpt><trkpt lat="40.88334045093072" lon="15.718198007953994"><ele>693.0</ele><time>2026-04-24T12:48:59Z</time></trkpt><trkpt lat="40.88327786318668" lon="15.71807598063509"><ele>693.0</ele><time>2026-04-24T12:49:00Z</time></trkpt><trkpt lat="40.88321694601798" lon="15.717926446636985"><ele>694.5</ele><time>2026-04-24T12:49:01Z</time></trkpt><trkpt lat="40.8831479057837" lon="15.717779615824208"><ele>696.0</ele><time>2026-04-24T12:49:02Z</time></trkpt><trkpt lat="40.883085503088886" lon="15.71761901747146"><ele>697.5</ele><time>2026-04-24T12:49:03Z</time></trkpt><trkpt lat="40.883012086890375" lon="15.717475902005363"><ele>699.0</ele><time>2026-04-24T12:49:04Z</time></trkpt><trkpt lat="40.88292003322414" lon="15.717371435902484"><ele>699.0</ele><time>2026-04-24T12:49:05Z</time></trkpt><trkpt lat="40.8828128750809" lon="15.717298868616574"><ele>699.0</ele><time>2026-04-24T12:49:06Z</time></trkpt><trkpt lat="40.882702706649226" lon="15.717279540008867"><ele>699.0</ele><time>2026-04-24T12:49:07Z</time></trkpt><trkpt lat="40.88258660612696" lon="15.717304849115212"><ele>699.0</ele><time>2026-04-24T12:49:08Z</time></trkpt><trkpt lat="40.882473769298" lon="15.71738226336413"><ele>701.25</ele><time>2026-04-24T12:49:09Z</time></trkpt><trkpt lat="40.88236335111219" lon="15.717478177548458"><ele>703.5</ele><time>2026-04-24T12:49:10Z</time></trkpt><trkpt lat="40.88224196265655" lon="15.717559129274942"><ele>705.75</ele><time>2026-04-24T12:49:11Z</time></trkpt><trkpt lat="40.88212389061274" lon="15.717656529049908"><ele>708.0</ele><time>2026-04-24T12:49:12Z</time></trkpt><trkpt lat="40.88200614485976" lon="15.717765741055908"><ele>709.75</ele><time>2026-04-24T12:49:13Z</time></trkpt><trkpt lat="40.8818846036825" lon="15.7178738918925"><ele>711.5</ele><time>2026-04-24T12:49:14Z</time></trkpt><trkpt lat="40.881752289436584" lon="15.717974566900871"><ele>713.25</ele><time>2026-04-24T12:49:15Z</time></trkpt><trkpt lat="40.881627729133804" lon="15.718084084615409"><ele>715.0</ele><time>2026-04-24T12:49:16Z</time></trkpt><trkpt lat="40.88149111649238" lon="15.71819250188632"><ele>716.0</ele><time>2026-04-24T12:49:17Z</time></trkpt><trkpt lat="40.88135781527843" lon="15.718304188503812"><ele>717.0</ele><time>2026-04-24T12:49:18Z</time></trkpt><trkpt lat="40.881208462352824" lon="15.7183977367881"><ele>718.0</ele><time>2026-04-24T12:49:19Z</time></trkpt><trkpt lat="40.881066390103754" lon="15.718494607317687"><ele>720.0</ele><time>2026-04-24T12:49:20Z</time></trkpt><trkpt lat="40.88091613735658" lon="15.718574577068605"><ele>722.0</ele><time>2026-04-24T12:49:21Z</time></trkpt><trkpt lat="40.88076268077391" lon="15.718631278640467"><ele>724.0</ele><time>2026-04-24T12:49:22Z</time></trkpt><trkpt lat="40.880590465420944" lon="15.718678870793175"><ele>724.0</ele><time>2026-04-24T12:49:23Z</time></trkpt><trkpt lat="40.88042639465871" lon="15.718711696524101"><ele>724.0</ele><time>2026-04-24T12:49:24Z</time></trkpt><trkpt lat="40.880255522221994" lon="15.718745527304629"><ele>724.0</ele><time>2026-04-24T12:49:25Z</time></trkpt><trkpt lat="40.88008823950839" lon="15.71877975679393"><ele>721.6666666666667</ele><time>2026-04-24T12:49:26Z</time></trkpt><trkpt lat="40.87991140513503" lon="15.71881780086175"><ele>719.3333333333334</ele><time>2026-04-24T12:49:27Z</time></trkpt><trkpt lat="40.87974549460888" lon="15.718854224531011"><ele>717.0</ele><time>2026-04-24T12:49:28Z</time></trkpt><trkpt lat="40.879570244615294" lon="15.71889352325705"><ele>717.0</ele><time>2026-04-24T12:49:29Z</time></trkpt><trkpt lat="40.879392818468794" lon="15.7189333099749"><ele>717.0</ele><time>2026-04-24T12:49:30Z</time></trkpt><trkpt lat="40.87920441089304" lon="15.718972410116749"><ele>717.0</ele><time>2026-04-24T12:49:31Z</time></trkpt><trkpt lat="40.87900663144681" lon="15.719014378683559"><ele>714.0</ele><time>2026-04-24T12:49:32Z</time></trkpt><trkpt lat="40.87879628066143" lon="15.719059572497745"><ele>711.0</ele><time>2026-04-24T12:49:33Z</time></trkpt><trkpt lat="40.878589214287366" lon="15.719103438568625"><ele>708.0</ele><time>2026-04-24T12:49:34Z</time></trkpt><trkpt lat="40.87838323885584" lon="15.719146576285503"><ele>706.0</ele><time>2026-04-24T12:49:35Z</time></trkpt><trkpt lat="40.87818240221619" lon="15.719190358884747"><ele>704.0</ele><time>2026-04-24T12:49:36Z</time></trkpt><trkpt lat="40.8779895763446" lon="15.719260614612576"><ele>702.0</ele><time>2026-04-24T12:49:37Z</time></trkpt><trkpt lat="40.87781546861323" lon="15.71932680241158"><ele>699.3333333333334</ele><time>2026-04-24T12:49:38Z</time></trkpt><trkpt lat="40.87764679024994" lon="15.719418905397179"><ele>696.6666666666667</ele><time>2026-04-24T12:49:39Z</time></trkpt><trkpt lat="40.87749417378618" lon="15.719529945168443"><ele>694.0</ele><time>2026-04-24T12:49:40Z</time></trkpt><trkpt lat="40.87736984853704" lon="15.719645075842312"><ele>694.0</ele><time>2026-04-24T12:49:41Z</time></trkpt><trkpt lat="40.877232184457775" lon="15.719760696793589"><ele>694.0</ele><time>2026-04-24T12:49:42Z</time></trkpt><trkpt lat="40.87708824017937" lon="15.7198225323514"><ele>694.0</ele><time>2026-04-24T12:49:43Z</time></trkpt><trkpt lat="40.8769356218728" lon="15.719883190329845"><ele>694.0</ele><time>2026-04-24T12:49:44Z</time></trkpt><trkpt lat="40.87677730755874" lon="15.719941712444722"><ele>694.0</ele><time>2026-04-24T12:49:45Z</time></trkpt><trkpt lat="40.87661326762907" lon="15.720001487752528"><ele>694.0</ele><time>2026-04-24T12:49:46Z</time></trkpt><trkpt lat="40.87645559321921" lon="15.720078395808581"><ele>694.0</ele><time>2026-04-24T12:49:47Z</time></trkpt><trkpt lat="40.876284706348514" lon="15.720114636331525"><ele>694.0</ele><time>2026-04-24T12:49:48Z</time></trkpt><trkpt lat="40.87612512113583" lon="15.720167651147449"><ele>694.0</ele><time>2026-04-24T12:49:49Z</time></trkpt><trkpt lat="40.87595452597973" lon="15.720219944002094"><ele>690.0</ele><time>2026-04-24T12:49:50Z</time></trkpt><trkpt lat="40.87579641365585" lon="15.720271181992043"><ele>686.0</ele><time>2026-04-24T12:49:51Z</time></trkpt><trkpt lat="40.87564384047152" lon="15.720267116850907"><ele>682.0</ele><time>2026-04-24T12:49:52Z</time></trkpt><trkpt lat="40.87548157142881" lon="15.720274331787053"><ele>682.0</ele><time>2026-04-24T12:49:53Z</time></trkpt><trkpt lat="40.87532026349782" lon="15.720281504010126"><ele>682.0</ele><time>2026-04-24T12:49:54Z</time></trkpt><trkpt lat="40.87515357671907" lon="15.720296176046912"><ele>682.0</ele><time>2026-04-24T12:49:55Z</time></trkpt><trkpt lat="40.87498612927342" lon="15.720335835359212"><ele>683.6666666666667</ele><time>2026-04-24T12:49:56Z</time></trkpt><trkpt lat="40.8748346263426" lon="15.720390729975522"><ele>685.3333333333334</ele><time>2026-04-24T12:49:57Z</time></trkpt><trkpt lat="40.87467530618535" lon="15.72049130513873"><ele>687.0</ele><time>2026-04-24T12:49:58Z</time></trkpt><trkpt lat="40.874523437177864" lon="15.72056227949721"><ele>687.0</ele><time>2026-04-24T12:49:59Z</time></trkpt><trkpt lat="40.87437298422505" lon="15.720645396896634"><ele>687.0</ele><time>2026-04-24T12:50:00Z</time></trkpt><trkpt lat="40.87421494495749" lon="15.720709803673781"><ele>687.0</ele><time>2026-04-24T12:50:01Z</time></trkpt><trkpt lat="40.874078852607106" lon="15.720799179573602"><ele>690.0</ele><time>2026-04-24T12:50:02Z</time></trkpt><trkpt lat="40.87393514465448" lon="15.720877596391501"><ele>693.0</ele><time>2026-04-24T12:50:03Z</time></trkpt><trkpt lat="40.87379642219603" lon="15.720951531555983"><ele>696.0</ele><time>2026-04-24T12:50:04Z</time></trkpt><trkpt lat="40.87366904254155" lon="15.721024436332058"><ele>699.0</ele><time>2026-04-24T12:50:05Z</time></trkpt><trkpt lat="40.87352760735428" lon="15.721081547401347"><ele>700.0</ele><time>2026-04-24T12:50:06Z</time></trkpt><trkpt lat="40.87338563813219" lon="15.72115882534984"><ele>701.0</ele><time>2026-04-24T12:50:07Z</time></trkpt><trkpt lat="40.87325091742021" lon="15.721247398323587"><ele>702.0</ele><time>2026-04-24T12:50:08Z</time></trkpt><trkpt lat="40.87310625867967" lon="15.72132704870628"><ele>702.0</ele><time>2026-04-24T12:50:09Z</time></trkpt><trkpt lat="40.872955624717235" lon="15.721410221201241"><ele>702.0</ele><time>2026-04-24T12:50:10Z</time></trkpt><trkpt lat="40.872797973650066" lon="15.721474708127108"><ele>702.0</ele><time>2026-04-24T12:50:11Z</time></trkpt><trkpt lat="40.87265418684666" lon="15.721574937246064"><ele>705.0</ele><time>2026-04-24T12:50:12Z</time></trkpt><trkpt lat="40.87251130129246" lon="15.721652304461992"><ele>708.0</ele><time>2026-04-24T12:50:13Z</time></trkpt><trkpt lat="40.872363150111944" lon="15.721727883321869"><ele>711.0</ele><time>2026-04-24T12:50:14Z</time></trkpt><trkpt lat="40.87222200605336" lon="15.721804781945877"><ele>711.0</ele><time>2026-04-24T12:50:15Z</time></trkpt><trkpt lat="40.872076696205944" lon="15.721886802854362"><ele>711.0</ele><time>2026-04-24T12:50:16Z</time></trkpt><trkpt lat="40.87192663688519" lon="15.721969694343773"><ele>711.0</ele><time>2026-04-24T12:50:17Z</time></trkpt><trkpt lat="40.87178414380539" lon="15.722028016766384"><ele>713.0</ele><time>2026-04-24T12:50:18Z</time></trkpt><trkpt lat="40.8716364926722" lon="15.7221062645093"><ele>715.0</ele><time>2026-04-24T12:50:19Z</time></trkpt><trkpt lat="40.87149706070118" lon="15.722181456307379"><ele>717.0</ele><time>2026-04-24T12:50:20Z</time></trkpt><trkpt lat="40.871356565532366" lon="15.722257899916182"><ele>717.0</ele><time>2026-04-24T12:50:21Z</time></trkpt><trkpt lat="40.87123046389902" lon="15.7223524706113"><ele>717.0</ele><time>2026-04-24T12:50:22Z</time></trkpt><trkpt lat="40.87110287118791" lon="15.722411809933094"><ele>717.0</ele><time>2026-04-24T12:50:23Z</time></trkpt><trkpt lat="40.870978783636126" lon="15.722495111689705"><ele>717.0</ele><time>2026-04-24T12:50:24Z</time></trkpt><trkpt lat="40.87086524135461" lon="15.722566182930494"><ele>719.0</ele><time>2026-04-24T12:50:25Z</time></trkpt><trkpt lat="40.870750476823126" lon="15.72265562424188"><ele>721.0</ele><time>2026-04-24T12:50:26Z</time></trkpt><trkpt lat="40.87063080783988" lon="15.722756037163178"><ele>723.0</ele><time>2026-04-24T12:50:27Z</time></trkpt><trkpt lat="40.870501693475624" lon="15.722863233411594"><ele>725.0</ele><time>2026-04-24T12:50:28Z</time></trkpt><trkpt lat="40.87036524141776" lon="15.72297786015573"><ele>725.3333333333333</ele><time>2026-04-24T12:50:29Z</time></trkpt><trkpt lat="40.870229292669414" lon="15.723087445266048"><ele>725.6666666666666</ele><time>2026-04-24T12:50:30Z</time></trkpt><trkpt lat="40.87009609173762" lon="15.723192053297447"><ele>726.0</ele><time>2026-04-24T12:50:31Z</time></trkpt><trkpt lat="40.869975261175504" lon="15.723294316181102"><ele>726.0</ele><time>2026-04-24T12:50:32Z</time></trkpt><trkpt lat="40.86985517031248" lon="15.723391099905845"><ele>726.0</ele><time>2026-04-24T12:50:33Z</time></trkpt><trkpt lat="40.8697499737484" lon="15.723478156449564"><ele>726.0</ele><time>2026-04-24T12:50:34Z</time></trkpt><trkpt lat="40.8696455646903" lon="15.723570992577663"><ele>726.0</ele><time>2026-04-24T12:50:35Z</time></trkpt><trkpt lat="40.8695436529516" lon="15.723668624199249"><ele>725.25</ele><time>2026-04-24T12:50:36Z</time></trkpt><trkpt lat="40.869448872134086" lon="15.723783315774243"><ele>724.5</ele><time>2026-04-24T12:50:37Z</time></trkpt><trkpt lat="40.86936646644337" lon="15.723916959498125"><ele>723.75</ele><time>2026-04-24T12:50:38Z</time></trkpt><trkpt lat="40.869297935830986" lon="15.72405328192094"><ele>723.0</ele><time>2026-04-24T12:50:39Z</time></trkpt><trkpt lat="40.869229271902725" lon="15.724191141338865"><ele>723.0</ele><time>2026-04-24T12:50:40Z</time></trkpt><trkpt lat="40.869162743341505" lon="15.724321695612739"><ele>723.0</ele><time>2026-04-24T12:50:41Z</time></trkpt><trkpt lat="40.86907050944547" lon="15.724448454646572"><ele>723.0</ele><time>2026-04-24T12:50:42Z</time></trkpt><trkpt lat="40.86899001589317" lon="15.72456536633479"><ele>723.0</ele><time>2026-04-24T12:50:43Z</time></trkpt><trkpt lat="40.86889888216836" lon="15.724673717851344"><ele>724.75</ele><time>2026-04-24T12:50:44Z</time></trkpt><trkpt lat="40.86880855854316" lon="15.724796009208854"><ele>726.5</ele><time>2026-04-24T12:50:45Z</time></trkpt><trkpt lat="40.86869572476466" lon="15.72488022450372"><ele>728.25</ele><time>2026-04-24T12:50:46Z</time></trkpt><trkpt lat="40.86859709865885" lon="15.72499354479182"><ele>730.0</ele><time>2026-04-24T12:50:47Z</time></trkpt><trkpt lat="40.86849615162819" lon="15.725104072292515"><ele>729.0</ele><time>2026-04-24T12:50:48Z</time></trkpt><trkpt lat="40.86839085348846" lon="15.725220303166537"><ele>728.0</ele><time>2026-04-24T12:50:49Z</time></trkpt><trkpt lat="40.86828090842349" lon="15.725341527281097"><ele>727.0</ele><time>2026-04-24T12:50:50Z</time></trkpt><trkpt lat="40.868166242080314" lon="15.725464572613452"><ele>726.0</ele><time>2026-04-24T12:50:51Z</time></trkpt><trkpt lat="40.86804540783665" lon="15.725594028891974"><ele>729.6666666666666</ele><time>2026-04-24T12:50:52Z</time></trkpt><trkpt lat="40.867912854594984" lon="15.725712933810778"><ele>733.3333333333333</ele><time>2026-04-24T12:50:53Z</time></trkpt><trkpt lat="40.867790117230506" lon="15.725842958094354"><ele>737.0</ele><time>2026-04-24T12:50:54Z</time></trkpt><trkpt lat="40.86766143083611" lon="15.725978878432354"><ele>738.0</ele><time>2026-04-24T12:50:55Z</time></trkpt><trkpt lat="40.867552136907555" lon="15.726109397902215"><ele>739.0</ele><time>2026-04-24T12:50:56Z</time></trkpt><trkpt lat="40.86742896615371" lon="15.726213086364902"><ele>740.0</ele><time>2026-04-24T12:50:57Z</time></trkpt><trkpt lat="40.86729293002194" lon="15.726358896818338"><ele>740.0</ele><time>2026-04-24T12:50:58Z</time></trkpt><trkpt lat="40.86715705727298" lon="15.72650625205802"><ele>740.0</ele><time>2026-04-24T12:50:59Z</time></trkpt><trkpt lat="40.867060694948485" lon="15.726637316154669"><ele>740.0</ele><time>2026-04-24T12:51:00Z</time></trkpt><trkpt lat="40.86692943543098" lon="15.726752426852013"><ele>740.0</ele><time>2026-04-24T12:51:01Z</time></trkpt><trkpt lat="40.86680235975251" lon="15.726884075807314"><ele>740.0</ele><time>2026-04-24T12:51:02Z</time></trkpt><trkpt lat="40.866692886845826" lon="15.727028869449908"><ele>740.0</ele><time>2026-04-24T12:51:03Z</time></trkpt><trkpt lat="40.86656995387369" lon="15.727146551167545"><ele>741.25</ele><time>2026-04-24T12:51:04Z</time></trkpt><trkpt lat="40.866458185233625" lon="15.727271524769952"><ele>742.5</ele><time>2026-04-24T12:51:05Z</time></trkpt><trkpt lat="40.866362278450815" lon="15.727405542466078"><ele>743.75</ele><time>2026-04-24T12:51:06Z</time></trkpt><trkpt lat="40.86628493309251" lon="15.72754711417938"><ele>745.0</ele><time>2026-04-24T12:51:07Z</time></trkpt><trkpt lat="40.866220790027555" lon="15.72770680389642"><ele>747.25</ele><time>2026-04-24T12:51:08Z</time></trkpt><trkpt lat="40.866151145219995" lon="15.727879840447267"><ele>749.5</ele><time>2026-04-24T12:51:09Z</time></trkpt><trkpt lat="40.86608726134015" lon="15.728045073558329"><ele>751.75</ele><time>2026-04-24T12:51:10Z</time></trkpt><trkpt lat="40.86602430650952" lon="15.72819735700055"><ele>754.0</ele><time>2026-04-24T12:51:11Z</time></trkpt><trkpt lat="40.8659601012822" lon="15.728351755781047"><ele>754.0</ele><time>2026-04-24T12:51:12Z</time></trkpt><trkpt lat="40.86589839819399" lon="15.72850683573927"><ele>754.0</ele><time>2026-04-24T12:51:13Z</time></trkpt><trkpt lat="40.86585649445776" lon="15.728665882925814"><ele>754.0</ele><time>2026-04-24T12:51:14Z</time></trkpt><trkpt lat="40.86582617971944" lon="15.728849719917848"><ele>754.0</ele><time>2026-04-24T12:51:15Z</time></trkpt><trkpt lat="40.865807923594424" lon="15.72904112080407"><ele>754.0</ele><time>2026-04-24T12:51:16Z</time></trkpt><trkpt lat="40.865790684589385" lon="15.72924331367559"><ele>754.0</ele><time>2026-04-24T12:51:17Z</time></trkpt><trkpt lat="40.86577424484346" lon="15.729444953032385"><ele>754.0</ele><time>2026-04-24T12:51:18Z</time></trkpt><trkpt lat="40.86575668632954" lon="15.729641587137102"><ele>755.5</ele><time>2026-04-24T12:51:19Z</time></trkpt><trkpt lat="40.86573889143104" lon="15.729830953267014"><ele>757.0</ele><time>2026-04-24T12:51:20Z</time></trkpt><trkpt lat="40.86571440963275" lon="15.730002812844427"><ele>758.5</ele><time>2026-04-24T12:51:21Z</time></trkpt><trkpt lat="40.865702548576" lon="15.730170948376092"><ele>760.0</ele><time>2026-04-24T12:51:22Z</time></trkpt><trkpt lat="40.865684007919086" lon="15.730332280785404"><ele>761.5</ele><time>2026-04-24T12:51:23Z</time></trkpt><trkpt lat="40.865668343069686" lon="15.730502811010018"><ele>763.0</ele><time>2026-04-24T12:51:24Z</time></trkpt><trkpt lat="40.8656538233185" lon="15.730676825181153"><ele>764.5</ele><time>2026-04-24T12:51:25Z</time></trkpt><trkpt lat="40.86563404276101" lon="15.730852145066905"><ele>766.0</ele><time>2026-04-24T12:51:26Z</time></trkpt><trkpt lat="40.86562075161215" lon="15.731023638320305"><ele>766.5</ele><time>2026-04-24T12:51:27Z</time></trkpt><trkpt lat="40.86561666107035" lon="15.731200708292882"><ele>767.0</ele><time>2026-04-24T12:51:28Z</time></trkpt><trkpt lat="40.86563729549249" lon="15.73136967550681"><ele>767.5</ele><time>2026-04-24T12:51:29Z</time></trkpt><trkpt lat="40.865674273353186" lon="15.731523762536186"><ele>768.0</ele><time>2026-04-24T12:51:30Z</time></trkpt><trkpt lat="40.86572258839175" lon="15.731677757064878"><ele>768.0</ele><time>2026-04-24T12:51:31Z</time></trkpt><trkpt lat="40.865783480438544" lon="15.731833027453089"><ele>768.0</ele><time>2026-04-24T12:51:32Z</time></trkpt><trkpt lat="40.86584362324779" lon="15.731968326370717"><ele>768.0</ele><time>2026-04-24T12:51:33Z</time></trkpt><trkpt lat="40.86590266711586" lon="15.732117381525292"><ele>768.0</ele><time>2026-04-24T12:51:34Z</time></trkpt><trkpt lat="40.865950263265646" lon="15.732251663154784"><ele>768.0</ele><time>2026-04-24T12:51:35Z</time></trkpt><trkpt lat="40.86599892590692" lon="15.732411355439144"><ele>768.0</ele><time>2026-04-24T12:51:36Z</time></trkpt><trkpt lat="40.86603643991851" lon="15.732529812774438"><ele>768.0</ele><time>2026-04-24T12:51:37Z</time></trkpt><trkpt lat="40.866090115110666" lon="15.732652438181661"><ele>768.0</ele><time>2026-04-24T12:51:38Z</time></trkpt><trkpt lat="40.86611667558861" lon="15.7327617385209"><ele>768.0</ele><time>2026-04-24T12:51:39Z</time></trkpt><trkpt lat="40.866132837233806" lon="15.732866336043717"><ele>768.1428571428571</ele><time>2026-04-24T12:51:40Z</time></trkpt><trkpt lat="40.86613563149924" lon="15.732958291883794"><ele>768.2857142857142</ele><time>2026-04-24T12:51:41Z</time></trkpt><trkpt lat="40.866126498869036" lon="15.733064082229667"><ele>768.4285714285713</ele><time>2026-04-24T12:51:42Z</time></trkpt><trkpt lat="40.8661031908058" lon="15.733146947265455"><ele>768.5714285714286</ele><time>2026-04-24T12:51:43Z</time></trkpt><trkpt lat="40.866068016425416" lon="15.73323323614597"><ele>768.7142857142858</ele><time>2026-04-24T12:51:44Z</time></trkpt><trkpt lat="40.86603148823794" lon="15.733314995631401"><ele>768.8571428571428</ele><time>2026-04-24T12:51:45Z</time></trkpt><trkpt lat="40.86596903640287" lon="15.73336653101826"><ele>769.0</ele><time>2026-04-24T12:51:46Z</time></trkpt><trkpt lat="40.86592809652787" lon="15.733455256065213"><ele>769.8333333333333</ele><time>2026-04-24T12:51:47Z</time></trkpt><trkpt lat="40.86587174897301" lon="15.733525510270708"><ele>770.6666666666666</ele><time>2026-04-24T12:51:48Z</time></trkpt><trkpt lat="40.86581419413831" lon="15.73359969546519"><ele>771.5</ele><time>2026-04-24T12:51:49Z</time></trkpt><trkpt lat="40.86575805860309" lon="15.733677358762137"><ele>772.3333333333333</ele><time>2026-04-24T12:51:50Z</time></trkpt><trkpt lat="40.865695828001016" lon="15.733766641773203"><ele>773.1666666666666</ele><time>2026-04-24T12:51:51Z</time></trkpt><trkpt lat="40.86562112806915" lon="15.733874950148278"><ele>774.0</ele><time>2026-04-24T12:51:52Z</time></trkpt><trkpt lat="40.865540071992825" lon="15.733985758581802"><ele>775.75</ele><time>2026-04-24T12:51:53Z</time></trkpt><trkpt lat="40.86545846067393" lon="15.734096067673656"><ele>777.5</ele><time>2026-04-24T12:51:54Z</time></trkpt><trkpt lat="40.86538620610954" lon="15.734212923841731"><ele>779.25</ele><time>2026-04-24T12:51:55Z</time></trkpt><trkpt lat="40.86530428315421" lon="15.734318416681576"><ele>781.0</ele><time>2026-04-24T12:51:56Z</time></trkpt><trkpt lat="40.865229622066934" lon="15.734428672962686"><ele>781.5</ele><time>2026-04-24T12:51:57Z</time></trkpt><trkpt lat="40.86515038415715" lon="15.734545688064413"><ele>782.0</ele><time>2026-04-24T12:51:58Z</time></trkpt><trkpt lat="40.865080425409936" lon="15.734672653390735"><ele>782.5</ele><time>2026-04-24T12:51:59Z</time></trkpt><trkpt lat="40.86500535136624" lon="15.73479151896686"><ele>783.0</ele><time>2026-04-24T12:52:00Z</time></trkpt><trkpt lat="40.864956854484454" lon="15.734916619640602"><ele>783.2</ele><time>2026-04-24T12:52:01Z</time></trkpt><trkpt lat="40.864926844629416" lon="15.735044241159242"><ele>783.4</ele><time>2026-04-24T12:52:02Z</time></trkpt><trkpt lat="40.86491001245526" lon="15.735180501689626"><ele>783.6</ele><time>2026-04-24T12:52:03Z</time></trkpt><trkpt lat="40.864892046873315" lon="15.735312740496239"><ele>783.8000000000001</ele><time>2026-04-24T12:52:04Z</time></trkpt><trkpt lat="40.86487383385446" lon="15.73545135307514"><ele>784.0</ele><time>2026-04-24T12:52:05Z</time></trkpt><trkpt lat="40.86486027500952" lon="15.735571325563104"><ele>784.9999999999999</ele><time>2026-04-24T12:52:06Z</time></trkpt><trkpt lat="40.864850647858304" lon="15.735676752567995"><ele>786.0</ele><time>2026-04-24T12:52:07Z</time></trkpt><trkpt lat="40.86484906577968" lon="15.735761616714347"><ele>787.0</ele><time>2026-04-24T12:52:08Z</time></trkpt><trkpt lat="40.86483211336366" lon="15.735932880763702"><ele>788.0</ele><time>2026-04-24T12:52:10Z</time></trkpt><trkpt lat="40.86481739653997" lon="15.73603237250315"><ele>788.9999999999999</ele><time>2026-04-24T12:52:11Z</time></trkpt><trkpt lat="40.86478754971816" lon="15.736144729644643"><ele>790.0</ele><time>2026-04-24T12:52:12Z</time></trkpt><trkpt lat="40.86473909196433" lon="15.736220831464337"><ele>791.0</ele><time>2026-04-24T12:52:13Z</time></trkpt><trkpt lat="40.86469694233519" lon="15.736291385100673"><ele>792.0</ele><time>2026-04-24T12:52:14Z</time></trkpt><trkpt lat="40.864650532707046" lon="15.73635583905815"><ele>793.0</ele><time>2026-04-24T12:52:15Z</time></trkpt><trkpt lat="40.86458889672754" lon="15.736451595325647"><ele>794.0</ele><time>2026-04-24T12:52:16Z</time></trkpt><trkpt lat="40.86450668655588" lon="15.736545329008866"><ele>795.0</ele><time>2026-04-24T12:52:17Z</time></trkpt><trkpt lat="40.8644041906774" lon="15.736638994255287"><ele>795.0</ele><time>2026-04-24T12:52:18Z</time></trkpt><trkpt lat="40.86430808590106" lon="15.736747858468796"><ele>795.0</ele><time>2026-04-24T12:52:19Z</time></trkpt><trkpt lat="40.864206839169235" lon="15.736862345825841"><ele>795.0</ele><time>2026-04-24T12:52:20Z</time></trkpt><trkpt lat="40.864114016233664" lon="15.736984811152666"><ele>795.0</ele><time>2026-04-24T12:52:21Z</time></trkpt><trkpt lat="40.86402396586579" lon="15.737093663115086"><ele>797.5</ele><time>2026-04-24T12:52:22Z</time></trkpt><trkpt lat="40.863935764640964" lon="15.737194537940749"><ele>800.0</ele><time>2026-04-24T12:52:23Z</time></trkpt><trkpt lat="40.8638631622531" lon="15.737309493935841"><ele>802.5</ele><time>2026-04-24T12:52:24Z</time></trkpt><trkpt lat="40.86381011600636" lon="15.737442641406624"><ele>805.0</ele><time>2026-04-24T12:52:25Z</time></trkpt><trkpt lat="40.86376671977572" lon="15.737599135104583"><ele>807.0</ele><time>2026-04-24T12:52:26Z</time></trkpt><trkpt lat="40.86372828192992" lon="15.737767956429277"><ele>809.0</ele><time>2026-04-24T12:52:27Z</time></trkpt><trkpt lat="40.863695123173635" lon="15.737943257082009"><ele>811.0</ele><time>2026-04-24T12:52:28Z</time></trkpt><trkpt lat="40.86366162298716" lon="15.738128838679897"><ele>813.0</ele><time>2026-04-24T12:52:29Z</time></trkpt><trkpt lat="40.8636177224212" lon="15.738314871588067"><ele>813.0</ele><time>2026-04-24T12:52:30Z</time></trkpt><trkpt lat="40.86358071751977" lon="15.73848247673204"><ele>813.0</ele><time>2026-04-24T12:52:31Z</time></trkpt><trkpt lat="40.86353862549682" lon="15.738658605204515"><ele>813.0</ele><time>2026-04-24T12:52:32Z</time></trkpt><trkpt lat="40.86349563974007" lon="15.738837330446167"><ele>813.0</ele><time>2026-04-24T12:52:33Z</time></trkpt><trkpt lat="40.86345501609191" lon="15.739022721001106"><ele>811.6666666666667</ele><time>2026-04-24T12:52:34Z</time></trkpt><trkpt lat="40.86341811859026" lon="15.739218924701802"><ele>810.3333333333334</ele><time>2026-04-24T12:52:35Z</time></trkpt><trkpt lat="40.8633857243993" lon="15.739414885868603"><ele>809.0</ele><time>2026-04-24T12:52:36Z</time></trkpt><trkpt lat="40.86335938271656" lon="15.73961239522312"><ele>809.0</ele><time>2026-04-24T12:52:37Z</time></trkpt><trkpt lat="40.86334690452622" lon="15.73981001464955"><ele>809.0</ele><time>2026-04-24T12:52:38Z</time></trkpt><trkpt lat="40.86334008567112" lon="15.740004356336907"><ele>809.0</ele><time>2026-04-24T12:52:39Z</time></trkpt><trkpt lat="40.863330183937386" lon="15.740194545407615"><ele>809.0</ele><time>2026-04-24T12:52:40Z</time></trkpt><trkpt lat="40.86332103649635" lon="15.740372695705458"><ele>810.25</ele><time>2026-04-24T12:52:41Z</time></trkpt><trkpt lat="40.863313662091564" lon="15.740533474023572"><ele>811.5</ele><time>2026-04-24T12:52:42Z</time></trkpt><trkpt lat="40.86330688055914" lon="15.74068655425074"><ele>812.75</ele><time>2026-04-24T12:52:43Z</time></trkpt><trkpt lat="40.86329785179967" lon="15.740840067647111"><ele>814.0</ele><time>2026-04-24T12:52:44Z</time></trkpt><trkpt lat="40.863286877907726" lon="15.740991997113177"><ele>815.3333333333333</ele><time>2026-04-24T12:52:45Z</time></trkpt><trkpt lat="40.863275239840526" lon="15.741134931981177"><ele>816.6666666666666</ele><time>2026-04-24T12:52:46Z</time></trkpt><trkpt lat="40.86326570065036" lon="15.74125347992622"><ele>818.0</ele><time>2026-04-24T12:52:47Z</time></trkpt><trkpt lat="40.86325406856861" lon="15.741353819800155"><ele>819.3333333333333</ele><time>2026-04-24T12:52:48Z</time></trkpt><trkpt lat="40.863229700941616" lon="15.741436662808711"><ele>820.6666666666666</ele><time>2026-04-24T12:52:49Z</time></trkpt><trkpt lat="40.863187085537405" lon="15.741510808170705"><ele>822.0</ele><time>2026-04-24T12:52:50Z</time></trkpt><trkpt lat="40.863119003872846" lon="15.74154778046594"><ele>822.0</ele><time>2026-04-24T12:52:51Z</time></trkpt><trkpt lat="40.863038849051314" lon="15.74155209669133"><ele>822.0</ele><time>2026-04-24T12:52:52Z</time></trkpt><trkpt lat="40.86295111681688" lon="15.741545179352892"><ele>822.0</ele><time>2026-04-24T12:52:53Z</time></trkpt><trkpt lat="40.86284790201287" lon="15.741535398179371"><ele>822.0</ele><time>2026-04-24T12:52:54Z</time></trkpt><trkpt lat="40.86273207287081" lon="15.741527258510287"><ele>822.0</ele><time>2026-04-24T12:52:55Z</time></trkpt><trkpt lat="40.86261559517596" lon="15.741540706414538"><ele>822.2</ele><time>2026-04-24T12:52:56Z</time></trkpt><trkpt lat="40.86251938070337" lon="15.741579920434269"><ele>822.4000000000001</ele><time>2026-04-24T12:52:57Z</time></trkpt><trkpt lat="40.86243619095399" lon="15.741643908195886"><ele>822.5999999999999</ele><time>2026-04-24T12:52:58Z</time></trkpt><trkpt lat="40.86238259609821" lon="15.741748590020663"><ele>822.8</ele><time>2026-04-24T12:52:59Z</time></trkpt><trkpt lat="40.862336242211256" lon="15.741865520217956"><ele>823.0</ele><time>2026-04-24T12:53:00Z</time></trkpt><trkpt lat="40.862300735868054" lon="15.742004613863228"><ele>826.0</ele><time>2026-04-24T12:53:01Z</time></trkpt><trkpt lat="40.86226902435976" lon="15.742155518148728"><ele>829.0</ele><time>2026-04-24T12:53:02Z</time></trkpt><trkpt lat="40.86221419762394" lon="15.742314263870975"><ele>832.0</ele><time>2026-04-24T12:53:03Z</time></trkpt><trkpt lat="40.862179707309785" lon="15.74248824226071"><ele>835.0</ele><time>2026-04-24T12:53:04Z</time></trkpt><trkpt lat="40.86212742361937" lon="15.742657836930526"><ele>837.4</ele><time>2026-04-24T12:53:05Z</time></trkpt><trkpt lat="40.862077273864664" lon="15.742824503190473"><ele>839.8</ele><time>2026-04-24T12:53:06Z</time></trkpt><trkpt lat="40.862031076620816" lon="15.742963926390019"><ele>842.2</ele><time>2026-04-24T12:53:07Z</time></trkpt><trkpt lat="40.861991566781064" lon="15.743083719284368"><ele>844.6</ele><time>2026-04-24T12:53:08Z</time></trkpt><trkpt lat="40.86193083254447" lon="15.743167528728177"><ele>847.0</ele><time>2026-04-24T12:53:09Z</time></trkpt><trkpt lat="40.861868474743545" lon="15.743257695983107"><ele>847.0</ele><time>2026-04-24T12:53:10Z</time></trkpt><trkpt lat="40.86178471350343" lon="15.743338939318935"><ele>847.0</ele><time>2026-04-24T12:53:11Z</time></trkpt><trkpt lat="40.86169299158295" lon="15.743408409123694"><ele>847.0</ele><time>2026-04-24T12:53:12Z</time></trkpt><trkpt lat="40.861616053549454" lon="15.743480686803228"><ele>847.0</ele><time>2026-04-24T12:53:13Z</time></trkpt><trkpt lat="40.861548161584395" lon="15.743560500789023"><ele>847.0</ele><time>2026-04-24T12:53:14Z</time></trkpt><trkpt lat="40.86148911301246" lon="15.743649974338894"><ele>846.8</ele><time>2026-04-24T12:53:15Z</time></trkpt><trkpt lat="40.86143274414529" lon="15.743757486430983"><ele>846.6</ele><time>2026-04-24T12:53:16Z</time></trkpt><trkpt lat="40.86138869243384" lon="15.743875264429896"><ele>846.4</ele><time>2026-04-24T12:53:17Z</time></trkpt><trkpt lat="40.8613448028317" lon="15.743999885265282"><ele>846.1999999999999</ele><time>2026-04-24T12:53:18Z</time></trkpt><trkpt lat="40.86130840553437" lon="15.744108102201938"><ele>846.0</ele><time>2026-04-24T12:53:19Z</time></trkpt><trkpt lat="40.86127996832617" lon="15.74419133925977"><ele>846.0</ele><time>2026-04-24T12:53:20Z</time></trkpt><trkpt lat="40.86124400711661" lon="15.744259668587384"><ele>846.0</ele><time>2026-04-24T12:53:21Z</time></trkpt><trkpt lat="40.861202411047216" lon="15.744332860640215"><ele>846.0</ele><time>2026-04-24T12:53:22Z</time></trkpt><trkpt lat="40.861110634993544" lon="15.744318924778517"><ele>846.0</ele><time>2026-04-24T12:53:23Z</time></trkpt><trkpt lat="40.861041670613226" lon="15.744275492334847"><ele>846.0</ele><time>2026-04-24T12:53:24Z</time></trkpt><trkpt lat="40.86094903154346" lon="15.74420745127606"><ele>846.0</ele><time>2026-04-24T12:53:25Z</time></trkpt><trkpt lat="40.86084643730562" lon="15.744149705949999"><ele>845.75</ele><time>2026-04-24T12:53:26Z</time></trkpt><trkpt lat="40.860737775057515" lon="15.744104288621097"><ele>845.5</ele><time>2026-04-24T12:53:27Z</time></trkpt><trkpt lat="40.8606044425326" lon="15.744109151581414"><ele>845.25</ele><time>2026-04-24T12:53:28Z</time></trkpt><trkpt lat="40.86047223080721" lon="15.744099826400149"><ele>845.0</ele><time>2026-04-24T12:53:29Z</time></trkpt><trkpt lat="40.86035605829815" lon="15.744102845945024"><ele>845.0000000000001</ele><time>2026-04-24T12:53:30Z</time></trkpt><trkpt lat="40.86026589653966" lon="15.744097109630099"><ele>845.0</ele><time>2026-04-24T12:53:31Z</time></trkpt><trkpt lat="40.86018128031294" lon="15.744072719167024"><ele>845.0</ele><time>2026-04-24T12:53:32Z</time></trkpt><trkpt lat="40.860091217962484" lon="15.74407831292346"><ele>845.0</ele><time>2026-04-24T12:53:33Z</time></trkpt><trkpt lat="40.86001401212244" lon="15.744100725525254"><ele>845.0000000000001</ele><time>2026-04-24T12:53:34Z</time></trkpt><trkpt lat="40.859945492098745" lon="15.744144801031997"><ele>845.0</ele><time>2026-04-24T12:53:35Z</time></trkpt><trkpt lat="40.85989816978189" lon="15.744213173056549"><ele>845.0</ele><time>2026-04-24T12:53:36Z</time></trkpt><trkpt lat="40.85986852387647" lon="15.744309411304068"><ele>845.0</ele><time>2026-04-24T12:53:37Z</time></trkpt><trkpt lat="40.859843799146724" lon="15.744420075361806"><ele>845.0</ele><time>2026-04-24T12:53:38Z</time></trkpt><trkpt lat="40.85984034294316" lon="15.744550540679404"><ele>845.0</ele><time>2026-04-24T12:53:39Z</time></trkpt><trkpt lat="40.85981518321647" lon="15.744678653604318"><ele>845.0</ele><time>2026-04-24T12:53:40Z</time></trkpt><trkpt lat="40.85976644150977" lon="15.744788963922366"><ele>848.0</ele><time>2026-04-24T12:53:41Z</time></trkpt><trkpt lat="40.85967888564034" lon="15.744849067383788"><ele>851.0</ele><time>2026-04-24T12:53:42Z</time></trkpt><trkpt lat="40.85958473925047" lon="15.744900607570479"><ele>854.0</ele><time>2026-04-24T12:53:43Z</time></trkpt><trkpt lat="40.859485968428835" lon="15.744939314053447"><ele>857.0</ele><time>2026-04-24T12:53:44Z</time></trkpt><trkpt lat="40.85940828507083" lon="15.744974745307738"><ele>860.0</ele><time>2026-04-24T12:53:45Z</time></trkpt><trkpt lat="40.859339265340715" lon="15.745018025840725"><ele>859.3333333333334</ele><time>2026-04-24T12:53:46Z</time></trkpt><trkpt lat="40.85927510861348" lon="15.745080226809895"><ele>858.6666666666667</ele><time>2026-04-24T12:53:47Z</time></trkpt><trkpt lat="40.85921836588152" lon="15.745189441428892"><ele>858.0</ele><time>2026-04-24T12:53:49Z</time></trkpt><trkpt lat="40.859176016708" lon="15.745325097474206"><ele>857.3333333333333</ele><time>2026-04-24T12:53:51Z</time></trkpt><trkpt lat="40.85917351944012" lon="15.745410330279233"><ele>856.6666666666666</ele><time>2026-04-24T12:53:52Z</time></trkpt><trkpt lat="40.859183976078164" lon="15.745526414399746"><ele>856.0</ele><time>2026-04-24T12:53:53Z</time></trkpt><trkpt lat="40.85919232195177" lon="15.745638161914133"><ele>855.9999999999999</ele><time>2026-04-24T12:53:54Z</time></trkpt><trkpt lat="40.85919899887889" lon="15.745737899641552"><ele>856.0</ele><time>2026-04-24T12:53:55Z</time></trkpt><trkpt lat="40.8592012221858" lon="15.745831497291547"><ele>856.0</ele><time>2026-04-24T12:53:56Z</time></trkpt><trkpt lat="40.85920269381955" lon="15.745926854121844"><ele>856.0</ele><time>2026-04-24T12:53:57Z</time></trkpt><trkpt lat="40.859204937462145" lon="15.746031396221152"><ele>855.9999999999999</ele><time>2026-04-24T12:53:58Z</time></trkpt><trkpt lat="40.85920786169485" lon="15.746121069292085"><ele>856.0</ele><time>2026-04-24T12:53:59Z</time></trkpt><trkpt lat="40.85920942521304" lon="15.74624139806365"><ele>856.8</ele><time>2026-04-24T12:54:01Z</time></trkpt><trkpt lat="40.85923145319342" lon="15.746394080672706"><ele>857.5999999999999</ele><time>2026-04-24T12:54:03Z</time></trkpt><trkpt lat="40.85925166675717" lon="15.74649937082355"><ele>858.4</ele><time>2026-04-24T12:54:04Z</time></trkpt><trkpt lat="40.85928381051309" lon="15.746615892126819"><ele>859.2</ele><time>2026-04-24T12:54:05Z</time></trkpt><trkpt lat="40.8593239964888" lon="15.746735840619781"><ele>860.0</ele><time>2026-04-24T12:54:06Z</time></trkpt><trkpt lat="40.859375530525575" lon="15.74684698930943"><ele>862.0000000000001</ele><time>2026-04-24T12:54:07Z</time></trkpt><trkpt lat="40.859427842905454" lon="15.746949813172966"><ele>864.0</ele><time>2026-04-24T12:54:08Z</time></trkpt><trkpt lat="40.859476286405865" lon="15.7470385433545"><ele>866.0</ele><time>2026-04-24T12:54:09Z</time></trkpt><trkpt lat="40.85953500225692" lon="15.747099954433512"><ele>868.0</ele><time>2026-04-24T12:54:10Z</time></trkpt><trkpt lat="40.859597708348346" lon="15.747136371243027"><ele>870.0000000000001</ele><time>2026-04-24T12:54:11Z</time></trkpt><trkpt lat="40.85968708374277" lon="15.747180699892104"><ele>872.0</ele><time>2026-04-24T12:54:12Z</time></trkpt><trkpt lat="40.859768177422715" lon="15.747209000045196"><ele>872.0000000000001</ele><time>2026-04-24T12:54:13Z</time></trkpt><trkpt lat="40.85985020199495" lon="15.747242530737507"><ele>872.0</ele><time>2026-04-24T12:54:14Z</time></trkpt><trkpt lat="40.85992977602081" lon="15.747265624894217"><ele>872.0</ele><time>2026-04-24T12:54:15Z</time></trkpt><trkpt lat="40.860009696079686" lon="15.747296883118977"><ele>872.0</ele><time>2026-04-24T12:54:16Z</time></trkpt><trkpt lat="40.86007696530541" lon="15.74733519084143"><ele>872.0000000000001</ele><time>2026-04-24T12:54:17Z</time></trkpt><trkpt lat="40.8601396813463" lon="15.747364572179483"><ele>872.0</ele><time>2026-04-24T12:54:18Z</time></trkpt><trkpt lat="40.860203059871665" lon="15.74738242075988"><ele>873.8333333333334</ele><time>2026-04-24T12:54:19Z</time></trkpt><trkpt lat="40.860305215374865" lon="15.747463297713729"><ele>875.6666666666667</ele><time>2026-04-24T12:54:21Z</time></trkpt><trkpt lat="40.86033529667067" lon="15.747541107099845"><ele>877.5</ele><time>2026-04-24T12:54:22Z</time></trkpt><trkpt lat="40.860342100042594" lon="15.747640169424532"><ele>879.3333333333333</ele><time>2026-04-24T12:54:23Z</time></trkpt><trkpt lat="40.86030709680505" lon="15.747737138608068"><ele>881.1666666666666</ele><time>2026-04-24T12:54:24Z</time></trkpt><trkpt lat="40.860285348095594" lon="15.747850744540688"><ele>883.0</ele><time>2026-04-24T12:54:25Z</time></trkpt><trkpt lat="40.86027400340814" lon="15.747939957633886"><ele>883.8333333333333</ele><time>2026-04-24T12:54:26Z</time></trkpt><trkpt lat="40.86025333042701" lon="15.748048997608107"><ele>884.6666666666666</ele><time>2026-04-24T12:54:28Z</time></trkpt><trkpt lat="40.86023083774743" lon="15.748175940442499"><ele>885.5</ele><time>2026-04-24T12:54:30Z</time></trkpt><trkpt lat="40.86022307050556" lon="15.748283987694391"><ele>886.3333333333333</ele><time>2026-04-24T12:54:32Z</time></trkpt><trkpt lat="40.86022040832371" lon="15.748377066861297"><ele>887.1666666666666</ele><time>2026-04-24T12:54:34Z</time></trkpt><trkpt lat="40.86020680626961" lon="15.748489428607995"><ele>888.0</ele><time>2026-04-24T12:54:36Z</time></trkpt><trkpt lat="40.860203748986805" lon="15.748627092529235"><ele>888.5</ele><time>2026-04-24T12:54:38Z</time></trkpt><trkpt lat="40.860206173204105" lon="15.748749632824996"><ele>889.0</ele><time>2026-04-24T12:54:40Z</time></trkpt><trkpt lat="40.86019843129646" lon="15.748870255249994"><ele>889.5</ele><time>2026-04-24T12:54:42Z</time></trkpt><trkpt lat="40.86019117612913" lon="15.748986198224399"><ele>890.0</ele><time>2026-04-24T12:54:44Z</time></trkpt><trkpt lat="40.86020672273703" lon="15.748895228595412"><ele>890.5</ele><time>2026-04-24T12:54:57Z</time></trkpt><trkpt lat="40.8601974884223" lon="15.748802600723893"><ele>891.0</ele><time>2026-04-24T12:54:58Z</time></trkpt><trkpt lat="40.860193438004124" lon="15.748697630958295"><ele>891.0</ele><time>2026-04-24T12:54:59Z</time></trkpt><trkpt lat="40.8601941085949" lon="15.74859772324176"><ele>890.9999999999999</ele><time>2026-04-24T12:55:00Z</time></trkpt><trkpt lat="40.86020784339178" lon="15.748489883279262"><ele>890.9999999999999</ele><time>2026-04-24T12:55:01Z</time></trkpt><trkpt lat="40.86024954917483" lon="15.748398648671554"><ele>891.0</ele><time>2026-04-24T12:55:02Z</time></trkpt><trkpt lat="40.8602663426193" lon="15.74824037450863"><ele>891.0</ele><time>2026-04-24T12:55:04Z</time></trkpt><trkpt lat="40.8602827693582" lon="15.748108105538684"><ele>890.4</ele><time>2026-04-24T12:55:06Z</time></trkpt><trkpt lat="40.86029070758233" lon="15.747961549898418"><ele>889.8</ele><time>2026-04-24T12:55:08Z</time></trkpt><trkpt lat="40.860302551101746" lon="15.747868679296284"><ele>889.1999999999999</ele><time>2026-04-24T12:55:10Z</time></trkpt><trkpt lat="40.86032156374412" lon="15.747758957027555"><ele>888.5999999999999</ele><time>2026-04-24T12:55:12Z</time></trkpt><trkpt lat="40.86036453958187" lon="15.747603912278965"><ele>888.0</ele><time>2026-04-24T12:55:14Z</time></trkpt><trkpt lat="40.86035621597925" lon="15.747437974794307"><ele>887.1666666666666</ele><time>2026-04-24T12:55:16Z</time></trkpt><trkpt lat="40.86030526231972" lon="15.747367522610928"><ele>886.3333333333333</ele><time>2026-04-24T12:55:17Z</time></trkpt><trkpt lat="40.86023048831583" lon="15.747323639124058"><ele>885.5</ele><time>2026-04-24T12:55:18Z</time></trkpt><trkpt lat="40.860152953686196" lon="15.747292246560118"><ele>884.6666666666666</ele><time>2026-04-24T12:55:19Z</time></trkpt><trkpt lat="40.86008637152883" lon="15.747266508012073"><ele>883.8333333333333</ele><time>2026-04-24T12:55:20Z</time></trkpt><trkpt lat="40.85999006324927" lon="15.747229359785784"><ele>883.0</ele><time>2026-04-24T12:55:22Z</time></trkpt><trkpt lat="40.85988861110003" lon="15.747192303414911"><ele>881.1666666666666</ele><time>2026-04-24T12:55:24Z</time></trkpt><trkpt lat="40.859823857877245" lon="15.747169123438958"><ele>879.3333333333333</ele><time>2026-04-24T12:55:25Z</time></trkpt><trkpt lat="40.859753286406445" lon="15.747141522175783"><ele>877.5</ele><time>2026-04-24T12:55:26Z</time></trkpt><trkpt lat="40.859645380963514" lon="15.747082964527285"><ele>875.6666666666667</ele><time>2026-04-24T12:55:28Z</time></trkpt><trkpt lat="40.859587837491524" lon="15.747043953246916"><ele>873.8333333333334</ele><time>2026-04-24T12:55:29Z</time></trkpt><trkpt lat="40.85953196434471" lon="15.746995215687262"><ele>872.0</ele><time>2026-04-24T12:55:30Z</time></trkpt><trkpt lat="40.859480045575076" lon="15.746937605629991"><ele>872.8333333333334</ele><time>2026-04-24T12:55:31Z</time></trkpt><trkpt lat="40.85943395304576" lon="15.746871739946387"><ele>873.6666666666667</ele><time>2026-04-24T12:55:32Z</time></trkpt><trkpt lat="40.85937004105293" lon="15.74672568462472"><ele>874.5</ele><time>2026-04-24T12:55:34Z</time></trkpt><trkpt lat="40.859334163374726" lon="15.746627983467578"><ele>875.3333333333333</ele><time>2026-04-24T12:55:35Z</time></trkpt><trkpt lat="40.859305296152506" lon="15.74653804911495"><ele>876.1666666666666</ele><time>2026-04-24T12:55:36Z</time></trkpt><trkpt lat="40.85927744523088" lon="15.74642926722687"><ele>877.0</ele><time>2026-04-24T12:55:37Z</time></trkpt><trkpt lat="40.8592611480223" lon="15.74633668875642"><ele>873.6</ele><time>2026-04-24T12:55:38Z</time></trkpt><trkpt lat="40.85924903597748" lon="15.746240021225583"><ele>870.2</ele><time>2026-04-24T12:55:39Z</time></trkpt><trkpt lat="40.85924301322168" lon="15.746098032261534"><ele>866.8</ele><time>2026-04-24T12:55:41Z</time></trkpt><trkpt lat="40.859222712579694" lon="15.745936072964296"><ele>863.4</ele><time>2026-04-24T12:55:43Z</time></trkpt><trkpt lat="40.85922803122586" lon="15.74585051045832"><ele>860.0</ele><time>2026-04-24T12:55:44Z</time></trkpt><trkpt lat="40.859222163931534" lon="15.745705679475057"><ele>860.0</ele><time>2026-04-24T12:55:46Z</time></trkpt><trkpt lat="40.859220488398606" lon="15.745557451706057"><ele>860.0</ele><time>2026-04-24T12:55:48Z</time></trkpt><trkpt lat="40.859230131240814" lon="15.745469737513375"><ele>860.0</ele><time>2026-04-24T12:55:49Z</time></trkpt><trkpt lat="40.859226486556274" lon="15.745383408505178"><ele>860.0</ele><time>2026-04-24T12:55:50Z</time></trkpt><trkpt lat="40.85923862094977" lon="15.745232185562925"><ele>860.0</ele><time>2026-04-24T12:55:52Z</time></trkpt><trkpt lat="40.85930187751341" lon="15.745115231696875"><ele>860.0</ele><time>2026-04-24T12:55:54Z</time></trkpt><trkpt lat="40.859359531908" lon="15.745064956008319"><ele>860.0</ele><time>2026-04-24T12:55:55Z</time></trkpt><trkpt lat="40.859415815923825" lon="15.745026859151565"><ele>860.0</ele><time>2026-04-24T12:55:56Z</time></trkpt><trkpt lat="40.85948588975777" lon="15.744989531810578"><ele>860.0</ele><time>2026-04-24T12:55:57Z</time></trkpt><trkpt lat="40.85955489590421" lon="15.74495638419712"><ele>860.0</ele><time>2026-04-24T12:55:58Z</time></trkpt><trkpt lat="40.859632355718084" lon="15.744927452675334"><ele>860.0</ele><time>2026-04-24T12:55:59Z</time></trkpt><trkpt lat="40.85970726009719" lon="15.744890699559209"><ele>860.0</ele><time>2026-04-24T12:56:00Z</time></trkpt><trkpt lat="40.859775692197175" lon="15.744817751920392"><ele>860.0</ele><time>2026-04-24T12:56:01Z</time></trkpt><trkpt lat="40.85982232983673" lon="15.744709560431144"><ele>860.0</ele><time>2026-04-24T12:56:02Z</time></trkpt><trkpt lat="40.85985311868319" lon="15.744576000328523"><ele>860.0</ele><time>2026-04-24T12:56:03Z</time></trkpt><trkpt lat="40.85987144795742" lon="15.744438649022692"><ele>860.0</ele><time>2026-04-24T12:56:04Z</time></trkpt><trkpt lat="40.85988954071953" lon="15.74433334592089"><ele>860.0</ele><time>2026-04-24T12:56:05Z</time></trkpt><trkpt lat="40.859921603516675" lon="15.744251803124982"><ele>857.5000000000001</ele><time>2026-04-24T12:56:06Z</time></trkpt><trkpt lat="40.85996845359062" lon="15.744179755864947"><ele>855.0</ele><time>2026-04-24T12:56:07Z</time></trkpt><trkpt lat="40.860039460982584" lon="15.744128356802346"><ele>852.5</ele><time>2026-04-24T12:56:08Z</time></trkpt><trkpt lat="40.860125479358636" lon="15.74409743518043"><ele>850.0</ele><time>2026-04-24T12:56:09Z</time></trkpt><trkpt lat="40.860229467803514" lon="15.744100343470866"><ele>847.5000000000001</ele><time>2026-04-24T12:56:10Z</time></trkpt><trkpt lat="40.860329567767" lon="15.744124107598093"><ele>845.0</ele><time>2026-04-24T12:56:11Z</time></trkpt><trkpt lat="40.86042990828071" lon="15.74413058429732"><ele>845.0</ele><time>2026-04-24T12:56:12Z</time></trkpt><trkpt lat="40.86052963563526" lon="15.744137021421457"><ele>845.0</ele><time>2026-04-24T12:56:13Z</time></trkpt><trkpt lat="40.86063227536841" lon="15.744123476893172"><ele>845.0</ele><time>2026-04-24T12:56:14Z</time></trkpt><trkpt lat="40.86073100936827" lon="15.744155490292423"><ele>845.0</ele><time>2026-04-24T12:56:15Z</time></trkpt><trkpt lat="40.8608206506627" lon="15.744194898637286"><ele>845.0</ele><time>2026-04-24T12:56:16Z</time></trkpt><trkpt lat="40.860903551565414" lon="15.744239219144479"><ele>845.1428571428571</ele><time>2026-04-24T12:56:17Z</time></trkpt><trkpt lat="40.86097261572191" lon="15.744284074615956"><ele>845.2857142857142</ele><time>2026-04-24T12:56:18Z</time></trkpt><trkpt lat="40.86103997758376" lon="15.744309835548837"><ele>845.4285714285713</ele><time>2026-04-24T12:56:19Z</time></trkpt><trkpt lat="40.86110807251873" lon="15.744329349748751"><ele>845.5714285714286</ele><time>2026-04-24T12:56:20Z</time></trkpt><trkpt lat="40.86117683763747" lon="15.74432168792555"><ele>845.7142857142858</ele><time>2026-04-24T12:56:21Z</time></trkpt><trkpt lat="40.86125080248015" lon="15.744303434125943"><ele>845.8571428571428</ele><time>2026-04-24T12:56:22Z</time></trkpt><trkpt lat="40.86130672674324" lon="15.744227326512394"><ele>846.0</ele><time>2026-04-24T12:56:23Z</time></trkpt><trkpt lat="40.86134468479912" lon="15.74410777648747"><ele>846.0</ele><time>2026-04-24T12:56:24Z</time></trkpt><trkpt lat="40.861379704528" lon="15.744005057777839"><ele>846.0</ele><time>2026-04-24T12:56:25Z</time></trkpt><trkpt lat="40.86142954842548" lon="15.743863530280766"><ele>846.0</ele><time>2026-04-24T12:56:26Z</time></trkpt><trkpt lat="40.86148038472022" lon="15.743730030062228"><ele>846.0</ele><time>2026-04-24T12:56:27Z</time></trkpt><trkpt lat="40.86154184285594" lon="15.743636592316534"><ele>846.0</ele><time>2026-04-24T12:56:28Z</time></trkpt><trkpt lat="40.861599795499174" lon="15.743540989946709"><ele>846.1999999999999</ele><time>2026-04-24T12:56:29Z</time></trkpt><trkpt lat="40.861679645706865" lon="15.743468999236084"><ele>846.4</ele><time>2026-04-24T12:56:30Z</time></trkpt><trkpt lat="40.86176409867987" lon="15.743392489215209"><ele>846.6</ele><time>2026-04-24T12:56:31Z</time></trkpt><trkpt lat="40.86184187767813" lon="15.743324306187752"><ele>846.8</ele><time>2026-04-24T12:56:32Z</time></trkpt><trkpt lat="40.86191924212098" lon="15.743233868701177"><ele>847.0</ele><time>2026-04-24T12:56:33Z</time></trkpt><trkpt lat="40.86198610929463" lon="15.74312528649361"><ele>847.0</ele><time>2026-04-24T12:56:34Z</time></trkpt><trkpt lat="40.86204004342645" lon="15.742986181259793"><ele>847.0</ele><time>2026-04-24T12:56:35Z</time></trkpt><trkpt lat="40.86208490122623" lon="15.742821257980875"><ele>847.0</ele><time>2026-04-24T12:56:36Z</time></trkpt><trkpt lat="40.86213937071076" lon="15.742641875461391"><ele>847.0</ele><time>2026-04-24T12:56:37Z</time></trkpt><trkpt lat="40.8621956445266" lon="15.742452300701931"><ele>844.0</ele><time>2026-04-24T12:56:38Z</time></trkpt><trkpt lat="40.862247954518196" lon="15.742272453111363"><ele>841.0</ele><time>2026-04-24T12:56:39Z</time></trkpt><trkpt lat="40.86229557430408" lon="15.742112598283517"><ele>838.0</ele><time>2026-04-24T12:56:40Z</time></trkpt><trkpt lat="40.86234739128979" lon="15.741982844392156"><ele>835.0</ele><time>2026-04-24T12:56:41Z</time></trkpt><trkpt lat="40.86237554900768" lon="15.74185853041752"><ele>832.9999999999999</ele><time>2026-04-24T12:56:42Z</time></trkpt><trkpt lat="40.86240880616671" lon="15.741758499645579"><ele>831.0</ele><time>2026-04-24T12:56:43Z</time></trkpt><trkpt lat="40.86245549543541" lon="15.74168371313604"><ele>829.0</ele><time>2026-04-24T12:56:44Z</time></trkpt><trkpt lat="40.86251444850912" lon="15.741624653369842"><ele>827.0</ele><time>2026-04-24T12:56:45Z</time></trkpt><trkpt lat="40.862589321375864" lon="15.74158376090327"><ele>824.9999999999999</ele><time>2026-04-24T12:56:46Z</time></trkpt><trkpt lat="40.86269061431143" lon="15.741563753437537"><ele>823.0</ele><time>2026-04-24T12:56:47Z</time></trkpt><trkpt lat="40.862817801236574" lon="15.741573776944717"><ele>822.8</ele><time>2026-04-24T12:56:48Z</time></trkpt><trkpt lat="40.862936035996285" lon="15.741578174345069"><ele>822.5999999999999</ele><time>2026-04-24T12:56:49Z</time></trkpt><trkpt lat="40.86303746551825" lon="15.741583667247237"><ele>822.4000000000001</ele><time>2026-04-24T12:56:50Z</time></trkpt><trkpt lat="40.86311935226146" lon="15.741571395548418"><ele>822.2</ele><time>2026-04-24T12:56:51Z</time></trkpt><trkpt lat="40.86318844918471" lon="15.741528234749596"><ele>822.0</ele><time>2026-04-24T12:56:52Z</time></trkpt><trkpt lat="40.863242041429906" lon="15.741463816139653"><ele>822.0</ele><time>2026-04-24T12:56:53Z</time></trkpt><trkpt lat="40.86326911857887" lon="15.741381402143812"><ele>822.0</ele><time>2026-04-24T12:56:54Z</time></trkpt><trkpt lat="40.86330117012979" lon="15.741220851319419"><ele>822.0</ele><time>2026-04-24T12:56:56Z</time></trkpt><trkpt lat="40.863307763511195" lon="15.741131021123264"><ele>822.0</ele><time>2026-04-24T12:56:57Z</time></trkpt><trkpt lat="40.86331400807407" lon="15.741028279409713"><ele>822.0</ele><time>2026-04-24T12:56:58Z</time></trkpt><trkpt lat="40.86331988674865" lon="15.74091119591092"><ele>822.0</ele><time>2026-04-24T12:56:59Z</time></trkpt><trkpt lat="40.863327291258436" lon="15.740769137272538"><ele>820.0</ele><time>2026-04-24T12:57:00Z</time></trkpt><trkpt lat="40.863336500732345" lon="15.740607627906703"><ele>818.0</ele><time>2026-04-24T12:57:01Z</time></trkpt><trkpt lat="40.86334673159534" lon="15.740428206015995"><ele>816.0</ele><time>2026-04-24T12:57:02Z</time></trkpt><trkpt lat="40.86335737600703" lon="15.740241531672547"><ele>814.0</ele><time>2026-04-24T12:57:03Z</time></trkpt><trkpt lat="40.86336772566818" lon="15.740049223958417"><ele>812.75</ele><time>2026-04-24T12:57:04Z</time></trkpt><trkpt lat="40.86337809507636" lon="15.739855214664603"><ele>811.5</ele><time>2026-04-24T12:57:05Z</time></trkpt><trkpt lat="40.863389505266014" lon="15.739686519939697"><ele>810.25</ele><time>2026-04-24T12:57:06Z</time></trkpt><trkpt lat="40.86340555778145" lon="15.739516782098342"><ele>809.0</ele><time>2026-04-24T12:57:07Z</time></trkpt><trkpt lat="40.8634290269775" lon="15.739344460390695"><ele>811.75</ele><time>2026-04-24T12:57:08Z</time></trkpt><trkpt lat="40.863461475740934" lon="15.739172161195677"><ele>814.5</ele><time>2026-04-24T12:57:09Z</time></trkpt><trkpt lat="40.863498071563335" lon="15.738991813400048"><ele>817.25</ele><time>2026-04-24T12:57:10Z</time></trkpt><trkpt lat="40.86353320643872" lon="15.738818827680678"><ele>820.0</ele><time>2026-04-24T12:57:11Z</time></trkpt><trkpt lat="40.863571858899974" lon="15.73863574661697"><ele>817.6666666666666</ele><time>2026-04-24T12:57:12Z</time></trkpt><trkpt lat="40.863604222656335" lon="15.738434345938737"><ele>815.3333333333333</ele><time>2026-04-24T12:57:13Z</time></trkpt><trkpt lat="40.863646471883165" lon="15.738233264177328"><ele>813.0</ele><time>2026-04-24T12:57:14Z</time></trkpt><trkpt lat="40.863678553105295" lon="15.738057131470551"><ele>813.0</ele><time>2026-04-24T12:57:15Z</time></trkpt><trkpt lat="40.86373192172033" lon="15.73790634365295"><ele>813.0</ele><time>2026-04-24T12:57:16Z</time></trkpt><trkpt lat="40.863768304485404" lon="15.737759218274663"><ele>813.0</ele><time>2026-04-24T12:57:17Z</time></trkpt><trkpt lat="40.86380407816076" lon="15.737622628872698"><ele>813.0</ele><time>2026-04-24T12:57:18Z</time></trkpt><trkpt lat="40.86384458920449" lon="15.737496883226493"><ele>811.0</ele><time>2026-04-24T12:57:19Z</time></trkpt><trkpt lat="40.86389274653336" lon="15.737368563152492"><ele>809.0</ele><time>2026-04-24T12:57:20Z</time></trkpt><trkpt lat="40.863940874906234" lon="15.737234529994065"><ele>807.0</ele><time>2026-04-24T12:57:21Z</time></trkpt><trkpt lat="40.86402102740778" lon="15.73711106302176"><ele>805.0</ele><time>2026-04-24T12:57:22Z</time></trkpt><trkpt lat="40.864119411357606" lon="15.736995348768659"><ele>802.5</ele><time>2026-04-24T12:57:23Z</time></trkpt><trkpt lat="40.86422016766201" lon="15.736885433243694"><ele>800.0</ele><time>2026-04-24T12:57:24Z</time></trkpt><trkpt lat="40.86432192335054" lon="15.7367721100372"><ele>797.5</ele><time>2026-04-24T12:57:25Z</time></trkpt><trkpt lat="40.864426910334714" lon="15.736652688510349"><ele>795.0</ele><time>2026-04-24T12:57:26Z</time></trkpt><trkpt lat="40.8645211512076" lon="15.736549860757005"><ele>795.0</ele><time>2026-04-24T12:57:27Z</time></trkpt><trkpt lat="40.86459898552941" lon="15.736454929570163"><ele>795.0</ele><time>2026-04-24T12:57:28Z</time></trkpt><trkpt lat="40.86466086564816" lon="15.736375213528856"><ele>795.0</ele><time>2026-04-24T12:57:29Z</time></trkpt><trkpt lat="40.86471181019717" lon="15.736310949910603"><ele>795.0</ele><time>2026-04-24T12:57:30Z</time></trkpt><trkpt lat="40.86479417506103" lon="15.736166405398729"><ele>795.0</ele><time>2026-04-24T12:57:32Z</time></trkpt><trkpt lat="40.864824363920505" lon="15.736069182367775"><ele>794.0</ele><time>2026-04-24T12:57:33Z</time></trkpt><trkpt lat="40.86485099675882" lon="15.73594580355489"><ele>793.0</ele><time>2026-04-24T12:57:34Z</time></trkpt><trkpt lat="40.86485982398634" lon="15.73583007588975"><ele>792.0</ele><time>2026-04-24T12:57:35Z</time></trkpt><trkpt lat="40.864870824013536" lon="15.735717320639184"><ele>791.0</ele><time>2026-04-24T12:57:36Z</time></trkpt><trkpt lat="40.86490168974166" lon="15.735555493238326"><ele>790.0</ele><time>2026-04-24T12:57:38Z</time></trkpt><trkpt lat="40.86491788966242" lon="15.735400808139074"><ele>790.0</ele><time>2026-04-24T12:57:40Z</time></trkpt><trkpt lat="40.8649289960347" lon="15.735294758240334"><ele>790.0</ele><time>2026-04-24T12:57:41Z</time></trkpt><trkpt lat="40.86494171952284" lon="15.735173267017837"><ele>790.0</ele><time>2026-04-24T12:57:42Z</time></trkpt><trkpt lat="40.864949993981114" lon="15.735041176310965"><ele>790.0</ele><time>2026-04-24T12:57:43Z</time></trkpt><trkpt lat="40.864972394826495" lon="15.734906407085159"><ele>790.0</ele><time>2026-04-24T12:57:44Z</time></trkpt><trkpt lat="40.865033163366405" lon="15.734758025913088"><ele>787.6666666666666</ele><time>2026-04-24T12:57:45Z</time></trkpt><trkpt lat="40.86514286211344" lon="15.734622720302252"><ele>785.3333333333333</ele><time>2026-04-24T12:57:46Z</time></trkpt><trkpt lat="40.8652486732475" lon="15.734466462936469"><ele>783.0</ele><time>2026-04-24T12:57:47Z</time></trkpt><trkpt lat="40.86535175235576" lon="15.734289547676916"><ele>782.5</ele><time>2026-04-24T12:57:48Z</time></trkpt><trkpt lat="40.865464102138745" lon="15.734142672521582"><ele>782.0</ele><time>2026-04-24T12:57:49Z</time></trkpt><trkpt lat="40.865560570772004" lon="15.734001552474217"><ele>781.5</ele><time>2026-04-24T12:57:50Z</time></trkpt><trkpt lat="40.86566432649712" lon="15.73386454123313"><ele>781.0</ele><time>2026-04-24T12:57:51Z</time></trkpt><trkpt lat="40.86577083276065" lon="15.733714347451846"><ele>779.25</ele><time>2026-04-24T12:57:52Z</time></trkpt><trkpt lat="40.865872339946634" lon="15.733538431654347"><ele>777.5</ele><time>2026-04-24T12:57:53Z</time></trkpt><trkpt lat="40.865971878164515" lon="15.733397453460238"><ele>775.75</ele><time>2026-04-24T12:57:54Z</time></trkpt><trkpt lat="40.86606166557303" lon="15.733288973218611"><ele>774.0</ele><time>2026-04-24T12:57:55Z</time></trkpt><trkpt lat="40.86611855691661" lon="15.733173752352464"><ele>773.0</ele><time>2026-04-24T12:57:56Z</time></trkpt><trkpt lat="40.86615032093065" lon="15.733038166304812"><ele>772.0</ele><time>2026-04-24T12:57:57Z</time></trkpt><trkpt lat="40.86616293544192" lon="15.732896248510011"><ele>771.0</ele><time>2026-04-24T12:57:58Z</time></trkpt><trkpt lat="40.86614450883552" lon="15.732754824483436"><ele>770.0</ele><time>2026-04-24T12:57:59Z</time></trkpt><trkpt lat="40.86609364735307" lon="15.732631031952153"><ele>769.0</ele><time>2026-04-24T12:58:00Z</time></trkpt><trkpt lat="40.866046678441236" lon="15.732505641886908"><ele>768.75</ele><time>2026-04-24T12:58:01Z</time></trkpt><trkpt lat="40.8660148679779" lon="15.73236970279311"><ele>768.5</ele><time>2026-04-24T12:58:02Z</time></trkpt><trkpt lat="40.86596176934033" lon="15.73222663796497"><ele>768.25</ele><time>2026-04-24T12:58:03Z</time></trkpt><trkpt lat="40.86590383404394" lon="15.73207054138865"><ele>768.0</ele><time>2026-04-24T12:58:04Z</time></trkpt><trkpt lat="40.86584381292783" lon="15.731906865115407"><ele>768.0</ele><time>2026-04-24T12:58:05Z</time></trkpt><trkpt lat="40.8657806872708" lon="15.731732131001845"><ele>768.0</ele><time>2026-04-24T12:58:06Z</time></trkpt><trkpt lat="40.86572742177223" lon="15.731570335897256"><ele>768.0</ele><time>2026-04-24T12:58:07Z</time></trkpt><trkpt lat="40.865686341819746" lon="15.731411420704136"><ele>768.0</ele><time>2026-04-24T12:58:08Z</time></trkpt><trkpt lat="40.865657947255905" lon="15.731255183380565"><ele>768.0</ele><time>2026-04-24T12:58:09Z</time></trkpt><trkpt lat="40.86562907886092" lon="15.731107226252904"><ele>768.0</ele><time>2026-04-24T12:58:10Z</time></trkpt><trkpt lat="40.86565301543254" lon="15.730953320320669"><ele>768.0</ele><time>2026-04-24T12:58:11Z</time></trkpt><trkpt lat="40.86566628848673" lon="15.73080426817589"><ele>768.0</ele><time>2026-04-24T12:58:12Z</time></trkpt><trkpt lat="40.8656831764639" lon="15.730663187300259"><ele>767.5999999999999</ele><time>2026-04-24T12:58:13Z</time></trkpt><trkpt lat="40.86569719547395" lon="15.730548074095845"><ele>767.1999999999999</ele><time>2026-04-24T12:58:14Z</time></trkpt><trkpt lat="40.865706850124425" lon="15.730416960192636"><ele>766.8</ele><time>2026-04-24T12:58:16Z</time></trkpt><trkpt lat="40.86560273455172" lon="15.730339212096506"><ele>766.4</ele><time>2026-04-24T12:58:18Z</time></trkpt><trkpt lat="40.86547463047515" lon="15.730337260311684"><ele>766.0</ele><time>2026-04-24T12:58:20Z</time></trkpt><trkpt lat="40.86541005055719" lon="15.730442546838116"><ele>766.0</ele><time>2026-04-24T12:58:21Z</time></trkpt><trkpt lat="40.86533368065751" lon="15.730520745975943"><ele>766.0</ele><time>2026-04-24T12:58:22Z</time></trkpt><trkpt lat="40.865255026351974" lon="15.730617519040075"><ele>766.0</ele><time>2026-04-24T12:58:23Z</time></trkpt><trkpt lat="40.86519178606987" lon="15.730656001296776"><ele>766.0</ele><time>2026-04-24T12:58:24Z</time></trkpt><trkpt lat="40.8652419592995" lon="15.730605417593237"><ele>766.0</ele><time>2026-04-24T12:58:28Z</time></trkpt><trkpt lat="40.865328967274316" lon="15.73056595495998"><ele>766.0</ele><time>2026-04-24T12:58:29Z</time></trkpt><trkpt lat="40.86540281887934" lon="15.730459958943293"><ele>766.0</ele><time>2026-04-24T12:58:30Z</time></trkpt><trkpt lat="40.86549754192613" lon="15.730369026268885"><ele>766.0</ele><time>2026-04-24T12:58:31Z</time></trkpt><trkpt lat="40.86558588051812" lon="15.730279086791285"><ele>766.0</ele><time>2026-04-24T12:58:32Z</time></trkpt><trkpt lat="40.86564293874843" lon="15.730196382648803"><ele>766.0</ele><time>2026-04-24T12:58:33Z</time></trkpt><trkpt lat="40.86569666358692" lon="15.730143166310988"><ele>766.0</ele><time>2026-04-24T12:58:34Z</time></trkpt><trkpt lat="40.865728235755114" lon="15.73006949745583"><ele>766.0</ele><time>2026-04-24T12:58:35Z</time></trkpt><trkpt lat="40.86576284939133" lon="15.729911281025748"><ele>764.8</ele><time>2026-04-24T12:58:37Z</time></trkpt><trkpt lat="40.86575933931994" lon="15.72982220193742"><ele>763.5999999999999</ele><time>2026-04-24T12:58:40Z</time></trkpt><trkpt lat="40.86578201690094" lon="15.729733331198146"><ele>762.4</ele><time>2026-04-24T12:58:44Z</time></trkpt><trkpt lat="40.86579270979961" lon="15.729547376054073"><ele>761.2</ele><time>2026-04-24T12:58:46Z</time></trkpt><trkpt lat="40.865810074063376" lon="15.729412424588284"><ele>760.0</ele><time>2026-04-24T12:58:47Z</time></trkpt><trkpt lat="40.86582175866073" lon="15.729259993337928"><ele>758.5</ele><time>2026-04-24T12:58:48Z</time></trkpt><trkpt lat="40.8658380245119" lon="15.729109664805241"><ele>757.0</ele><time>2026-04-24T12:58:49Z</time></trkpt><trkpt lat="40.86584948105697" lon="15.728962977770973"><ele>755.5</ele><time>2026-04-24T12:58:50Z</time></trkpt><trkpt lat="40.86588216976675" lon="15.72880811760344"><ele>754.0</ele><time>2026-04-24T12:58:51Z</time></trkpt><trkpt lat="40.86590637003218" lon="15.728656287229802"><ele>754.0</ele><time>2026-04-24T12:58:52Z</time></trkpt><trkpt lat="40.86593086838254" lon="15.72848812916325"><ele>754.0</ele><time>2026-04-24T12:58:53Z</time></trkpt><trkpt lat="40.86599705158947" lon="15.728324733828758"><ele>754.0</ele><time>2026-04-24T12:58:54Z</time></trkpt><trkpt lat="40.86606874623461" lon="15.728149275054955"><ele>754.0</ele><time>2026-04-24T12:58:55Z</time></trkpt><trkpt lat="40.86612749017059" lon="15.727985527427736"><ele>754.0</ele><time>2026-04-24T12:58:56Z</time></trkpt><trkpt lat="40.86618967177537" lon="15.727849404879615"><ele>754.0</ele><time>2026-04-24T12:58:57Z</time></trkpt><trkpt lat="40.86625548913295" lon="15.72771666984812"><ele>754.0</ele><time>2026-04-24T12:58:58Z</time></trkpt><trkpt lat="40.86631729749538" lon="15.727579480019948"><ele>754.0</ele><time>2026-04-24T12:58:59Z</time></trkpt><trkpt lat="40.8663659362725" lon="15.727447556150524"><ele>751.75</ele><time>2026-04-24T12:59:00Z</time></trkpt><trkpt lat="40.86644471867648" lon="15.727325480795475"><ele>749.5</ele><time>2026-04-24T12:59:01Z</time></trkpt><trkpt lat="40.866537783696174" lon="15.727206459344034"><ele>747.25</ele><time>2026-04-24T12:59:02Z</time></trkpt><trkpt lat="40.86664228565124" lon="15.727087237702968"><ele>745.0</ele><time>2026-04-24T12:59:03Z</time></trkpt><trkpt lat="40.86675305185794" lon="15.726969807469136"><ele>743.3333333333334</ele><time>2026-04-24T12:59:04Z</time></trkpt><trkpt lat="40.86687637293088" lon="15.726851367316334"><ele>741.6666666666666</ele><time>2026-04-24T12:59:05Z</time></trkpt><trkpt lat="40.86699773790843" lon="15.726731419366164"><ele>740.0</ele><time>2026-04-24T12:59:06Z</time></trkpt><trkpt lat="40.867125193660534" lon="15.726597335289863"><ele>740.0</ele><time>2026-04-24T12:59:07Z</time></trkpt><trkpt lat="40.86724539132858" lon="15.726474202465873"><ele>740.0</ele><time>2026-04-24T12:59:08Z</time></trkpt><trkpt lat="40.86735759746206" lon="15.72634425425477"><ele>740.0</ele><time>2026-04-24T12:59:09Z</time></trkpt><trkpt lat="40.86747095185741" lon="15.726220230777754"><ele>740.0</ele><time>2026-04-24T12:59:10Z</time></trkpt><trkpt lat="40.86760833616668" lon="15.726082271318532"><ele>739.0</ele><time>2026-04-24T12:59:11Z</time></trkpt><trkpt lat="40.86774169630539" lon="15.72594889793453"><ele>738.0</ele><time>2026-04-24T12:59:12Z</time></trkpt><trkpt lat="40.86787073967662" lon="15.72582883172848"><ele>737.0</ele><time>2026-04-24T12:59:13Z</time></trkpt><trkpt lat="40.86799053461596" lon="15.725698188739914"><ele>737.0</ele><time>2026-04-24T12:59:14Z</time></trkpt><trkpt lat="40.86810208682663" lon="15.72557200369198"><ele>737.0</ele><time>2026-04-24T12:59:15Z</time></trkpt><trkpt lat="40.86820920482581" lon="15.725445890608832"><ele>737.0</ele><time>2026-04-24T12:59:16Z</time></trkpt><trkpt lat="40.86831485046838" lon="15.725329188184695"><ele>737.0</ele><time>2026-04-24T12:59:17Z</time></trkpt><trkpt lat="40.8684089721685" lon="15.725217311987448"><ele>735.6</ele><time>2026-04-24T12:59:18Z</time></trkpt><trkpt lat="40.86850199054706" lon="15.725122311346407"><ele>734.2</ele><time>2026-04-24T12:59:19Z</time></trkpt><trkpt lat="40.868592243808884" lon="15.725031281393914"><ele>732.8</ele><time>2026-04-24T12:59:20Z</time></trkpt><trkpt lat="40.86866397434223" lon="15.724952456828479"><ele>731.4</ele><time>2026-04-24T12:59:21Z</time></trkpt><trkpt lat="40.868721547713825" lon="15.724887316794868"><ele>730.0</ele><time>2026-04-24T12:59:22Z</time></trkpt><trkpt lat="40.86878520263074" lon="15.72482719411"><ele>730.0</ele><time>2026-04-24T12:59:23Z</time></trkpt><trkpt lat="40.868857428454554" lon="15.72475627906223"><ele>730.0</ele><time>2026-04-24T12:59:24Z</time></trkpt><trkpt lat="40.868934176617394" lon="15.724674285814956"><ele>730.0</ele><time>2026-04-24T12:59:25Z</time></trkpt><trkpt lat="40.86901454819839" lon="15.724581719334521"><ele>730.0</ele><time>2026-04-24T12:59:26Z</time></trkpt><trkpt lat="40.86908815090601" lon="15.72448266122843"><ele>730.0</ele><time>2026-04-24T12:59:27Z</time></trkpt><trkpt lat="40.86915226580286" lon="15.724372218798607"><ele>730.2</ele><time>2026-04-24T12:59:28Z</time></trkpt><trkpt lat="40.869212678632" lon="15.724248579283541"><ele>730.4</ele><time>2026-04-24T12:59:29Z</time></trkpt><trkpt lat="40.86926924588256" lon="15.724124098768527"><ele>730.5999999999999</ele><time>2026-04-24T12:59:30Z</time></trkpt><trkpt lat="40.869335457201956" lon="15.724001971296762"><ele>730.8</ele><time>2026-04-24T12:59:31Z</time></trkpt><trkpt lat="40.869398250704826" lon="15.723890979378183"><ele>731.0</ele><time>2026-04-24T12:59:32Z</time></trkpt><trkpt lat="40.869487091775014" lon="15.723768944236044"><ele>731.0</ele><time>2026-04-24T12:59:33Z</time></trkpt><trkpt lat="40.86959521030318" lon="15.723639661419003"><ele>731.0</ele><time>2026-04-24T12:59:34Z</time></trkpt><trkpt lat="40.869720009790534" lon="15.723526878977754"><ele>731.0</ele><time>2026-04-24T12:59:35Z</time></trkpt><trkpt lat="40.8698525898628" lon="15.723415281186899"><ele>729.6666666666666</ele><time>2026-04-24T12:59:36Z</time></trkpt><trkpt lat="40.86999478131677" lon="15.72329330243855"><ele>728.3333333333334</ele><time>2026-04-24T12:59:37Z</time></trkpt><trkpt lat="40.870134854661146" lon="15.723172791891304"><ele>727.0</ele><time>2026-04-24T12:59:38Z</time></trkpt><trkpt lat="40.87028705799543" lon="15.723049872071991"><ele>727.0</ele><time>2026-04-24T12:59:39Z</time></trkpt><trkpt lat="40.870443318105714" lon="15.722925598825643"><ele>727.0</ele><time>2026-04-24T12:59:40Z</time></trkpt><trkpt lat="40.8705995223714" lon="15.72280425569365"><ele>727.0</ele><time>2026-04-24T12:59:41Z</time></trkpt><trkpt lat="40.87073923519262" lon="15.722691519314843"><ele>726.3333333333334</ele><time>2026-04-24T12:59:42Z</time></trkpt><trkpt lat="40.87087293645622" lon="15.72258974426757"><ele>725.6666666666666</ele><time>2026-04-24T12:59:43Z</time></trkpt><trkpt lat="40.87102060298531" lon="15.722500183190231"><ele>725.0</ele><time>2026-04-24T12:59:44Z</time></trkpt><trkpt lat="40.87118033716335" lon="15.722402798525826"><ele>723.0</ele><time>2026-04-24T12:59:45Z</time></trkpt><trkpt lat="40.87130593486274" lon="15.722337201567907"><ele>721.0</ele><time>2026-04-24T12:59:46Z</time></trkpt><trkpt lat="40.87144448059357" lon="15.722259056586262"><ele>719.0</ele><time>2026-04-24T12:59:47Z</time></trkpt><trkpt lat="40.87157013693237" lon="15.722189677907242"><ele>717.0</ele><time>2026-04-24T12:59:48Z</time></trkpt><trkpt lat="40.87170169907889" lon="15.722115056101778"><ele>715.0</ele><time>2026-04-24T12:59:49Z</time></trkpt><trkpt lat="40.87184822244288" lon="15.722034675739806"><ele>713.0</ele><time>2026-04-24T12:59:50Z</time></trkpt><trkpt lat="40.87200887882058" lon="15.72194758398288"><ele>711.0</ele><time>2026-04-24T12:59:51Z</time></trkpt><trkpt lat="40.87218680216991" lon="15.721846396134346"><ele>711.0</ele><time>2026-04-24T12:59:52Z</time></trkpt><trkpt lat="40.87236680159138" lon="15.7217407036433"><ele>711.0</ele><time>2026-04-24T12:59:53Z</time></trkpt><trkpt lat="40.87252875789897" lon="15.721658623098616"><ele>711.0</ele><time>2026-04-24T12:59:54Z</time></trkpt><trkpt lat="40.87272109897544" lon="15.721559319051721"><ele>708.0</ele><time>2026-04-24T12:59:55Z</time></trkpt><trkpt lat="40.87291733192742" lon="15.721454931954455"><ele>705.0</ele><time>2026-04-24T12:59:56Z</time></trkpt><trkpt lat="40.87311511008112" lon="15.721358170749925"><ele>702.0</ele><time>2026-04-24T12:59:57Z</time></trkpt><trkpt lat="40.873307945686086" lon="15.721255181974659"><ele>701.6666666666666</ele><time>2026-04-24T12:59:58Z</time></trkpt><trkpt lat="40.873490677181984" lon="15.721159488576118"><ele>701.3333333333333</ele><time>2026-04-24T12:59:59Z</time></trkpt><trkpt lat="40.87365286410497" lon="15.721069963223735"><ele>701.0</ele><time>2026-04-24T13:00:00Z</time></trkpt><trkpt lat="40.87379598637376" lon="15.720993928366267"><ele>701.0</ele><time>2026-04-24T13:00:01Z</time></trkpt><trkpt lat="40.87393328457327" lon="15.720910944643897"><ele>701.0</ele><time>2026-04-24T13:00:02Z</time></trkpt><trkpt lat="40.87407190323946" lon="15.720834211464169"><ele>701.0</ele><time>2026-04-24T13:00:03Z</time></trkpt><trkpt lat="40.8742149294742" lon="15.720751049846086"><ele>696.3333333333333</ele><time>2026-04-24T13:00:04Z</time></trkpt><trkpt lat="40.87435919628429" lon="15.720677510823293"><ele>691.6666666666666</ele><time>2026-04-24T13:00:05Z</time></trkpt><trkpt lat="40.87450247581523" lon="15.720602659018706"><ele>687.0</ele><time>2026-04-24T13:00:06Z</time></trkpt><trkpt lat="40.874644412312264" lon="15.720536445682981"><ele>687.0</ele><time>2026-04-24T13:00:07Z</time></trkpt><trkpt lat="40.87478504545918" lon="15.720473467596598"><ele>687.0</ele><time>2026-04-24T13:00:08Z</time></trkpt><trkpt lat="40.874936662788826" lon="15.720416853795667"><ele>687.0</ele><time>2026-04-24T13:00:09Z</time></trkpt><trkpt lat="40.87509946606433" lon="15.720358753602381"><ele>685.3333333333334</ele><time>2026-04-24T13:00:10Z</time></trkpt><trkpt lat="40.875268992697016" lon="15.720313604749327"><ele>683.6666666666667</ele><time>2026-04-24T13:00:11Z</time></trkpt><trkpt lat="40.87545211779414" lon="15.720319556012996"><ele>682.0</ele><time>2026-04-24T13:00:12Z</time></trkpt><trkpt lat="40.875639838204386" lon="15.720294724027047"><ele>682.0</ele><time>2026-04-24T13:00:13Z</time></trkpt><trkpt lat="40.875829590164635" lon="15.72028546892131"><ele>682.0</ele><time>2026-04-24T13:00:14Z</time></trkpt><trkpt lat="40.87601480219027" lon="15.720254868497946"><ele>682.0</ele><time>2026-04-24T13:00:15Z</time></trkpt><trkpt lat="40.87619433248644" lon="15.720201032265418"><ele>686.0</ele><time>2026-04-24T13:00:16Z</time></trkpt><trkpt lat="40.87637236978464" lon="15.720140002864651"><ele>690.0</ele><time>2026-04-24T13:00:17Z</time></trkpt><trkpt lat="40.87655061783607" lon="15.72007264878185"><ele>694.0</ele><time>2026-04-24T13:00:18Z</time></trkpt><trkpt lat="40.87672326240012" lon="15.720008312097448"><ele>694.0</ele><time>2026-04-24T13:00:19Z</time></trkpt><trkpt lat="40.876877518373796" lon="15.719941835331728"><ele>694.0</ele><time>2026-04-24T13:00:20Z</time></trkpt><trkpt lat="40.87703667597488" lon="15.719878232290245"><ele>694.0</ele><time>2026-04-24T13:00:21Z</time></trkpt><trkpt lat="40.87718700679072" lon="15.719818261092126"><ele>694.0</ele><time>2026-04-24T13:00:22Z</time></trkpt><trkpt lat="40.87732888821537" lon="15.719734493852238"><ele>694.0</ele><time>2026-04-24T13:00:23Z</time></trkpt><trkpt lat="40.877469166911546" lon="15.719623731063457"><ele>694.0</ele><time>2026-04-24T13:00:24Z</time></trkpt><trkpt lat="40.87760293966542" lon="15.719493542330138"><ele>696.6666666666667</ele><time>2026-04-24T13:00:25Z</time></trkpt><trkpt lat="40.87774065263738" lon="15.719395606560715"><ele>699.3333333333334</ele><time>2026-04-24T13:00:26Z</time></trkpt><trkpt lat="40.87788996191759" lon="15.71932086280482"><ele>702.0</ele><time>2026-04-24T13:00:27Z</time></trkpt><trkpt lat="40.878052363774586" lon="15.71926264575574"><ele>702.0</ele><time>2026-04-24T13:00:28Z</time></trkpt><trkpt lat="40.87822836194091" lon="15.719206537233209"><ele>702.0</ele><time>2026-04-24T13:00:29Z</time></trkpt><trkpt lat="40.878403160887615" lon="15.719186818748403"><ele>702.0</ele><time>2026-04-24T13:00:30Z</time></trkpt><trkpt lat="40.8785801548135" lon="15.719149776148608"><ele>704.0</ele><time>2026-04-24T13:00:31Z</time></trkpt><trkpt lat="40.878756532175316" lon="15.719093043223525"><ele>706.0</ele><time>2026-04-24T13:00:32Z</time></trkpt><trkpt lat="40.87893617004581" lon="15.719059518137747"><ele>708.0</ele><time>2026-04-24T13:00:33Z</time></trkpt><trkpt lat="40.87911241691879" lon="15.719024194403994"><ele>711.0</ele><time>2026-04-24T13:00:34Z</time></trkpt><trkpt lat="40.879283123192565" lon="15.718990907107964"><ele>714.0</ele><time>2026-04-24T13:00:35Z</time></trkpt><trkpt lat="40.87945803832788" lon="15.718960527413557"><ele>717.0</ele><time>2026-04-24T13:00:36Z</time></trkpt><trkpt lat="40.87962768348301" lon="15.7189352381586"><ele>717.0</ele><time>2026-04-24T13:00:37Z</time></trkpt><trkpt lat="40.87979365092619" lon="15.718897022996233"><ele>717.0</ele><time>2026-04-24T13:00:38Z</time></trkpt><trkpt lat="40.87996091992034" lon="15.718857533146995"><ele>717.0</ele><time>2026-04-24T13:00:39Z</time></trkpt><trkpt lat="40.88013893997677" lon="15.718819758431708"><ele>719.3333333333334</ele><time>2026-04-24T13:00:40Z</time></trkpt><trkpt lat="40.880307275830674" lon="15.718780521621081"><ele>721.6666666666667</ele><time>2026-04-24T13:00:41Z</time></trkpt><trkpt lat="40.88045944899048" lon="15.718747196514588"><ele>724.0</ele><time>2026-04-24T13:00:42Z</time></trkpt><trkpt lat="40.880608995609144" lon="15.71871823570466"><ele>724.0</ele><time>2026-04-24T13:00:43Z</time></trkpt><trkpt lat="40.88074895061331" lon="15.718683792474524"><ele>724.0</ele><time>2026-04-24T13:00:44Z</time></trkpt><trkpt lat="40.880899481143366" lon="15.718626587010995"><ele>724.0</ele><time>2026-04-24T13:00:45Z</time></trkpt><trkpt lat="40.88104693154307" lon="15.718553139522571"><ele>722.0</ele><time>2026-04-24T13:00:46Z</time></trkpt><trkpt lat="40.88119850720946" lon="15.718463139635393"><ele>720.0</ele><time>2026-04-24T13:00:47Z</time></trkpt><trkpt lat="40.8813535708409" lon="15.718344215785054"><ele>718.0</ele><time>2026-04-24T13:00:48Z</time></trkpt><trkpt lat="40.88149843550284" lon="15.718220128689827"><ele>718.0</ele><time>2026-04-24T13:00:49Z</time></trkpt><trkpt lat="40.88163563673563" lon="15.718120371763302"><ele>718.0</ele><time>2026-04-24T13:00:50Z</time></trkpt><trkpt lat="40.88179486900032" lon="15.717996153894326"><ele>718.0</ele><time>2026-04-24T13:00:51Z</time></trkpt><trkpt lat="40.881944971079456" lon="15.71785556449519"><ele>714.6666666666667</ele><time>2026-04-24T13:00:52Z</time></trkpt><trkpt lat="40.88209217576576" lon="15.717725809770142"><ele>711.3333333333334</ele><time>2026-04-24T13:00:53Z</time></trkpt><trkpt lat="40.88222844150345" lon="15.717615151719485"><ele>708.0</ele><time>2026-04-24T13:00:54Z</time></trkpt><trkpt lat="40.882336693160376" lon="15.717529070900339"><ele>708.0</ele><time>2026-04-24T13:00:55Z</time></trkpt><trkpt lat="40.882435690550956" lon="15.717454009884182"><ele>708.0</ele><time>2026-04-24T13:00:56Z</time></trkpt><trkpt lat="40.88252179069512" lon="15.717394615338327"><ele>708.0</ele><time>2026-04-24T13:00:57Z</time></trkpt><trkpt lat="40.88261411187716" lon="15.717340254756207"><ele>708.0</ele><time>2026-04-24T13:00:58Z</time></trkpt><trkpt lat="40.8827110298522" lon="15.717321359080197"><ele>708.0</ele><time>2026-04-24T13:00:59Z</time></trkpt><trkpt lat="40.882816075732535" lon="15.717348562843538"><ele>707.25</ele><time>2026-04-24T13:01:00Z</time></trkpt><trkpt lat="40.88292142632349" lon="15.717411550648242"><ele>706.5</ele><time>2026-04-24T13:01:01Z</time></trkpt><trkpt lat="40.88300993387774" lon="15.717503777308034"><ele>705.75</ele><time>2026-04-24T13:01:02Z</time></trkpt><trkpt lat="40.883069227544695" lon="15.717645220528624"><ele>705.0</ele><time>2026-04-24T13:01:03Z</time></trkpt><trkpt lat="40.88312980801555" lon="15.717797465391724"><ele>705.0</ele><time>2026-04-24T13:01:04Z</time></trkpt><trkpt lat="40.88319907686503" lon="15.717948077034983"><ele>705.0</ele><time>2026-04-24T13:01:05Z</time></trkpt><trkpt lat="40.88324662356924" lon="15.71809501997287"><ele>705.0</ele><time>2026-04-24T13:01:06Z</time></trkpt><trkpt lat="40.88330503386816" lon="15.718220944345891"><ele>705.0</ele><time>2026-04-24T13:01:07Z</time></trkpt><trkpt lat="40.88337413867656" lon="15.718324940121896"><ele>702.6</ele><time>2026-04-24T13:01:08Z</time></trkpt><trkpt lat="40.88345016354982" lon="15.718388769421578"><ele>700.2</ele><time>2026-04-24T13:01:09Z</time></trkpt><trkpt lat="40.88353874797757" lon="15.718422319890523"><ele>697.8</ele><time>2026-04-24T13:01:10Z</time></trkpt><trkpt lat="40.88363291773041" lon="15.718418629750097"><ele>695.4</ele><time>2026-04-24T13:01:11Z</time></trkpt><trkpt lat="40.883733688644305" lon="15.71837347245469"><ele>693.0</ele><time>2026-04-24T13:01:12Z</time></trkpt><trkpt lat="40.88384010319387" lon="15.718312966286634"><ele>693.0</ele><time>2026-04-24T13:01:13Z</time></trkpt><trkpt lat="40.88395718909354" lon="15.718240899867684"><ele>693.0</ele><time>2026-04-24T13:01:14Z</time></trkpt><trkpt lat="40.884080651465815" lon="15.718167181207978"><ele>693.0</ele><time>2026-04-24T13:01:15Z</time></trkpt><trkpt lat="40.88421217616246" lon="15.718089834790366"><ele>693.0</ele><time>2026-04-24T13:01:16Z</time></trkpt><trkpt lat="40.88436497572235" lon="15.718008355978284"><ele>690.3333333333334</ele><time>2026-04-24T13:01:17Z</time></trkpt><trkpt lat="40.884526995103" lon="15.717915888900164"><ele>687.6666666666667</ele><time>2026-04-24T13:01:18Z</time></trkpt><trkpt lat="40.884685349786544" lon="15.71782893029258"><ele>685.0</ele><time>2026-04-24T13:01:19Z</time></trkpt><trkpt lat="40.8848242968279" lon="15.717740982518022"><ele>684.25</ele><time>2026-04-24T13:01:20Z</time></trkpt><trkpt lat="40.88494160624597" lon="15.717646923376838"><ele>683.5</ele><time>2026-04-24T13:01:21Z</time></trkpt><trkpt lat="40.885033462162994" lon="15.717547069081972"><ele>682.75</ele><time>2026-04-24T13:01:22Z</time></trkpt><trkpt lat="40.88510788226921" lon="15.717444144831255"><ele>682.0</ele><time>2026-04-24T13:01:23Z</time></trkpt><trkpt lat="40.88519085121035" lon="15.717340118287028"><ele>682.0</ele><time>2026-04-24T13:01:24Z</time></trkpt><trkpt lat="40.885281020967376" lon="15.717237615216364"><ele>682.0</ele><time>2026-04-24T13:01:25Z</time></trkpt><trkpt lat="40.88538608563076" lon="15.717133430202539"><ele>682.0</ele><time>2026-04-24T13:01:26Z</time></trkpt><trkpt lat="40.885510249399196" lon="15.717051120455718"><ele>682.0</ele><time>2026-04-24T13:01:27Z</time></trkpt><trkpt lat="40.88564743292652" lon="15.716959695696373"><ele>685.3333333333334</ele><time>2026-04-24T13:01:28Z</time></trkpt><trkpt lat="40.885795048229554" lon="15.716867544718491"><ele>688.6666666666666</ele><time>2026-04-24T13:01:29Z</time></trkpt><trkpt lat="40.88594027970383" lon="15.716779370994844"><ele>692.0</ele><time>2026-04-24T13:01:30Z</time></trkpt><trkpt lat="40.88607204811499" lon="15.716697467427586"><ele>692.5</ele><time>2026-04-24T13:01:31Z</time></trkpt><trkpt lat="40.88618107245047" lon="15.71660615059002"><ele>693.0</ele><time>2026-04-24T13:01:32Z</time></trkpt><trkpt lat="40.88625823105103" lon="15.716481539493973"><ele>693.5</ele><time>2026-04-24T13:01:33Z</time></trkpt><trkpt lat="40.886316962039686" lon="15.716321111156613"><ele>694.0</ele><time>2026-04-24T13:01:34Z</time></trkpt><trkpt lat="40.88635938532028" lon="15.716131650879934"><ele>695.25</ele><time>2026-04-24T13:01:35Z</time></trkpt><trkpt lat="40.886389234320426" lon="15.715949226977958"><ele>696.5</ele><time>2026-04-24T13:01:36Z</time></trkpt><trkpt lat="40.8864471912488" lon="15.715767344532654"><ele>697.75</ele><time>2026-04-24T13:01:37Z</time></trkpt><trkpt lat="40.886546766843445" lon="15.715608931603564"><ele>699.0</ele><time>2026-04-24T13:01:38Z</time></trkpt><trkpt lat="40.8866334927943" lon="15.71542393969048"><ele>699.0</ele><time>2026-04-24T13:01:39Z</time></trkpt><trkpt lat="40.886733153330304" lon="15.715259705340676"><ele>699.0</ele><time>2026-04-24T13:01:40Z</time></trkpt><trkpt lat="40.886827916546615" lon="15.715069992505038"><ele>699.0</ele><time>2026-04-24T13:01:41Z</time></trkpt><trkpt lat="40.88692480871295" lon="15.7148830191542"><ele>699.5</ele><time>2026-04-24T13:01:42Z</time></trkpt><trkpt lat="40.887009999765134" lon="15.714717328732794"><ele>700.0</ele><time>2026-04-24T13:01:43Z</time></trkpt><trkpt lat="40.88709510810634" lon="15.71456712568288"><ele>700.5</ele><time>2026-04-24T13:01:44Z</time></trkpt><trkpt lat="40.8871811385658" lon="15.714437209610361"><ele>701.0</ele><time>2026-04-24T13:01:45Z</time></trkpt><trkpt lat="40.88728128375873" lon="15.714319759772813"><ele>701.0</ele><time>2026-04-24T13:01:46Z</time></trkpt><trkpt lat="40.88740037992779" lon="15.714214199718416"><ele>701.0</ele><time>2026-04-24T13:01:47Z</time></trkpt><trkpt lat="40.88752824411536" lon="15.714134901496447"><ele>701.0</ele><time>2026-04-24T13:01:48Z</time></trkpt><trkpt lat="40.8876798437907" lon="15.714050709786815"><ele>701.0</ele><time>2026-04-24T13:01:49Z</time></trkpt><trkpt lat="40.88784193558488" lon="15.71396757651531"><ele>702.0</ele><time>2026-04-24T13:01:50Z</time></trkpt><trkpt lat="40.88800564893826" lon="15.713884570597694"><ele>703.0</ele><time>2026-04-24T13:01:51Z</time></trkpt><trkpt lat="40.88816986945698" lon="15.713801638930187"><ele>704.0</ele><time>2026-04-24T13:01:52Z</time></trkpt><trkpt lat="40.88834599235271" lon="15.713712932828999"><ele>701.6666666666666</ele><time>2026-04-24T13:01:53Z</time></trkpt><trkpt lat="40.88852484860424" lon="15.713614823514293"><ele>699.3333333333334</ele><time>2026-04-24T13:01:54Z</time></trkpt><trkpt lat="40.88870632075191" lon="15.713513213417325"><ele>697.0</ele><time>2026-04-24T13:01:55Z</time></trkpt><trkpt lat="40.888887689833126" lon="15.71341029793374"><ele>696.0</ele><time>2026-04-24T13:01:56Z</time></trkpt><trkpt lat="40.88907157218065" lon="15.71331399197836"><ele>695.0</ele><time>2026-04-24T13:01:57Z</time></trkpt><trkpt lat="40.889248674542785" lon="15.71322583443401"><ele>694.0</ele><time>2026-04-24T13:01:58Z</time></trkpt><trkpt lat="40.88943250269776" lon="15.713128053527827"><ele>690.6666666666667</ele><time>2026-04-24T13:01:59Z</time></trkpt><trkpt lat="40.88961939586564" lon="15.71302495207179"><ele>687.3333333333334</ele><time>2026-04-24T13:02:00Z</time></trkpt><trkpt lat="40.889809281338636" lon="15.712920607508188"><ele>684.0</ele><time>2026-04-24T13:02:01Z</time></trkpt><trkpt lat="40.889977510419456" lon="15.712827769295563"><ele>684.0</ele><time>2026-04-24T13:02:02Z</time></trkpt><trkpt lat="40.890122451268944" lon="15.71274745272938"><ele>684.0</ele><time>2026-04-24T13:02:03Z</time></trkpt><trkpt lat="40.89025932361281" lon="15.712672971643434"><ele>684.0</ele><time>2026-04-24T13:02:04Z</time></trkpt><trkpt lat="40.89039633341429" lon="15.712590131774931"><ele>684.0</ele><time>2026-04-24T13:02:05Z</time></trkpt><trkpt lat="40.89052058679748" lon="15.712488072093489"><ele>684.0</ele><time>2026-04-24T13:02:06Z</time></trkpt><trkpt lat="40.890641702497064" lon="15.712353930045644"><ele>684.0</ele><time>2026-04-24T13:02:07Z</time></trkpt><trkpt lat="40.890755559600876" lon="15.71218666702534"><ele>684.0</ele><time>2026-04-24T13:02:08Z</time></trkpt><trkpt lat="40.890867720693755" lon="15.712034127128716"><ele>684.0</ele><time>2026-04-24T13:02:09Z</time></trkpt><trkpt lat="40.89100824107852" lon="15.711897894758417"><ele>684.0</ele><time>2026-04-24T13:02:10Z</time></trkpt><trkpt lat="40.891162218026345" lon="15.711805312833734"><ele>684.3333333333334</ele><time>2026-04-24T13:02:11Z</time></trkpt><trkpt lat="40.89134090807151" lon="15.711762343973126"><ele>684.6666666666667</ele><time>2026-04-24T13:02:12Z</time></trkpt><trkpt lat="40.891508900423425" lon="15.711691844798432"><ele>685.0</ele><time>2026-04-24T13:02:13Z</time></trkpt><trkpt lat="40.891681035962606" lon="15.711648956231299"><ele>683.6666666666667</ele><time>2026-04-24T13:02:14Z</time></trkpt><trkpt lat="40.89185486539873" lon="15.711590632912813"><ele>682.3333333333334</ele><time>2026-04-24T13:02:15Z</time></trkpt><trkpt lat="40.89203625382395" lon="15.711518077213304"><ele>681.0</ele><time>2026-04-24T13:02:16Z</time></trkpt><trkpt lat="40.89221183543681" lon="15.71145022213065"><ele>681.0</ele><time>2026-04-24T13:02:17Z</time></trkpt><trkpt lat="40.89238709605623" lon="15.711380533776072"><ele>681.0</ele><time>2026-04-24T13:02:18Z</time></trkpt><trkpt lat="40.89256170234717" lon="15.711310353455186"><ele>681.0</ele><time>2026-04-24T13:02:19Z</time></trkpt><trkpt lat="40.892718332933285" lon="15.711257736126651"><ele>681.6666666666666</ele><time>2026-04-24T13:02:20Z</time></trkpt><trkpt lat="40.89287552462864" lon="15.711227954833593"><ele>682.3333333333333</ele><time>2026-04-24T13:02:21Z</time></trkpt><trkpt lat="40.893030956068394" lon="15.711269983929766"><ele>683.0</ele><time>2026-04-24T13:02:22Z</time></trkpt><trkpt lat="40.89319712182158" lon="15.7113199391859"><ele>683.0</ele><time>2026-04-24T13:02:23Z</time></trkpt><trkpt lat="40.89335380175728" lon="15.71137056390143"><ele>683.0</ele><time>2026-04-24T13:02:24Z</time></trkpt><trkpt lat="40.893522682468394" lon="15.711420176784396"><ele>683.0</ele><time>2026-04-24T13:02:25Z</time></trkpt><trkpt lat="40.89367362620154" lon="15.711484441511095"><ele>683.5</ele><time>2026-04-24T13:02:26Z</time></trkpt><trkpt lat="40.89380320285312" lon="15.711517722786969"><ele>684.0</ele><time>2026-04-24T13:02:27Z</time></trkpt><trkpt lat="40.89391333185496" lon="15.711528689934902"><ele>684.5</ele><time>2026-04-24T13:02:28Z</time></trkpt><trkpt lat="40.89400345424323" lon="15.711489227737463"><ele>685.0</ele><time>2026-04-24T13:02:29Z</time></trkpt><trkpt lat="40.89409554075842" lon="15.711397771397934"><ele>685.0</ele><time>2026-04-24T13:02:30Z</time></trkpt><trkpt lat="40.89416584258195" lon="15.711268887022479"><ele>685.0</ele><time>2026-04-24T13:02:31Z</time></trkpt><trkpt lat="40.89420777571072" lon="15.711113746027262"><ele>685.0</ele><time>2026-04-24T13:02:32Z</time></trkpt><trkpt lat="40.89423097343031" lon="15.710941892156947"><ele>685.0</ele><time>2026-04-24T13:02:33Z</time></trkpt><trkpt lat="40.89427579097776" lon="15.710770647291547"><ele>684.75</ele><time>2026-04-24T13:02:34Z</time></trkpt><trkpt lat="40.89432416228876" lon="15.710604089665003"><ele>684.5</ele><time>2026-04-24T13:02:35Z</time></trkpt><trkpt lat="40.89438147128587" lon="15.710446812399692"><ele>684.25</ele><time>2026-04-24T13:02:36Z</time></trkpt><trkpt lat="40.89448475956661" lon="15.710328529843187"><ele>684.0</ele><time>2026-04-24T13:02:37Z</time></trkpt><trkpt lat="40.89461173331952" lon="15.71023175796208"><ele>688.3333333333334</ele><time>2026-04-24T13:02:38Z</time></trkpt><trkpt lat="40.89476239705822" lon="15.710163424069444"><ele>692.6666666666667</ele><time>2026-04-24T13:02:39Z</time></trkpt><trkpt lat="40.894924917031844" lon="15.710116302404598"><ele>697.0</ele><time>2026-04-24T13:02:40Z</time></trkpt><trkpt lat="40.895086354745665" lon="15.710065098664144"><ele>694.25</ele><time>2026-04-24T13:02:41Z</time></trkpt><trkpt lat="40.89522938796139" lon="15.709995759505563"><ele>691.5</ele><time>2026-04-24T13:02:42Z</time></trkpt><trkpt lat="40.89533707152146" lon="15.709929923601301"><ele>688.75</ele><time>2026-04-24T13:02:43Z</time></trkpt><trkpt lat="40.8954410450682" lon="15.70983831947071"><ele>686.0</ele><time>2026-04-24T13:02:44Z</time></trkpt><trkpt lat="40.895510982182685" lon="15.709715263629676"><ele>686.0</ele><time>2026-04-24T13:02:45Z</time></trkpt><trkpt lat="40.895560177719126" lon="15.709563022028739"><ele>686.0</ele><time>2026-04-24T13:02:46Z</time></trkpt><trkpt lat="40.89558335397567" lon="15.709368142693302"><ele>686.0</ele><time>2026-04-24T13:02:47Z</time></trkpt><trkpt lat="40.89559452719344" lon="15.709163387404589"><ele>686.0</ele><time>2026-04-24T13:02:48Z</time></trkpt><trkpt lat="40.89561406568592" lon="15.70895178749638"><ele>686.0</ele><time>2026-04-24T13:02:49Z</time></trkpt><trkpt lat="40.895602700266146" lon="15.708743841237345"><ele>686.0</ele><time>2026-04-24T13:02:50Z</time></trkpt><trkpt lat="40.89556621936121" lon="15.708525765519173"><ele>686.0</ele><time>2026-04-24T13:02:51Z</time></trkpt><trkpt lat="40.89550808606717" lon="15.708323454185457"><ele>686.0</ele><time>2026-04-24T13:02:52Z</time></trkpt><trkpt lat="40.895437954952136" lon="15.708133197440008"><ele>686.0</ele><time>2026-04-24T13:02:53Z</time></trkpt><trkpt lat="40.89536328686985" lon="15.707949696383283"><ele>686.0</ele><time>2026-04-24T13:02:54Z</time></trkpt><trkpt lat="40.895290298899766" lon="15.707771107822353"><ele>683.6666666666666</ele><time>2026-04-24T13:02:55Z</time></trkpt><trkpt lat="40.895216776412305" lon="15.707587073188298"><ele>681.3333333333334</ele><time>2026-04-24T13:02:56Z</time></trkpt><trkpt lat="40.895143053559224" lon="15.707394275733673"><ele>679.0</ele><time>2026-04-24T13:02:57Z</time></trkpt><trkpt lat="40.89510142021849" lon="15.707194639360933"><ele>679.0</ele><time>2026-04-24T13:02:58Z</time></trkpt><trkpt lat="40.89509335465047" lon="15.706994108098595"><ele>679.0</ele><time>2026-04-24T13:02:59Z</time></trkpt><trkpt lat="40.89510413006745" lon="15.706772128235576"><ele>679.0</ele><time>2026-04-24T13:03:00Z</time></trkpt><trkpt lat="40.895111052442026" lon="15.706571449218114"><ele>678.25</ele><time>2026-04-24T13:03:01Z</time></trkpt><trkpt lat="40.89509800442096" lon="15.706389695656688"><ele>677.5</ele><time>2026-04-24T13:03:02Z</time></trkpt><trkpt lat="40.89508953833704" lon="15.706225021043796"><ele>676.75</ele><time>2026-04-24T13:03:03Z</time></trkpt><trkpt lat="40.8950494342032" lon="15.70606785002246"><ele>676.0</ele><time>2026-04-24T13:03:04Z</time></trkpt><trkpt lat="40.89498143224202" lon="15.705913029174127"><ele>681.3333333333334</ele><time>2026-04-24T13:03:05Z</time></trkpt><trkpt lat="40.894897951265186" lon="15.705757795922741"><ele>686.6666666666666</ele><time>2026-04-24T13:03:06Z</time></trkpt><trkpt lat="40.89482034185926" lon="15.70558207613057"><ele>692.0</ele><time>2026-04-24T13:03:07Z</time></trkpt><trkpt lat="40.89472830870134" lon="15.705417308292848"><ele>692.0</ele><time>2026-04-24T13:03:08Z</time></trkpt><trkpt lat="40.89463290574301" lon="15.705249007543536"><ele>692.0</ele><time>2026-04-24T13:03:09Z</time></trkpt><trkpt lat="40.894536122579275" lon="15.705093801436705"><ele>692.0</ele><time>2026-04-24T13:03:10Z</time></trkpt><trkpt lat="40.894435426211636" lon="15.704954477827313"><ele>693.5</ele><time>2026-04-24T13:03:11Z</time></trkpt><trkpt lat="40.89432040881125" lon="15.70485990842983"><ele>695.0</ele><time>2026-04-24T13:03:12Z</time></trkpt><trkpt lat="40.89423006595773" lon="15.704745731344918"><ele>696.5</ele><time>2026-04-24T13:03:13Z</time></trkpt><trkpt lat="40.89414077789507" lon="15.704652260384515"><ele>698.0</ele><time>2026-04-24T13:03:14Z</time></trkpt><trkpt lat="40.89406781717889" lon="15.704551211264134"><ele>698.0</ele><time>2026-04-24T13:03:15Z</time></trkpt><trkpt lat="40.89402527262279" lon="15.704421308730534"><ele>698.0</ele><time>2026-04-24T13:03:16Z</time></trkpt><trkpt lat="40.89400089117163" lon="15.704268689439587"><ele>698.0</ele><time>2026-04-24T13:03:17Z</time></trkpt><trkpt lat="40.89400500489359" lon="15.704089780438586"><ele>698.0</ele><time>2026-04-24T13:03:18Z</time></trkpt><trkpt lat="40.89402091631163" lon="15.703900676342355"><ele>695.6666666666666</ele><time>2026-04-24T13:03:19Z</time></trkpt><trkpt lat="40.89404126166676" lon="15.70367818715671"><ele>693.3333333333334</ele><time>2026-04-24T13:03:20Z</time></trkpt><trkpt lat="40.89404736539692" lon="15.703466365751046"><ele>691.0</ele><time>2026-04-24T13:03:21Z</time></trkpt><trkpt lat="40.89407045649255" lon="15.70325664178228"><ele>691.0</ele><time>2026-04-24T13:03:22Z</time></trkpt><trkpt lat="40.894101185643585" lon="15.703021149005785"><ele>691.0</ele><time>2026-04-24T13:03:23Z</time></trkpt><trkpt lat="40.894128774964514" lon="15.70282336658858"><ele>691.0</ele><time>2026-04-24T13:03:24Z</time></trkpt><trkpt lat="40.89416504591231" lon="15.702641754317565"><ele>691.5999999999999</ele><time>2026-04-24T13:03:25Z</time></trkpt><trkpt lat="40.894215078227" lon="15.702500923809401"><ele>692.2</ele><time>2026-04-24T13:03:26Z</time></trkpt><trkpt lat="40.89427942897294" lon="15.70236681150804"><ele>692.8</ele><time>2026-04-24T13:03:27Z</time></trkpt><trkpt lat="40.8943243157948" lon="15.702242589837613"><ele>693.4000000000001</ele><time>2026-04-24T13:03:28Z</time></trkpt><trkpt lat="40.89432995830806" lon="15.702142353099456"><ele>694.0</ele><time>2026-04-24T13:03:29Z</time></trkpt><trkpt lat="40.89434416635376" lon="15.702042444099751"><ele>693.5</ele><time>2026-04-24T13:03:30Z</time></trkpt><trkpt lat="40.89434202853487" lon="15.701949345553349"><ele>693.0</ele><time>2026-04-24T13:03:31Z</time></trkpt><trkpt lat="40.89432794030741" lon="15.701863874698141"><ele>692.5</ele><time>2026-04-24T13:03:32Z</time></trkpt><trkpt lat="40.89429990414583" lon="15.701775143876283"><ele>692.0</ele><time>2026-04-24T13:03:33Z</time></trkpt><trkpt lat="40.894282008068096" lon="15.701656942180454"><ele>691.5</ele><time>2026-04-24T13:03:34Z</time></trkpt><trkpt lat="40.89426489374431" lon="15.701513850871441"><ele>691.0</ele><time>2026-04-24T13:03:35Z</time></trkpt><trkpt lat="40.894240977974846" lon="15.701359331427463"><ele>691.0</ele><time>2026-04-24T13:03:36Z</time></trkpt><trkpt lat="40.89423715050925" lon="15.701187179311535"><ele>691.0</ele><time>2026-04-24T13:03:37Z</time></trkpt><trkpt lat="40.894235657080706" lon="15.700998527461596"><ele>691.0</ele><time>2026-04-24T13:03:38Z</time></trkpt><trkpt lat="40.894242395217354" lon="15.700790297543051"><ele>691.0</ele><time>2026-04-24T13:03:39Z</time></trkpt><trkpt lat="40.894249770108445" lon="15.700571955054041"><ele>689.3333333333334</ele><time>2026-04-24T13:03:40Z</time></trkpt><trkpt lat="40.89425587827176" lon="15.70035219213164"><ele>687.6666666666666</ele><time>2026-04-24T13:03:41Z</time></trkpt><trkpt lat="40.894243258689556" lon="15.700137590943116"><ele>686.0</ele><time>2026-04-24T13:03:42Z</time></trkpt><trkpt lat="40.894254032810835" lon="15.699935806978619"><ele>683.75</ele><time>2026-04-24T13:03:43Z</time></trkpt><trkpt lat="40.89426067650904" lon="15.699757166778282"><ele>681.5</ele><time>2026-04-24T13:03:44Z</time></trkpt><trkpt lat="40.894263997416544" lon="15.699594880359092"><ele>679.25</ele><time>2026-04-24T13:03:45Z</time></trkpt><trkpt lat="40.894268696530546" lon="15.699443472378775"><ele>677.0</ele><time>2026-04-24T13:03:46Z</time></trkpt><trkpt lat="40.89427262930004" lon="15.699299050980722"><ele>677.0</ele><time>2026-04-24T13:03:47Z</time></trkpt><trkpt lat="40.8942913847226" lon="15.69915128313328"><ele>677.0</ele><time>2026-04-24T13:03:48Z</time></trkpt><trkpt lat="40.894346010008704" lon="15.699012273472624"><ele>677.0</ele><time>2026-04-24T13:03:49Z</time></trkpt><trkpt lat="40.89440874580057" lon="15.698858619921465"><ele>677.0</ele><time>2026-04-24T13:03:50Z</time></trkpt><trkpt lat="40.89449605991222" lon="15.698717227906172"><ele>680.0</ele><time>2026-04-24T13:03:51Z</time></trkpt><trkpt lat="40.89461015448069" lon="15.698583547902222"><ele>683.0</ele><time>2026-04-24T13:03:52Z</time></trkpt><trkpt lat="40.8947305865181" lon="15.69847886836346"><ele>686.0</ele><time>2026-04-24T13:03:53Z</time></trkpt><trkpt lat="40.89485832636388" lon="15.698378889513934"><ele>689.0</ele><time>2026-04-24T13:03:54Z</time></trkpt><trkpt lat="40.89497903372029" lon="15.69825554629189"><ele>689.0</ele><time>2026-04-24T13:03:55Z</time></trkpt><trkpt lat="40.895087371910265" lon="15.69811868247326"><ele>689.0</ele><time>2026-04-24T13:03:56Z</time></trkpt><trkpt lat="40.8951930965896" lon="15.697965912371158"><ele>689.0</ele><time>2026-04-24T13:03:57Z</time></trkpt><trkpt lat="40.89528737419165" lon="15.697783136421307"><ele>685.6666666666666</ele><time>2026-04-24T13:03:58Z</time></trkpt><trkpt lat="40.8953662511036" lon="15.69759756733215"><ele>682.3333333333334</ele><time>2026-04-24T13:03:59Z</time></trkpt><trkpt lat="40.89544284466385" lon="15.697416959584723"><ele>679.0</ele><time>2026-04-24T13:04:00Z</time></trkpt><trkpt lat="40.895541254152974" lon="15.697181255714431"><ele>679.0</ele><time>2026-04-24T13:04:01Z</time></trkpt><trkpt lat="40.89561757568336" lon="15.696972578277208"><ele>679.0</ele><time>2026-04-24T13:04:02Z</time></trkpt><trkpt lat="40.89569109611929" lon="15.69677989810978"><ele>679.0</ele><time>2026-04-24T13:04:03Z</time></trkpt><trkpt lat="40.895786551477514" lon="15.696609313778193"><ele>679.6666666666667</ele><time>2026-04-24T13:04:04Z</time></trkpt><trkpt lat="40.89589812067943" lon="15.696450710340324"><ele>680.3333333333334</ele><time>2026-04-24T13:04:05Z</time></trkpt><trkpt lat="40.89605245792305" lon="15.696364794544003"><ele>681.0</ele><time>2026-04-24T13:04:06Z</time></trkpt><trkpt lat="40.89621116533642" lon="15.696286548498636"><ele>681.0</ele><time>2026-04-24T13:04:07Z</time></trkpt><trkpt lat="40.896376494169324" lon="15.696214213177823"><ele>681.0</ele><time>2026-04-24T13:04:08Z</time></trkpt><trkpt lat="40.896548124579596" lon="15.69613275631053"><ele>681.0</ele><time>2026-04-24T13:04:09Z</time></trkpt><trkpt lat="40.896732162301824" lon="15.696066152263105"><ele>680.6666666666666</ele><time>2026-04-24T13:04:10Z</time></trkpt><trkpt lat="40.89691006807472" lon="15.695990897818664"><ele>680.3333333333333</ele><time>2026-04-24T13:04:11Z</time></trkpt><trkpt lat="40.89708411803516" lon="15.695911035419972"><ele>680.0</ele><time>2026-04-24T13:04:12Z</time></trkpt><trkpt lat="40.897256516481725" lon="15.69583026673018"><ele>680.0</ele><time>2026-04-24T13:04:13Z</time></trkpt><trkpt lat="40.89743520149236" lon="15.695757678872528"><ele>680.0</ele><time>2026-04-24T13:04:14Z</time></trkpt><trkpt lat="40.89761623056686" lon="15.69568262862838"><ele>680.0</ele><time>2026-04-24T13:04:15Z</time></trkpt><trkpt lat="40.89780778545547" lon="15.695602701507191"><ele>679.0</ele><time>2026-04-24T13:04:16Z</time></trkpt><trkpt lat="40.897980907483266" lon="15.695515437096901"><ele>678.0</ele><time>2026-04-24T13:04:17Z</time></trkpt><trkpt lat="40.898145602135955" lon="15.695436662757182"><ele>677.0</ele><time>2026-04-24T13:04:18Z</time></trkpt><trkpt lat="40.89831131385075" lon="15.695381706923575"><ele>678.0</ele><time>2026-04-24T13:04:19Z</time></trkpt><trkpt lat="40.89847754202389" lon="15.69530905897855"><ele>679.0</ele><time>2026-04-24T13:04:20Z</time></trkpt><trkpt lat="40.89864413685656" lon="15.695232040222328"><ele>680.0</ele><time>2026-04-24T13:04:21Z</time></trkpt><trkpt lat="40.89880885074853" lon="15.69513292280771"><ele>680.3333333333333</ele><time>2026-04-24T13:04:22Z</time></trkpt><trkpt lat="40.898986645164676" lon="15.69503729158151"><ele>680.6666666666666</ele><time>2026-04-24T13:04:23Z</time></trkpt><trkpt lat="40.899153627105456" lon="15.694945466743237"><ele>681.0</ele><time>2026-04-24T13:04:24Z</time></trkpt><trkpt lat="40.89933195677956" lon="15.694830260889885"><ele>682.3333333333334</ele><time>2026-04-24T13:04:25Z</time></trkpt><trkpt lat="40.89950244616182" lon="15.694705340053483"><ele>683.6666666666667</ele><time>2026-04-24T13:04:26Z</time></trkpt><trkpt lat="40.8996753259671" lon="15.694585305384184"><ele>685.0</ele><time>2026-04-24T13:04:27Z</time></trkpt><trkpt lat="40.899850254065264" lon="15.694455395130065"><ele>683.0</ele><time>2026-04-24T13:04:28Z</time></trkpt><trkpt lat="40.900026143197636" lon="15.69432442462831"><ele>681.0</ele><time>2026-04-24T13:04:29Z</time></trkpt><trkpt lat="40.900211797790746" lon="15.694208447341557"><ele>679.0</ele><time>2026-04-24T13:04:30Z</time></trkpt><trkpt lat="40.9003942104924" lon="15.694094531584634"><ele>678.6666666666667</ele><time>2026-04-24T13:04:31Z</time></trkpt><trkpt lat="40.9005779491857" lon="15.693970068000162"><ele>678.3333333333334</ele><time>2026-04-24T13:04:32Z</time></trkpt><trkpt lat="40.900753977273915" lon="15.6938343023511"><ele>678.0</ele><time>2026-04-24T13:04:33Z</time></trkpt><trkpt lat="40.900941724048025" lon="15.693701733690904"><ele>678.0</ele><time>2026-04-24T13:04:34Z</time></trkpt><trkpt lat="40.901128725225504" lon="15.693589413147755"><ele>678.0</ele><time>2026-04-24T13:04:35Z</time></trkpt><trkpt lat="40.901317826752184" lon="15.693470419566287"><ele>678.0</ele><time>2026-04-24T13:04:36Z</time></trkpt><trkpt lat="40.90150848603942" lon="15.693338100946452"><ele>678.0</ele><time>2026-04-24T13:04:37Z</time></trkpt><trkpt lat="40.90169272585699" lon="15.693203853946343"><ele>678.0</ele><time>2026-04-24T13:04:38Z</time></trkpt><trkpt lat="40.90188088138658" lon="15.693074543759284"><ele>678.0</ele><time>2026-04-24T13:04:39Z</time></trkpt><trkpt lat="40.902070923406846" lon="15.692956993976093"><ele>677.6666666666666</ele><time>2026-04-24T13:04:40Z</time></trkpt><trkpt lat="40.90225426135768" lon="15.69283891030322"><ele>677.3333333333333</ele><time>2026-04-24T13:04:41Z</time></trkpt><trkpt lat="40.90241620333512" lon="15.69271814654154"><ele>677.0</ele><time>2026-04-24T13:04:42Z</time></trkpt><trkpt lat="40.90256229076003" lon="15.692583132638644"><ele>678.3333333333333</ele><time>2026-04-24T13:04:43Z</time></trkpt><trkpt lat="40.90269732705428" lon="15.692432109441086"><ele>679.6666666666666</ele><time>2026-04-24T13:04:44Z</time></trkpt><trkpt lat="40.90281882429213" lon="15.692252430638614"><ele>681.0</ele><time>2026-04-24T13:04:45Z</time></trkpt><trkpt lat="40.90292515430465" lon="15.692045869480236"><ele>680.6666666666666</ele><time>2026-04-24T13:04:46Z</time></trkpt><trkpt lat="40.90304969605761" lon="15.691841631409163"><ele>680.3333333333333</ele><time>2026-04-24T13:04:47Z</time></trkpt><trkpt lat="40.90317415263929" lon="15.691629520647696"><ele>680.0</ele><time>2026-04-24T13:04:48Z</time></trkpt><trkpt lat="40.90329888040712" lon="15.69141073281246"><ele>679.6666666666666</ele><time>2026-04-24T13:04:49Z</time></trkpt><trkpt lat="40.90342269086353" lon="15.691187995462414"><ele>679.3333333333334</ele><time>2026-04-24T13:04:50Z</time></trkpt><trkpt lat="40.903548134371526" lon="15.69098090208176"><ele>679.0</ele><time>2026-04-24T13:04:51Z</time></trkpt><trkpt lat="40.903668591415496" lon="15.69076660254217"><ele>679.0</ele><time>2026-04-24T13:04:52Z</time></trkpt><trkpt lat="40.903774776146236" lon="15.690572385595727"><ele>679.0</ele><time>2026-04-24T13:04:53Z</time></trkpt><trkpt lat="40.90387697832367" lon="15.690401162629263"><ele>679.0</ele><time>2026-04-24T13:04:54Z</time></trkpt><trkpt lat="40.90398032440457" lon="15.690244966638108"><ele>677.0</ele><time>2026-04-24T13:04:55Z</time></trkpt><trkpt lat="40.904089103829776" lon="15.690098706187493"><ele>675.0</ele><time>2026-04-24T13:04:56Z</time></trkpt><trkpt lat="40.9042088657411" lon="15.689960164198917"><ele>673.0</ele><time>2026-04-24T13:04:57Z</time></trkpt><trkpt lat="40.90434775010346" lon="15.689826086664107"><ele>672.3333333333334</ele><time>2026-04-24T13:04:58Z</time></trkpt><trkpt lat="40.904498055145375" lon="15.689697174894167"><ele>671.6666666666666</ele><time>2026-04-24T13:04:59Z</time></trkpt><trkpt lat="40.90464751207668" lon="15.689561262950331"><ele>671.0</ele><time>2026-04-24T13:05:00Z</time></trkpt><trkpt lat="40.90480274465086" lon="15.689415145393513"><ele>669.6666666666666</ele><time>2026-04-24T13:05:01Z</time></trkpt><trkpt lat="40.90495999488613" lon="15.689268755068952"><ele>668.3333333333334</ele><time>2026-04-24T13:05:02Z</time></trkpt><trkpt lat="40.9051183490421" lon="15.689105649969328"><ele>667.0</ele><time>2026-04-24T13:05:03Z</time></trkpt><trkpt lat="40.90526577843527" lon="15.68892134986074"><ele>666.6666666666667</ele><time>2026-04-24T13:05:04Z</time></trkpt><trkpt lat="40.90540913636348" lon="15.688725286944237"><ele>666.3333333333334</ele><time>2026-04-24T13:05:05Z</time></trkpt><trkpt lat="40.90554756250902" lon="15.688523261785043"><ele>666.0</ele><time>2026-04-24T13:05:06Z</time></trkpt><trkpt lat="40.905687218438004" lon="15.688319194395357"><ele>666.0</ele><time>2026-04-24T13:05:07Z</time></trkpt><trkpt lat="40.90582656696307" lon="15.68811314787504"><ele>666.0</ele><time>2026-04-24T13:05:08Z</time></trkpt><trkpt lat="40.9059649972626" lon="15.68790711415645"><ele>666.0</ele><time>2026-04-24T13:05:09Z</time></trkpt><trkpt lat="40.90610905562433" lon="15.687699962153237"><ele>666.6666666666666</ele><time>2026-04-24T13:05:10Z</time></trkpt><trkpt lat="40.90624397672091" lon="15.687519905982603"><ele>667.3333333333333</ele><time>2026-04-24T13:05:11Z</time></trkpt><trkpt lat="40.90638284707623" lon="15.6873630452071"><ele>668.0</ele><time>2026-04-24T13:05:12Z</time></trkpt><trkpt lat="40.906535021830344" lon="15.687231162207004"><ele>668.0</ele><time>2026-04-24T13:05:13Z</time></trkpt><trkpt lat="40.90670633962272" lon="15.687122245846494"><ele>668.0</ele><time>2026-04-24T13:05:14Z</time></trkpt><trkpt lat="40.9068825592997" lon="15.687023499140489"><ele>668.0</ele><time>2026-04-24T13:05:15Z</time></trkpt><trkpt lat="40.90706164096102" lon="15.686916833260854"><ele>667.0</ele><time>2026-04-24T13:05:16Z</time></trkpt><trkpt lat="40.90723869769401" lon="15.686805862857534"><ele>666.0</ele><time>2026-04-24T13:05:17Z</time></trkpt><trkpt lat="40.90742198151539" lon="15.68669113055823"><ele>665.0</ele><time>2026-04-24T13:05:18Z</time></trkpt><trkpt lat="40.907594779629214" lon="15.686576119277383"><ele>664.6666666666666</ele><time>2026-04-24T13:05:19Z</time></trkpt><trkpt lat="40.9077712324882" lon="15.68642936819278"><ele>664.3333333333334</ele><time>2026-04-24T13:05:20Z</time></trkpt><trkpt lat="40.90792715676076" lon="15.686249244800617"><ele>664.0</ele><time>2026-04-24T13:05:21Z</time></trkpt><trkpt lat="40.90808330876249" lon="15.686050233133066"><ele>663.3333333333334</ele><time>2026-04-24T13:05:22Z</time></trkpt><trkpt lat="40.90824189188598" lon="15.685854069936568"><ele>662.6666666666666</ele><time>2026-04-24T13:05:23Z</time></trkpt><trkpt lat="40.908395863430606" lon="15.685647543729381"><ele>662.0</ele><time>2026-04-24T13:05:24Z</time></trkpt><trkpt lat="40.90852761806685" lon="15.685426480877393"><ele>662.0</ele><time>2026-04-24T13:05:25Z</time></trkpt><trkpt lat="40.90863392489034" lon="15.685201782099156"><ele>662.0</ele><time>2026-04-24T13:05:26Z</time></trkpt><trkpt lat="40.90871664108855" lon="15.68498908557806"><ele>662.0</ele><time>2026-04-24T13:05:27Z</time></trkpt><trkpt lat="40.90881381745903" lon="15.684808681422284"><ele>662.0</ele><time>2026-04-24T13:05:28Z</time></trkpt><trkpt lat="40.90888974416056" lon="15.684644124461144"><ele>662.0</ele><time>2026-04-24T13:05:29Z</time></trkpt><trkpt lat="40.908944754884516" lon="15.684502831919112"><ele>662.0</ele><time>2026-04-24T13:05:30Z</time></trkpt><trkpt lat="40.909009387951734" lon="15.684390167242109"><ele>662.0</ele><time>2026-04-24T13:05:31Z</time></trkpt><trkpt lat="40.90909530645075" lon="15.684301554653967"><ele>660.25</ele><time>2026-04-24T13:05:32Z</time></trkpt><trkpt lat="40.90919828737205" lon="15.684237029674078"><ele>658.5</ele><time>2026-04-24T13:05:33Z</time></trkpt><trkpt lat="40.90931193372198" lon="15.684195159437131"><ele>656.75</ele><time>2026-04-24T13:05:34Z</time></trkpt><trkpt lat="40.909444790685626" lon="15.684182458931797"><ele>655.0</ele><time>2026-04-24T13:05:35Z</time></trkpt><trkpt lat="40.90959240264854" lon="15.684200629386037"><ele>653.25</ele><time>2026-04-24T13:05:36Z</time></trkpt><trkpt lat="40.90973482323088" lon="15.684229489087073"><ele>651.5</ele><time>2026-04-24T13:05:37Z</time></trkpt><trkpt lat="40.90987061087784" lon="15.68424937234084"><ele>649.75</ele><time>2026-04-24T13:05:38Z</time></trkpt><trkpt lat="40.91000112796789" lon="15.684252979151383"><ele>648.0</ele><time>2026-04-24T13:05:39Z</time></trkpt><trkpt lat="40.91011332851453" lon="15.684254824592566"><ele>646.8</ele><time>2026-04-24T13:05:40Z</time></trkpt><trkpt lat="40.91021445322988" lon="15.684262123670292"><ele>645.5999999999999</ele><time>2026-04-24T13:05:41Z</time></trkpt><trkpt lat="40.91031427777975" lon="15.684241991696984"><ele>644.4000000000001</ele><time>2026-04-24T13:05:42Z</time></trkpt><trkpt lat="40.9104015549232" lon="15.68424065200712"><ele>643.2</ele><time>2026-04-24T13:05:43Z</time></trkpt><trkpt lat="40.91048641670851" lon="15.68430061383355"><ele>642.0</ele><time>2026-04-24T13:05:44Z</time></trkpt><trkpt lat="40.91056698344351" lon="15.684361650196792"><ele>641.8</ele><time>2026-04-24T13:05:45Z</time></trkpt><trkpt lat="40.91063744129172" lon="15.684440651105547"><ele>641.6</ele><time>2026-04-24T13:05:46Z</time></trkpt><trkpt lat="40.9107082488345" lon="15.684522268822349"><ele>641.4</ele><time>2026-04-24T13:05:47Z</time></trkpt><trkpt lat="40.91079377736142" lon="15.684535618333944"><ele>641.1999999999999</ele><time>2026-04-24T13:05:48Z</time></trkpt><trkpt lat="40.910884130007204" lon="15.684530614694102"><ele>641.0</ele><time>2026-04-24T13:05:49Z</time></trkpt><trkpt lat="40.91098715010533" lon="15.68455633783656"><ele>638.1999999999999</ele><time>2026-04-24T13:05:50Z</time></trkpt><trkpt lat="40.91109019886773" lon="15.684610145028994"><ele>635.4</ele><time>2026-04-24T13:05:51Z</time></trkpt><trkpt lat="40.91116967517535" lon="15.684711016192617"><ele>632.6</ele><time>2026-04-24T13:05:52Z</time></trkpt><trkpt lat="40.911242750489045" lon="15.684787230483419"><ele>629.8</ele><time>2026-04-24T13:05:53Z</time></trkpt><trkpt lat="40.91132307308371" lon="15.684802664821229"><ele>627.0</ele><time>2026-04-24T13:05:54Z</time></trkpt><trkpt lat="40.91140798829093" lon="15.684769647873397"><ele>627.0</ele><time>2026-04-24T13:05:55Z</time></trkpt><trkpt lat="40.91147703101635" lon="15.684697275175559"><ele>627.0</ele><time>2026-04-24T13:05:56Z</time></trkpt><trkpt lat="40.911512913094356" lon="15.684587216539652"><ele>627.0</ele><time>2026-04-24T13:05:57Z</time></trkpt><trkpt lat="40.911513409903776" lon="15.684471755910986"><ele>627.0</ele><time>2026-04-24T13:05:58Z</time></trkpt><trkpt lat="40.911486134086736" lon="15.684357035209402"><ele>627.0</ele><time>2026-04-24T13:05:59Z</time></trkpt><trkpt lat="40.91143489723113" lon="15.684238172239848"><ele>627.8000000000001</ele><time>2026-04-24T13:06:00Z</time></trkpt><trkpt lat="40.91139917101211" lon="15.684111381540468"><ele>628.6</ele><time>2026-04-24T13:06:01Z</time></trkpt><trkpt lat="40.911405339537474" lon="15.683989095658701"><ele>629.4000000000001</ele><time>2026-04-24T13:06:02Z</time></trkpt><trkpt lat="40.911458446542426" lon="15.683881015841918"><ele>630.2</ele><time>2026-04-24T13:06:03Z</time></trkpt><trkpt lat="40.91153264563617" lon="15.6837972793529"><ele>631.0</ele><time>2026-04-24T13:06:04Z</time></trkpt><trkpt lat="40.91163481011009" lon="15.68373741078869"><ele>630.25</ele><time>2026-04-24T13:06:05Z</time></trkpt><trkpt lat="40.91174744596863" lon="15.68367569723566"><ele>629.5</ele><time>2026-04-24T13:06:06Z</time></trkpt><trkpt lat="40.911858456093604" lon="15.683589681231634"><ele>628.75</ele><time>2026-04-24T13:06:07Z</time></trkpt><trkpt lat="40.91197332803346" lon="15.683485661196167"><ele>628.0</ele><time>2026-04-24T13:06:08Z</time></trkpt><trkpt lat="40.91209762728541" lon="15.683379429184013"><ele>628.0</ele><time>2026-04-24T13:06:09Z</time></trkpt><trkpt lat="40.91222744744069" lon="15.683266688113996"><ele>628.0</ele><time>2026-04-24T13:06:10Z</time></trkpt><trkpt lat="40.912368824741336" lon="15.683146045993583"><ele>628.0</ele><time>2026-04-24T13:06:11Z</time></trkpt><trkpt lat="40.91250742051927" lon="15.683018256239077"><ele>629.6666666666667</ele><time>2026-04-24T13:06:12Z</time></trkpt><trkpt lat="40.912644725865974" lon="15.682877989444526"><ele>631.3333333333334</ele><time>2026-04-24T13:06:13Z</time></trkpt><trkpt lat="40.912774925928495" lon="15.682715810426222"><ele>633.0</ele><time>2026-04-24T13:06:14Z</time></trkpt><trkpt lat="40.9128976152607" lon="15.682534756280935"><ele>633.0</ele><time>2026-04-24T13:06:15Z</time></trkpt><trkpt lat="40.91302420345447" lon="15.68235738486463"><ele>633.0</ele><time>2026-04-24T13:06:16Z</time></trkpt><trkpt lat="40.91316280646392" lon="15.682210408458934"><ele>633.0</ele><time>2026-04-24T13:06:17Z</time></trkpt><trkpt lat="40.91332194918002" lon="15.682064416039523"><ele>634.6666666666666</ele><time>2026-04-24T13:06:18Z</time></trkpt><trkpt lat="40.91347795152667" lon="15.681927923949004"><ele>636.3333333333333</ele><time>2026-04-24T13:06:19Z</time></trkpt><trkpt lat="40.913641307637484" lon="15.681806123004598"><ele>638.0</ele><time>2026-04-24T13:06:20Z</time></trkpt><trkpt lat="40.91380979086927" lon="15.681678768482506"><ele>638.0</ele><time>2026-04-24T13:06:21Z</time></trkpt><trkpt lat="40.91397204654627" lon="15.68155136907928"><ele>638.0</ele><time>2026-04-24T13:06:22Z</time></trkpt><trkpt lat="40.91413832027096" lon="15.681407863506108"><ele>638.0</ele><time>2026-04-24T13:06:23Z</time></trkpt><trkpt lat="40.91429575520315" lon="15.681278010542371"><ele>640.0</ele><time>2026-04-24T13:06:24Z</time></trkpt><trkpt lat="40.91445659781747" lon="15.681145602771128"><ele>642.0</ele><time>2026-04-24T13:06:25Z</time></trkpt><trkpt lat="40.914619687740434" lon="15.681012187754595"><ele>644.0</ele><time>2026-04-24T13:06:26Z</time></trkpt><trkpt lat="40.91478772414916" lon="15.680889987057432"><ele>645.3333333333333</ele><time>2026-04-24T13:06:27Z</time></trkpt><trkpt lat="40.91496279769951" lon="15.68078488970069"><ele>646.6666666666666</ele><time>2026-04-24T13:06:28Z</time></trkpt><trkpt lat="40.91514306920762" lon="15.680705593072446"><ele>648.0</ele><time>2026-04-24T13:06:29Z</time></trkpt><trkpt lat="40.91532240976711" lon="15.680633453651215"><ele>649.0</ele><time>2026-04-24T13:06:30Z</time></trkpt><trkpt lat="40.91550160178485" lon="15.68054744966536"><ele>650.0</ele><time>2026-04-24T13:06:31Z</time></trkpt><trkpt lat="40.91568090311444" lon="15.680456994355207"><ele>651.0</ele><time>2026-04-24T13:06:32Z</time></trkpt><trkpt lat="40.9158564108167" lon="15.68037421131911"><ele>651.6666666666666</ele><time>2026-04-24T13:06:33Z</time></trkpt><trkpt lat="40.91604125617415" lon="15.680289514824379"><ele>652.3333333333333</ele><time>2026-04-24T13:06:34Z</time></trkpt><trkpt lat="40.91621227485103" lon="15.680190528327381"><ele>653.0</ele><time>2026-04-24T13:06:35Z</time></trkpt><trkpt lat="40.91638106202122" lon="15.680069666499929"><ele>653.0</ele><time>2026-04-24T13:06:36Z</time></trkpt><trkpt lat="40.916548151061406" lon="15.679936623444915"><ele>653.0</ele><time>2026-04-24T13:06:37Z</time></trkpt><trkpt lat="40.916715397595766" lon="15.679798556536216"><ele>653.0</ele><time>2026-04-24T13:06:38Z</time></trkpt><trkpt lat="40.91687097471811" lon="15.67966033242205"><ele>653.0</ele><time>2026-04-24T13:06:39Z</time></trkpt><trkpt lat="40.91700483039461" lon="15.679526545589834"><ele>653.0</ele><time>2026-04-24T13:06:40Z</time></trkpt><trkpt lat="40.91714114905044" lon="15.679399169138081"><ele>653.0</ele><time>2026-04-24T13:06:41Z</time></trkpt><trkpt lat="40.91726990487205" lon="15.67928635187822"><ele>651.75</ele><time>2026-04-24T13:06:42Z</time></trkpt><trkpt lat="40.91739947674879" lon="15.679194170744628"><ele>650.5</ele><time>2026-04-24T13:06:43Z</time></trkpt><trkpt lat="40.91752500597367" lon="15.679131650129685"><ele>649.25</ele><time>2026-04-24T13:06:44Z</time></trkpt><trkpt lat="40.917645347212726" lon="15.679087189507365"><ele>648.0</ele><time>2026-04-24T13:06:45Z</time></trkpt><trkpt lat="40.917778715836555" lon="15.679036895304648"><ele>647.75</ele><time>2026-04-24T13:06:46Z</time></trkpt><trkpt lat="40.91791889952062" lon="15.678981388684027"><ele>647.5</ele><time>2026-04-24T13:06:47Z</time></trkpt><trkpt lat="40.91806179995603" lon="15.678926728255496"><ele>647.25</ele><time>2026-04-24T13:06:48Z</time></trkpt><trkpt lat="40.91819593061694" lon="15.678877378283568"><ele>647.0</ele><time>2026-04-24T13:06:49Z</time></trkpt><trkpt lat="40.91831695345068" lon="15.678829856520146"><ele>646.25</ele><time>2026-04-24T13:06:50Z</time></trkpt><trkpt lat="40.91843866582079" lon="15.678780668662318"><ele>645.5</ele><time>2026-04-24T13:06:51Z</time></trkpt><trkpt lat="40.91856479693731" lon="15.678735374281619"><ele>644.75</ele><time>2026-04-24T13:06:52Z</time></trkpt><trkpt lat="40.91869452449891" lon="15.678693375663473"><ele>644.0</ele><time>2026-04-24T13:06:53Z</time></trkpt><trkpt lat="40.91882258247602" lon="15.67864457727956"><ele>644.0</ele><time>2026-04-24T13:06:54Z</time></trkpt><trkpt lat="40.91895724217911" lon="15.678591462326503"><ele>644.0</ele><time>2026-04-24T13:06:55Z</time></trkpt><trkpt lat="40.91910172443353" lon="15.67853256988851"><ele>644.0</ele><time>2026-04-24T13:06:56Z</time></trkpt><trkpt lat="40.91924308894097" lon="15.678474748008178"><ele>644.0</ele><time>2026-04-24T13:06:57Z</time></trkpt><trkpt lat="40.91938419491226" lon="15.678417213990937"><ele>643.25</ele><time>2026-04-24T13:06:58Z</time></trkpt><trkpt lat="40.91951488695404" lon="15.678364415519605"><ele>642.5</ele><time>2026-04-24T13:06:59Z</time></trkpt><trkpt lat="40.919636788154584" lon="15.678316983076062"><ele>641.75</ele><time>2026-04-24T13:07:00Z</time></trkpt><trkpt lat="40.91975457246674" lon="15.67827545450084"><ele>641.0</ele><time>2026-04-24T13:07:01Z</time></trkpt><trkpt lat="40.91986490686973" lon="15.678242053376344"><ele>641.0</ele><time>2026-04-24T13:07:02Z</time></trkpt><trkpt lat="40.919961484914026" lon="15.678209594062944"><ele>641.0</ele><time>2026-04-24T13:07:03Z</time></trkpt><trkpt lat="40.92005575827627" lon="15.678172175333401"><ele>641.0</ele><time>2026-04-24T13:07:04Z</time></trkpt><trkpt lat="40.92014727582382" lon="15.678145324176691"><ele>641.0</ele><time>2026-04-24T13:07:05Z</time></trkpt><trkpt lat="40.920240263835055" lon="15.67813039774235"><ele>641.0</ele><time>2026-04-24T13:07:06Z</time></trkpt><trkpt lat="40.92033068078431" lon="15.678121525539666"><ele>641.1666666666666</ele><time>2026-04-24T13:07:07Z</time></trkpt><trkpt lat="40.920413861583384" lon="15.67811521359386"><ele>641.3333333333333</ele><time>2026-04-24T13:07:08Z</time></trkpt><trkpt lat="40.920495216740655" lon="15.678104845568052"><ele>641.5</ele><time>2026-04-24T13:07:09Z</time></trkpt><trkpt lat="40.9205717205608" lon="15.678089743275704"><ele>641.6666666666666</ele><time>2026-04-24T13:07:10Z</time></trkpt><trkpt lat="40.920636141552436" lon="15.678080487920361"><ele>641.8333333333334</ele><time>2026-04-24T13:07:11Z</time></trkpt><trkpt lat="40.92075112730225" lon="15.67808160082993"><ele>642.0</ele><time>2026-04-24T13:07:13Z</time></trkpt><trkpt lat="40.9208622590262" lon="15.67814446131685"><ele>642.2</ele><time>2026-04-24T13:07:15Z</time></trkpt><trkpt lat="40.920954816974024" lon="15.678152983016957"><ele>642.4000000000001</ele><time>2026-04-24T13:07:17Z</time></trkpt><trkpt lat="40.92108765557941" lon="15.678116391823488"><ele>642.5999999999999</ele><time>2026-04-24T13:07:19Z</time></trkpt><trkpt lat="40.92117864516407" lon="15.678105428738503"><ele>642.8</ele><time>2026-04-24T13:07:20Z</time></trkpt><trkpt lat="40.92125660961652" lon="15.678099831885982"><ele>643.0</ele><time>2026-04-24T13:07:21Z</time></trkpt><trkpt lat="40.92132600949085" lon="15.67808624382483"><ele>643.0</ele><time>2026-04-24T13:07:22Z</time></trkpt><trkpt lat="40.921401772532384" lon="15.678072150747003"><ele>643.0</ele><time>2026-04-24T13:07:23Z</time></trkpt><trkpt lat="40.92147286515978" lon="15.678065386274922"><ele>643.0</ele><time>2026-04-24T13:07:24Z</time></trkpt><trkpt lat="40.921593354386474" lon="15.678051896089206"><ele>643.0</ele><time>2026-04-24T13:07:26Z</time></trkpt><trkpt lat="40.92166388030264" lon="15.678047032577666"><ele>643.0</ele><time>2026-04-24T13:07:27Z</time></trkpt><trkpt lat="40.92178175715107" lon="15.678033611773722"><ele>642.8</ele><time>2026-04-24T13:07:29Z</time></trkpt><trkpt lat="40.9218928527714" lon="15.678015239209106"><ele>642.5999999999999</ele><time>2026-04-24T13:07:31Z</time></trkpt><trkpt lat="40.92199792972755" lon="15.678003182650755"><ele>642.4000000000001</ele><time>2026-04-24T13:07:33Z</time></trkpt><trkpt lat="40.922095212090746" lon="15.67799182367723"><ele>642.2</ele><time>2026-04-24T13:07:35Z</time></trkpt><trkpt lat="40.9221610882093" lon="15.67804384390215"><ele>642.0</ele><time>2026-04-24T13:07:38Z</time></trkpt><trkpt lat="40.922226484312574" lon="15.67806990310767"><ele>642.0</ele><time>2026-04-24T13:07:39Z</time></trkpt><trkpt lat="40.922072362508956" lon="15.67813805776618"><ele>642.0</ele><time>2026-04-24T13:07:41Z</time></trkpt><trkpt lat="40.921973302565256" lon="15.678129663243725"><ele>642.0</ele><time>2026-04-24T13:07:43Z</time></trkpt><trkpt lat="40.92194627961568" lon="15.678223334524743"><ele>642.0</ele><time>2026-04-24T13:07:45Z</time></trkpt><trkpt lat="40.92195149823204" lon="15.678313365988398"><ele>642.0</ele><time>2026-04-24T13:07:47Z</time></trkpt><trkpt lat="40.92206746054492" lon="15.678314777723287"><ele>642.0</ele><time>2026-04-24T13:07:48Z</time></trkpt><trkpt lat="40.92216646239537" lon="15.678293836549544"><ele>642.0</ele><time>2026-04-24T13:07:50Z</time></trkpt><trkpt lat="40.92222902058342" lon="15.678277419683505"><ele>642.0</ele><time>2026-04-24T13:07:53Z</time></trkpt><trkpt lat="40.92226614929453" lon="15.678127582152074"><ele>642.0</ele><time>2026-04-24T13:07:54Z</time></trkpt><trkpt lat="40.92225615305373" lon="15.67803108499414"><ele>642.0</ele><time>2026-04-24T13:07:58Z</time></trkpt><trkpt lat="40.92233979985374" lon="15.677952859718985"><ele>642.0</ele><time>2026-04-24T13:08:01Z</time></trkpt><trkpt lat="40.92246770705129" lon="15.677929466426992"><ele>642.0</ele><time>2026-04-24T13:08:03Z</time></trkpt><trkpt lat="40.922591660615005" lon="15.677907728998395"><ele>642.0</ele><time>2026-04-24T13:08:05Z</time></trkpt><trkpt lat="40.922657103829174" lon="15.677889338665647"><ele>642.0</ele><time>2026-04-24T13:08:06Z</time></trkpt><trkpt lat="40.922724576818204" lon="15.677873972524175"><ele>642.0</ele><time>2026-04-24T13:08:07Z</time></trkpt><trkpt lat="40.922802529815705" lon="15.677884600715117"><ele>642.1428571428571</ele><time>2026-04-24T13:08:08Z</time></trkpt><trkpt lat="40.922886824383184" lon="15.677872594450248"><ele>642.2857142857142</ele><time>2026-04-24T13:08:09Z</time></trkpt><trkpt lat="40.92295188549972" lon="15.677863824670858"><ele>642.4285714285713</ele><time>2026-04-24T13:08:10Z</time></trkpt><trkpt lat="40.92302939394046" lon="15.677853234298947"><ele>642.5714285714286</ele><time>2026-04-24T13:08:11Z</time></trkpt><trkpt lat="40.923094859737304" lon="15.677844289375832"><ele>642.7142857142858</ele><time>2026-04-24T13:08:12Z</time></trkpt><trkpt lat="40.923160308649855" lon="15.677835551269826"><ele>642.8571428571428</ele><time>2026-04-24T13:08:13Z</time></trkpt><trkpt lat="40.92323734422872" lon="15.677826662548942"><ele>643.0</ele><time>2026-04-24T13:08:14Z</time></trkpt><trkpt lat="40.923313778347776" lon="15.677817843223732"><ele>643.0</ele><time>2026-04-24T13:08:15Z</time></trkpt><trkpt lat="40.92339670036941" lon="15.677808275296387"><ele>643.0</ele><time>2026-04-24T13:08:16Z</time></trkpt><trkpt lat="40.923475463263706" lon="15.67779918727039"><ele>643.0</ele><time>2026-04-24T13:08:17Z</time></trkpt><trkpt lat="40.92355967906177" lon="15.677789470061972"><ele>643.0</ele><time>2026-04-24T13:08:18Z</time></trkpt><trkpt lat="40.92364647661487" lon="15.677778801300013"><ele>643.0</ele><time>2026-04-24T13:08:19Z</time></trkpt><trkpt lat="40.923730722467425" lon="15.677768367977453"><ele>643.0</ele><time>2026-04-24T13:08:20Z</time></trkpt><trkpt lat="40.923831124974676" lon="15.67775529595044"><ele>643.6666666666667</ele><time>2026-04-24T13:08:21Z</time></trkpt><trkpt lat="40.92389752505395" lon="15.677745694426083"><ele>644.3333333333334</ele><time>2026-04-24T13:08:22Z</time></trkpt><trkpt lat="40.92398463156904" lon="15.677734453449995"><ele>645.0</ele><time>2026-04-24T13:08:23Z</time></trkpt><trkpt lat="40.92405716040279" lon="15.677725093707226"><ele>645.6666666666666</ele><time>2026-04-24T13:08:24Z</time></trkpt><trkpt lat="40.92413810382943" lon="15.67771464803081"><ele>646.3333333333333</ele><time>2026-04-24T13:08:25Z</time></trkpt><trkpt lat="40.92421852447421" lon="15.677703779619652"><ele>647.0</ele><time>2026-04-24T13:08:26Z</time></trkpt><trkpt lat="40.92429263860429" lon="15.677694350118916"><ele>647.3333333333333</ele><time>2026-04-24T13:08:27Z</time></trkpt><trkpt lat="40.92437095255719" lon="15.677684920692698"><ele>647.6666666666666</ele><time>2026-04-24T13:08:28Z</time></trkpt><trkpt lat="40.92444477158746" lon="15.677676100474654"><ele>648.0</ele><time>2026-04-24T13:08:29Z</time></trkpt><trkpt lat="40.92452302546917" lon="15.67766675033977"><ele>648.3333333333334</ele><time>2026-04-24T13:08:30Z</time></trkpt><trkpt lat="40.9246073660394" lon="15.677656694007117"><ele>648.6666666666667</ele><time>2026-04-24T13:08:31Z</time></trkpt><trkpt lat="40.924694984400006" lon="15.677646242741668"><ele>649.0</ele><time>2026-04-24T13:08:32Z</time></trkpt><trkpt lat="40.924791849907805" lon="15.677616156280106"><ele>649.0</ele><time>2026-04-24T13:08:33Z</time></trkpt><trkpt lat="40.92488629224544" lon="15.677623423224174"><ele>649.0</ele><time>2026-04-24T13:08:34Z</time></trkpt><trkpt lat="40.9249758753503" lon="15.677612737600343"><ele>649.0</ele><time>2026-04-24T13:08:35Z</time></trkpt><trkpt lat="40.92506384792051" lon="15.677602022417913"><ele>649.0</ele><time>2026-04-24T13:08:36Z</time></trkpt><trkpt lat="40.92515319305662" lon="15.677590730458279"><ele>649.0</ele><time>2026-04-24T13:08:37Z</time></trkpt><trkpt lat="40.92524168231255" lon="15.677579546629335"><ele>648.8333333333334</ele><time>2026-04-24T13:08:38Z</time></trkpt><trkpt lat="40.92532822853925" lon="15.677560851335341"><ele>648.6666666666667</ele><time>2026-04-24T13:08:39Z</time></trkpt><trkpt lat="40.92541221070353" lon="15.67753943637943"><ele>648.5</ele><time>2026-04-24T13:08:40Z</time></trkpt><trkpt lat="40.92549125903224" lon="15.67751074462381"><ele>648.3333333333334</ele><time>2026-04-24T13:08:41Z</time></trkpt><trkpt lat="40.9255584720231" lon="15.677483744457692"><ele>648.1666666666666</ele><time>2026-04-24T13:08:42Z</time></trkpt><trkpt lat="40.92563198450433" lon="15.677452744601174"><ele>648.0</ele><time>2026-04-24T13:08:43Z</time></trkpt><trkpt lat="40.925708513855035" lon="15.677419513712541"><ele>648.0</ele><time>2026-04-24T13:08:44Z</time></trkpt><trkpt lat="40.92578293460401" lon="15.677387198431145"><ele>648.0</ele><time>2026-04-24T13:08:45Z</time></trkpt><trkpt lat="40.92587448888657" lon="15.677348201215821"><ele>648.0</ele><time>2026-04-24T13:08:46Z</time></trkpt><trkpt lat="40.925952303111295" lon="15.677315319079073"><ele>648.0</ele><time>2026-04-24T13:08:47Z</time></trkpt><trkpt lat="40.92602952406515" lon="15.677284205518438"><ele>648.0</ele><time>2026-04-24T13:08:48Z</time></trkpt><trkpt lat="40.926118609426716" lon="15.677251419156981"><ele>648.0</ele><time>2026-04-24T13:08:49Z</time></trkpt><trkpt lat="40.92620978776666" lon="15.67722258007032"><ele>647.2</ele><time>2026-04-24T13:08:50Z</time></trkpt><trkpt lat="40.92630388068708" lon="15.67715445412685"><ele>646.4</ele><time>2026-04-24T13:08:51Z</time></trkpt><trkpt lat="40.92640633218038" lon="15.677124831962171"><ele>645.6</ele><time>2026-04-24T13:08:52Z</time></trkpt><trkpt lat="40.92651970482826" lon="15.677083146592631"><ele>644.8000000000001</ele><time>2026-04-24T13:08:53Z</time></trkpt><trkpt lat="40.92663576671687" lon="15.677049295620836"><ele>644.0</ele><time>2026-04-24T13:08:54Z</time></trkpt><trkpt lat="40.92675564898241" lon="15.677020538343937"><ele>643.25</ele><time>2026-04-24T13:08:55Z</time></trkpt><trkpt lat="40.92688757489058" lon="15.677011824241935"><ele>642.5</ele><time>2026-04-24T13:08:56Z</time></trkpt><trkpt lat="40.92700461051696" lon="15.676976441388742"><ele>641.75</ele><time>2026-04-24T13:08:57Z</time></trkpt><trkpt lat="40.9271003234388" lon="15.676945852522014"><ele>641.0</ele><time>2026-04-24T13:08:58Z</time></trkpt><trkpt lat="40.927213446054445" lon="15.676908298519404"><ele>642.6666666666666</ele><time>2026-04-24T13:09:00Z</time></trkpt><trkpt lat="40.927281245796095" lon="15.676885790460418"><ele>644.3333333333333</ele><time>2026-04-24T13:09:01Z</time></trkpt><trkpt lat="40.92736543838126" lon="15.676858455124998"><ele>646.0</ele><time>2026-04-24T13:09:02Z</time></trkpt><trkpt lat="40.92745184553765" lon="15.676831821048179"><ele>647.6666666666666</ele><time>2026-04-24T13:09:03Z</time></trkpt><trkpt lat="40.92754574273104" lon="15.676802876673781"><ele>649.3333333333334</ele><time>2026-04-24T13:09:04Z</time></trkpt><trkpt lat="40.92764625102933" lon="15.67677177443519"><ele>651.0</ele><time>2026-04-24T13:09:05Z</time></trkpt><trkpt lat="40.92774504585981" lon="15.676741259501863"><ele>651.5999999999999</ele><time>2026-04-24T13:09:06Z</time></trkpt><trkpt lat="40.927846825920334" lon="15.676707742410702"><ele>652.2</ele><time>2026-04-24T13:09:07Z</time></trkpt><trkpt lat="40.92793694457516" lon="15.676678065531096"><ele>652.8</ele><time>2026-04-24T13:09:08Z</time></trkpt><trkpt lat="40.92801087357233" lon="15.676653720013979"><ele>653.4000000000001</ele><time>2026-04-24T13:09:09Z</time></trkpt><trkpt lat="40.928135083341836" lon="15.676625913793037"><ele>654.0</ele><time>2026-04-24T13:09:11Z</time></trkpt><trkpt lat="40.92820267056647" lon="15.676616800905181"><ele>654.0</ele><time>2026-04-24T13:09:12Z</time></trkpt><trkpt lat="40.928287680158675" lon="15.676609473088444"><ele>654.0</ele><time>2026-04-24T13:09:13Z</time></trkpt><trkpt lat="40.92840087777439" lon="15.676586254168669"><ele>654.0</ele><time>2026-04-24T13:09:14Z</time></trkpt><trkpt lat="40.928517439878796" lon="15.676590440388736"><ele>654.0</ele><time>2026-04-24T13:09:15Z</time></trkpt><trkpt lat="40.928636313342665" lon="15.676576806119238"><ele>654.0</ele><time>2026-04-24T13:09:16Z</time></trkpt><trkpt lat="40.92874166845981" lon="15.676550351398015"><ele>655.0</ele><time>2026-04-24T13:09:17Z</time></trkpt><trkpt lat="40.92884052720962" lon="15.676514747785665"><ele>656.0</ele><time>2026-04-24T13:09:18Z</time></trkpt><trkpt lat="40.928955704232074" lon="15.676463085330925"><ele>657.0</ele><time>2026-04-24T13:09:19Z</time></trkpt><trkpt lat="40.929072171058365" lon="15.676406229012606"><ele>658.0</ele><time>2026-04-24T13:09:20Z</time></trkpt><trkpt lat="40.929203717961535" lon="15.676335515410651"><ele>658.4</ele><time>2026-04-24T13:09:21Z</time></trkpt><trkpt lat="40.92932617849054" lon="15.676262300394322"><ele>658.8</ele><time>2026-04-24T13:09:22Z</time></trkpt><trkpt lat="40.92944485498935" lon="15.676204956532597"><ele>659.2</ele><time>2026-04-24T13:09:23Z</time></trkpt><trkpt lat="40.929530611758125" lon="15.676152039732127"><ele>659.6</ele><time>2026-04-24T13:09:24Z</time></trkpt><trkpt lat="40.929600900649056" lon="15.67611058594573"><ele>660.0</ele><time>2026-04-24T13:09:25Z</time></trkpt><trkpt lat="40.92968021532206" lon="15.676068067420887"><ele>660.0</ele><time>2026-04-24T13:09:27Z</time></trkpt><trkpt lat="40.929769164341906" lon="15.676038216259478"><ele>660.0</ele><time>2026-04-24T13:09:30Z</time></trkpt><trkpt lat="40.92972753987631" lon="15.675783251567964"><ele>660.0</ele><time>2026-04-24T13:09:32Z</time></trkpt><trkpt lat="40.92970541350287" lon="15.675656766268956"><ele>660.0</ele><time>2026-04-24T13:09:33Z</time></trkpt><trkpt lat="40.929644645636756" lon="15.675531114908356"><ele>660.0</ele><time>2026-04-24T13:09:34Z</time></trkpt><trkpt lat="40.92963083611541" lon="15.675389001014299"><ele>660.0</ele><time>2026-04-24T13:09:35Z</time></trkpt><trkpt lat="40.929625836633285" lon="15.67522147134366"><ele>660.0</ele><time>2026-04-24T13:09:36Z</time></trkpt><trkpt lat="40.92962538483871" lon="15.67503367547198"><ele>660.0</ele><time>2026-04-24T13:09:37Z</time></trkpt><trkpt lat="40.92962636106786" lon="15.674831672118724"><ele>659.75</ele><time>2026-04-24T13:09:38Z</time></trkpt><trkpt lat="40.929611277874415" lon="15.674643514204117"><ele>659.5</ele><time>2026-04-24T13:09:39Z</time></trkpt><trkpt lat="40.92961983425626" lon="15.674460383768196"><ele>659.25</ele><time>2026-04-24T13:09:40Z</time></trkpt><trkpt lat="40.92959526669675" lon="15.67429849474151"><ele>659.0</ele><time>2026-04-24T13:09:41Z</time></trkpt><trkpt lat="40.92956544064573" lon="15.674152227772874"><ele>658.8000000000001</ele><time>2026-04-24T13:09:42Z</time></trkpt><trkpt lat="40.929523892933986" lon="15.674035078750162"><ele>658.6</ele><time>2026-04-24T13:09:43Z</time></trkpt><trkpt lat="40.929464516238106" lon="15.673922156469663"><ele>658.4</ele><time>2026-04-24T13:09:44Z</time></trkpt><trkpt lat="40.929394490120615" lon="15.673823905240083"><ele>658.2</ele><time>2026-04-24T13:09:45Z</time></trkpt><trkpt lat="40.929316405816415" lon="15.673749164390077"><ele>658.0</ele><time>2026-04-24T13:09:46Z</time></trkpt><trkpt lat="40.929241888770335" lon="15.67370193571237"><ele>658.4</ele><time>2026-04-24T13:09:47Z</time></trkpt><trkpt lat="40.92914300587704" lon="15.67367907576033"><ele>658.8</ele><time>2026-04-24T13:09:48Z</time></trkpt><trkpt lat="40.929032757840304" lon="15.673671118144043"><ele>659.2</ele><time>2026-04-24T13:09:49Z</time></trkpt><trkpt lat="40.92892273376319" lon="15.673647633769722"><ele>659.6</ele><time>2026-04-24T13:09:50Z</time></trkpt><trkpt lat="40.928810078412795" lon="15.673587353529138"><ele>660.0</ele><time>2026-04-24T13:09:51Z</time></trkpt><trkpt lat="40.92870140274733" lon="15.673470347286917"><ele>660.0</ele><time>2026-04-24T13:09:52Z</time></trkpt><trkpt lat="40.92860556747529" lon="15.673338803839346"><ele>660.0</ele><time>2026-04-24T13:09:53Z</time></trkpt><trkpt lat="40.92850355463167" lon="15.673206327951357"><ele>660.0</ele><time>2026-04-24T13:09:54Z</time></trkpt><trkpt lat="40.92839191830184" lon="15.673072007652301"><ele>660.0</ele><time>2026-04-24T13:09:55Z</time></trkpt><trkpt lat="40.92827405824443" lon="15.67293378845301"><ele>659.75</ele><time>2026-04-24T13:09:56Z</time></trkpt><trkpt lat="40.92815776206378" lon="15.67279221619377"><ele>659.5</ele><time>2026-04-24T13:09:57Z</time></trkpt><trkpt lat="40.928045150677114" lon="15.672669546805816"><ele>659.25</ele><time>2026-04-24T13:09:58Z</time></trkpt><trkpt lat="40.92795003306581" lon="15.67255783106477"><ele>659.0</ele><time>2026-04-24T13:09:59Z</time></trkpt><trkpt lat="40.927878599279275" lon="15.672467240545584"><ele>659.5</ele><time>2026-04-24T13:10:00Z</time></trkpt><trkpt lat="40.92780874470109" lon="15.672386001223469"><ele>660.0</ele><time>2026-04-24T13:10:01Z</time></trkpt><trkpt lat="40.927753552628985" lon="15.672319460288358"><ele>660.5</ele><time>2026-04-24T13:10:02Z</time></trkpt><trkpt lat="40.92771530930972" lon="15.672198144621097"><ele>661.0</ele><time>2026-04-24T13:10:04Z</time></trkpt><trkpt lat="40.92773277700751" lon="15.672091086543869"><ele>661.5</ele><time>2026-04-24T13:10:06Z</time></trkpt><trkpt lat="40.927757801063144" lon="15.671989741570385"><ele>662.0</ele><time>2026-04-24T13:10:08Z</time></trkpt><trkpt lat="40.92768542652343" lon="15.671831767399986"><ele>662.0</ele><time>2026-04-24T13:10:10Z</time></trkpt><trkpt lat="40.9276132128556" lon="15.671739531192578"><ele>662.0</ele><time>2026-04-24T13:10:11Z</time></trkpt><trkpt lat="40.927530534212735" lon="15.67163949853542"><ele>662.0</ele><time>2026-04-24T13:10:12Z</time></trkpt><trkpt lat="40.92743559974744" lon="15.671524732511848"><ele>662.0</ele><time>2026-04-24T13:10:13Z</time></trkpt><trkpt lat="40.92733726924756" lon="15.671394813766115"><ele>662.0</ele><time>2026-04-24T13:10:14Z</time></trkpt><trkpt lat="40.927251493321386" lon="15.671230452048691"><ele>662.0</ele><time>2026-04-24T13:10:15Z</time></trkpt><trkpt lat="40.92714139077518" lon="15.671080592222232"><ele>662.0</ele><time>2026-04-24T13:10:16Z</time></trkpt><trkpt lat="40.92703529096487" lon="15.67095000800725"><ele>662.5</ele><time>2026-04-24T13:10:17Z</time></trkpt><trkpt lat="40.92694870462635" lon="15.67082209582571"><ele>663.0</ele><time>2026-04-24T13:10:18Z</time></trkpt><trkpt lat="40.926858244221755" lon="15.670695164649322"><ele>663.5</ele><time>2026-04-24T13:10:19Z</time></trkpt><trkpt lat="40.92677003116839" lon="15.670578230990843"><ele>664.0</ele><time>2026-04-24T13:10:20Z</time></trkpt><trkpt lat="40.9266887985188" lon="15.67046879069787"><ele>663.0</ele><time>2026-04-24T13:10:21Z</time></trkpt><trkpt lat="40.92661386290505" lon="15.670362576730312"><ele>662.0</ele><time>2026-04-24T13:10:22Z</time></trkpt><trkpt lat="40.926542815219115" lon="15.67026228768757"><ele>661.0</ele><time>2026-04-24T13:10:23Z</time></trkpt><trkpt lat="40.926482504980996" lon="15.670161341548514"><ele>660.0</ele><time>2026-04-24T13:10:24Z</time></trkpt><trkpt lat="40.9264279813374" lon="15.670052592459525"><ele>659.0</ele><time>2026-04-24T13:10:25Z</time></trkpt><trkpt lat="40.9263817895699" lon="15.669945845015548"><ele>659.0</ele><time>2026-04-24T13:10:26Z</time></trkpt><trkpt lat="40.926342294374564" lon="15.669840727567133"><ele>659.0</ele><time>2026-04-24T13:10:27Z</time></trkpt><trkpt lat="40.92631675312851" lon="15.669726384665427"><ele>659.0</ele><time>2026-04-24T13:10:28Z</time></trkpt><trkpt lat="40.92629867389066" lon="15.669626344248986"><ele>659.0</ele><time>2026-04-24T13:10:29Z</time></trkpt><trkpt lat="40.92628278559766" lon="15.669525256293591"><ele>659.0</ele><time>2026-04-24T13:10:30Z</time></trkpt><trkpt lat="40.92628478320888" lon="15.66942729436516"><ele>659.0</ele><time>2026-04-24T13:10:31Z</time></trkpt><trkpt lat="40.9262494257339" lon="15.669352736109557"><ele>658.8333333333333</ele><time>2026-04-24T13:10:32Z</time></trkpt><trkpt lat="40.92618681399801" lon="15.66929864516748"><ele>658.6666666666666</ele><time>2026-04-24T13:10:33Z</time></trkpt><trkpt lat="40.92610391574144" lon="15.669275924263212"><ele>658.5</ele><time>2026-04-24T13:10:34Z</time></trkpt><trkpt lat="40.92603297065028" lon="15.669257230093631"><ele>658.3333333333334</ele><time>2026-04-24T13:10:35Z</time></trkpt><trkpt lat="40.925972850633386" lon="15.669194144918464"><ele>658.1666666666667</ele><time>2026-04-24T13:10:36Z</time></trkpt><trkpt lat="40.9259262721474" lon="15.669102434789338"><ele>658.0</ele><time>2026-04-24T13:10:37Z</time></trkpt><trkpt lat="40.92587809193208" lon="15.669003060728945"><ele>657.8333333333334</ele><time>2026-04-24T13:10:38Z</time></trkpt><trkpt lat="40.92582974716636" lon="15.668911130254982"><ele>657.6666666666667</ele><time>2026-04-24T13:10:39Z</time></trkpt><trkpt lat="40.92577588070543" lon="15.668817788345947"><ele>657.5</ele><time>2026-04-24T13:10:40Z</time></trkpt><trkpt lat="40.92571593616971" lon="15.668732563532151"><ele>657.3333333333334</ele><time>2026-04-24T13:10:41Z</time></trkpt><trkpt lat="40.92565356915905" lon="15.66865222622781"><ele>657.1666666666666</ele><time>2026-04-24T13:10:42Z</time></trkpt><trkpt lat="40.925590062567316" lon="15.668571418253924"><ele>657.0</ele><time>2026-04-24T13:10:43Z</time></trkpt><trkpt lat="40.92551293738289" lon="15.66849616516797"><ele>657.0</ele><time>2026-04-24T13:10:44Z</time></trkpt><trkpt lat="40.925450876410075" lon="15.668420021917136"><ele>657.0</ele><time>2026-04-24T13:10:45Z</time></trkpt><trkpt lat="40.92537295526847" lon="15.668346278449008"><ele>657.0</ele><time>2026-04-24T13:10:46Z</time></trkpt><trkpt lat="40.92529729217481" lon="15.668275063195548"><ele>657.0</ele><time>2026-04-24T13:10:47Z</time></trkpt><trkpt lat="40.92522340034977" lon="15.668207182656124"><ele>657.0</ele><time>2026-04-24T13:10:48Z</time></trkpt><trkpt lat="40.92515749875244" lon="15.668151300755861"><ele>657.0</ele><time>2026-04-24T13:10:49Z</time></trkpt><trkpt lat="40.925089512692146" lon="15.668103070722504"><ele>656.1666666666666</ele><time>2026-04-24T13:10:50Z</time></trkpt><trkpt lat="40.9250162961532" lon="15.668070732980913"><ele>655.3333333333334</ele><time>2026-04-24T13:10:51Z</time></trkpt><trkpt lat="40.92494159205826" lon="15.668059347945347"><ele>654.5</ele><time>2026-04-24T13:10:52Z</time></trkpt><trkpt lat="40.92485928030401" lon="15.668068713110673"><ele>653.6666666666667</ele><time>2026-04-24T13:10:53Z</time></trkpt><trkpt lat="40.92477890388336" lon="15.66810690632313"><ele>652.8333333333334</ele><time>2026-04-24T13:10:54Z</time></trkpt><trkpt lat="40.924711227719364" lon="15.66819045089573"><ele>652.0</ele><time>2026-04-24T13:10:55Z</time></trkpt><trkpt lat="40.924660251811964" lon="15.66830117042894"><ele>652.0</ele><time>2026-04-24T13:10:56Z</time></trkpt><trkpt lat="40.9246383221345" lon="15.668438245129506"><ele>652.0</ele><time>2026-04-24T13:10:57Z</time></trkpt><trkpt lat="40.9246341852635" lon="15.668576260671825"><ele>652.0</ele><time>2026-04-24T13:10:58Z</time></trkpt><trkpt lat="40.92465338409679" lon="15.668713031120346"><ele>652.0</ele><time>2026-04-24T13:10:59Z</time></trkpt><trkpt lat="40.92467650831289" lon="15.668832307870888"><ele>652.0</ele><time>2026-04-24T13:11:00Z</time></trkpt><trkpt lat="40.92469790292858" lon="15.668923950092044"><ele>651.0</ele><time>2026-04-24T13:11:01Z</time></trkpt><trkpt lat="40.92471653970076" lon="15.66900802762203"><ele>650.0</ele><time>2026-04-24T13:11:02Z</time></trkpt><trkpt lat="40.92475675544965" lon="15.669182586602595"><ele>649.0</ele><time>2026-04-24T13:11:04Z</time></trkpt><trkpt lat="40.92477291364987" lon="15.669285079892823"><ele>648.0</ele><time>2026-04-24T13:11:05Z</time></trkpt><trkpt lat="40.924794435099145" lon="15.669386164953735"><ele>647.0</ele><time>2026-04-24T13:11:06Z</time></trkpt><trkpt lat="40.92480289384487" lon="15.669496409657437"><ele>646.0</ele><time>2026-04-24T13:11:07Z</time></trkpt><trkpt lat="40.92475221511017" lon="15.669600450697889"><ele>646.0</ele><time>2026-04-24T13:11:08Z</time></trkpt><trkpt lat="40.92468990746022" lon="15.669691660999417"><ele>646.0</ele><time>2026-04-24T13:11:09Z</time></trkpt><trkpt lat="40.92459801303792" lon="15.66974973386057"><ele>646.0</ele><time>2026-04-24T13:11:10Z</time></trkpt><trkpt lat="40.92449718767335" lon="15.669763384219452"><ele>646.0</ele><time>2026-04-24T13:11:11Z</time></trkpt><trkpt lat="40.924416969361396" lon="15.669703838596545"><ele>646.0</ele><time>2026-04-24T13:11:12Z</time></trkpt><trkpt lat="40.92432743114737" lon="15.669650775041847"><ele>644.4</ele><time>2026-04-24T13:11:13Z</time></trkpt><trkpt lat="40.924227891622316" lon="15.66959733600514"><ele>642.8</ele><time>2026-04-24T13:11:14Z</time></trkpt><trkpt lat="40.92413327858127" lon="15.66953594477066"><ele>641.1999999999999</ele><time>2026-04-24T13:11:15Z</time></trkpt><trkpt lat="40.924044858534884" lon="15.669483688279522"><ele>639.5999999999999</ele><time>2026-04-24T13:11:16Z</time></trkpt><trkpt lat="40.92395209691654" lon="15.669433873272519"><ele>638.0</ele><time>2026-04-24T13:11:17Z</time></trkpt><trkpt lat="40.92386346387467" lon="15.66938312830548"><ele>638.0</ele><time>2026-04-24T13:11:18Z</time></trkpt><trkpt lat="40.9237762096959" lon="15.669334935853042"><ele>638.0</ele><time>2026-04-24T13:11:19Z</time></trkpt><trkpt lat="40.92368762795601" lon="15.669281525312375"><ele>638.0</ele><time>2026-04-24T13:11:20Z</time></trkpt><trkpt lat="40.92359018782691" lon="15.669223585742298"><ele>638.0</ele><time>2026-04-24T13:11:21Z</time></trkpt><trkpt lat="40.923499798687835" lon="15.669165159779421"><ele>638.0</ele><time>2026-04-24T13:11:22Z</time></trkpt><trkpt lat="40.923408364777956" lon="15.669095547410233"><ele>636.4</ele><time>2026-04-24T13:11:23Z</time></trkpt><trkpt lat="40.923322212191216" lon="15.669031682835529"><ele>634.8</ele><time>2026-04-24T13:11:24Z</time></trkpt><trkpt lat="40.923222614902414" lon="15.66896297627917"><ele>633.2</ele><time>2026-04-24T13:11:25Z</time></trkpt><trkpt lat="40.92312748766578" lon="15.668888705172659"><ele>631.6</ele><time>2026-04-24T13:11:26Z</time></trkpt><trkpt lat="40.923035313607826" lon="15.668807664895208"><ele>630.0</ele><time>2026-04-24T13:11:27Z</time></trkpt><trkpt lat="40.92294268805455" lon="15.668728703970144"><ele>630.0</ele><time>2026-04-24T13:11:28Z</time></trkpt><trkpt lat="40.92285110282786" lon="15.668656654585657"><ele>630.0</ele><time>2026-04-24T13:11:29Z</time></trkpt><trkpt lat="40.922759326551656" lon="15.668589694387757"><ele>630.0</ele><time>2026-04-24T13:11:30Z</time></trkpt><trkpt lat="40.92266542135695" lon="15.66852001289351"><ele>630.0</ele><time>2026-04-24T13:11:31Z</time></trkpt><trkpt lat="40.922581924642785" lon="15.668450880790962"><ele>630.0</ele><time>2026-04-24T13:11:32Z</time></trkpt><trkpt lat="40.92250302252561" lon="15.668385650989007"><ele>629.0</ele><time>2026-04-24T13:11:33Z</time></trkpt><trkpt lat="40.92243289421445" lon="15.668326406088207"><ele>628.0</ele><time>2026-04-24T13:11:34Z</time></trkpt><trkpt lat="40.922367228570856" lon="15.668270652653042"><ele>627.0</ele><time>2026-04-24T13:11:35Z</time></trkpt><trkpt lat="40.92230840109622" lon="15.668222680736289"><ele>626.0</ele><time>2026-04-24T13:11:36Z</time></trkpt><trkpt lat="40.92221262195151" lon="15.668148011066693"><ele>625.0</ele><time>2026-04-24T13:11:38Z</time></trkpt><trkpt lat="40.922123740049294" lon="15.668066637357432"><ele>625.0</ele><time>2026-04-24T13:11:40Z</time></trkpt><trkpt lat="40.92204965832209" lon="15.668007049380574"><ele>625.0</ele><time>2026-04-24T13:11:42Z</time></trkpt><trkpt lat="40.92195564013553" lon="15.668028334456038"><ele>625.0</ele><time>2026-04-24T13:11:44Z</time></trkpt><trkpt lat="40.921916964372436" lon="15.668139115898862"><ele>625.0</ele><time>2026-04-24T13:11:45Z</time></trkpt><trkpt lat="40.92188141984959" lon="15.668241648713193"><ele>625.0</ele><time>2026-04-24T13:11:46Z</time></trkpt><trkpt lat="40.921852416880164" lon="15.668346162155038"><ele>625.0</ele><time>2026-04-24T13:11:47Z</time></trkpt><trkpt lat="40.92182532211524" lon="15.66845972065693"><ele>625.0</ele><time>2026-04-24T13:11:48Z</time></trkpt><trkpt lat="40.92178416772297" lon="15.668562126445309"><ele>625.0</ele><time>2026-04-24T13:11:49Z</time></trkpt><trkpt lat="40.921760254301105" lon="15.66867667142755"><ele>625.0</ele><time>2026-04-24T13:11:50Z</time></trkpt><trkpt lat="40.92174180961714" lon="15.66879121001635"><ele>625.0</ele><time>2026-04-24T13:11:51Z</time></trkpt><trkpt lat="40.92172744704344" lon="15.668893046573341"><ele>625.0</ele><time>2026-04-24T13:11:52Z</time></trkpt><trkpt lat="40.92171323232981" lon="15.668993834744276"><ele>625.0</ele><time>2026-04-24T13:11:53Z</time></trkpt><trkpt lat="40.921699078735806" lon="15.669091182483879"><ele>624.1666666666667</ele><time>2026-04-24T13:11:54Z</time></trkpt><trkpt lat="40.921685717687765" lon="15.669181330764346"><ele>623.3333333333334</ele><time>2026-04-24T13:11:55Z</time></trkpt><trkpt lat="40.92166390919056" lon="15.669323527741268"><ele>622.5</ele><time>2026-04-24T13:11:57Z</time></trkpt><trkpt lat="40.92164680180547" lon="15.669425985458906"><ele>621.6666666666666</ele><time>2026-04-24T13:11:59Z</time></trkpt><trkpt lat="40.9216422615481" lon="15.66951717799765"><ele>620.8333333333333</ele><time>2026-04-24T13:12:01Z</time></trkpt><trkpt lat="40.921608865689386" lon="15.669604478278945"><ele>620.0</ele><time>2026-04-24T13:12:03Z</time></trkpt><trkpt lat="40.92155075430193" lon="15.669681169083384"><ele>620.0</ele><time>2026-04-24T13:12:05Z</time></trkpt><trkpt lat="40.92148490987341" lon="15.66976874503921"><ele>620.0</ele><time>2026-04-24T13:12:07Z</time></trkpt><trkpt lat="40.921398497223635" lon="15.669858430150022"><ele>620.0</ele><time>2026-04-24T13:12:09Z</time></trkpt><trkpt lat="40.92136021023472" lon="15.669933494279263"><ele>620.0</ele><time>2026-04-24T13:12:10Z</time></trkpt><trkpt lat="40.92133440454969" lon="15.67003038197908"><ele>620.0</ele><time>2026-04-24T13:12:11Z</time></trkpt><trkpt lat="40.92131873876996" lon="15.67015998708795"><ele>620.0</ele><time>2026-04-24T13:12:12Z</time></trkpt><trkpt lat="40.92130321071225" lon="15.67031273270389"><ele>620.5</ele><time>2026-04-24T13:12:13Z</time></trkpt><trkpt lat="40.921280642569165" lon="15.67047640850403"><ele>621.0</ele><time>2026-04-24T13:12:14Z</time></trkpt><trkpt lat="40.92125836231102" lon="15.6706581609632"><ele>621.5</ele><time>2026-04-24T13:12:15Z</time></trkpt><trkpt lat="40.9212138854216" lon="15.67084291868599"><ele>622.0</ele><time>2026-04-24T13:12:16Z</time></trkpt><trkpt lat="40.92118875200346" lon="15.671011491488475"><ele>622.4</ele><time>2026-04-24T13:12:17Z</time></trkpt><trkpt lat="40.92116843401122" lon="15.671147766766298"><ele>622.8000000000001</ele><time>2026-04-24T13:12:18Z</time></trkpt><trkpt lat="40.921150026604266" lon="15.671271227441562"><ele>623.2</ele><time>2026-04-24T13:12:19Z</time></trkpt><trkpt lat="40.921148435689084" lon="15.671393901659648"><ele>623.6</ele><time>2026-04-24T13:12:20Z</time></trkpt><trkpt lat="40.92112847534157" lon="15.67152893798524"><ele>624.0</ele><time>2026-04-24T13:12:21Z</time></trkpt><trkpt lat="40.92110801704022" lon="15.6716643728267"><ele>624.0</ele><time>2026-04-24T13:12:22Z</time></trkpt><trkpt lat="40.92109008643698" lon="15.671782197589383"><ele>624.0</ele><time>2026-04-24T13:12:23Z</time></trkpt><trkpt lat="40.92107687074448" lon="15.67188808981953"><ele>624.0</ele><time>2026-04-24T13:12:24Z</time></trkpt><trkpt lat="40.92105970065122" lon="15.671977441168908"><ele>624.0</ele><time>2026-04-24T13:12:25Z</time></trkpt><trkpt lat="40.92103097597585" lon="15.672098889862985"><ele>624.0</ele><time>2026-04-24T13:12:27Z</time></trkpt><trkpt lat="40.92116689759871" lon="15.672172103983403"><ele>623.5</ele><time>2026-04-24T13:12:29Z</time></trkpt><trkpt lat="40.921250109429096" lon="15.672171083275206"><ele>623.0</ele><time>2026-04-24T13:12:30Z</time></trkpt><trkpt lat="40.92131333856365" lon="15.672214009268577"><ele>622.5</ele><time>2026-04-24T13:12:31Z</time></trkpt><trkpt lat="40.921386866565925" lon="15.672265238014031"><ele>622.0</ele><time>2026-04-24T13:12:32Z</time></trkpt><trkpt lat="40.9214372134142" lon="15.672330108977066"><ele>621.5</ele><time>2026-04-24T13:12:33Z</time></trkpt><trkpt lat="40.92141831480429" lon="15.672495342300685"><ele>621.0</ele><time>2026-04-24T13:12:35Z</time></trkpt><trkpt lat="40.92141318330193" lon="15.672624701032289"><ele>621.0</ele><time>2026-04-24T13:12:37Z</time></trkpt><trkpt lat="40.92162259716714" lon="15.67269310962693"><ele>621.0</ele><time>2026-04-24T13:12:38Z</time></trkpt><trkpt lat="40.921691568406565" lon="15.67272909347156"><ele>621.0</ele><time>2026-04-24T13:12:39Z</time></trkpt><trkpt lat="40.921756204059506" lon="15.672751721389105"><ele>621.0</ele><time>2026-04-24T13:12:40Z</time></trkpt><trkpt lat="40.921838662644056" lon="15.672767907522259"><ele>621.0</ele><time>2026-04-24T13:12:41Z</time></trkpt><trkpt lat="40.92191418886515" lon="15.672803920783608"><ele>621.0</ele><time>2026-04-24T13:12:42Z</time></trkpt><trkpt lat="40.921992265823555" lon="15.672823023423215"><ele>621.0</ele><time>2026-04-24T13:12:43Z</time></trkpt><trkpt lat="40.92206815559429" lon="15.672847355801105"><ele>621.0</ele><time>2026-04-24T13:12:44Z</time></trkpt><trkpt lat="40.92214126842235" lon="15.67287237679371"><ele>621.0</ele><time>2026-04-24T13:12:45Z</time></trkpt><trkpt lat="40.92221361321126" lon="15.672881541639464"><ele>621.0</ele><time>2026-04-24T13:12:46Z</time></trkpt><trkpt lat="40.92229473800713" lon="15.672896296856068"><ele>621.0</ele><time>2026-04-24T13:12:47Z</time></trkpt><trkpt lat="40.92237918987753" lon="15.672915278435218"><ele>621.0</ele><time>2026-04-24T13:12:48Z</time></trkpt><trkpt lat="40.922462466087524" lon="15.672933445988594"><ele>621.0</ele><time>2026-04-24T13:12:49Z</time></trkpt><trkpt lat="40.92255188046294" lon="15.672944267422931"><ele>621.0</ele><time>2026-04-24T13:12:50Z</time></trkpt><trkpt lat="40.92264284347536" lon="15.672956191408753"><ele>621.0</ele><time>2026-04-24T13:12:51Z</time></trkpt><trkpt lat="40.92272458529379" lon="15.67295288195825"><ele>621.0</ele><time>2026-04-24T13:12:52Z</time></trkpt><trkpt lat="40.922799770637894" lon="15.672960843973044"><ele>621.0</ele><time>2026-04-24T13:12:53Z</time></trkpt><trkpt lat="40.92286296567084" lon="15.67297158305953"><ele>621.4</ele><time>2026-04-24T13:12:54Z</time></trkpt><trkpt lat="40.92293186705954" lon="15.672965562302029"><ele>621.8</ele><time>2026-04-24T13:12:55Z</time></trkpt><trkpt lat="40.92300166708064" lon="15.672984756098078"><ele>622.1999999999999</ele><time>2026-04-24T13:12:56Z</time></trkpt><trkpt lat="40.923095586612305" lon="15.67301675975324"><ele>622.6</ele><time>2026-04-24T13:12:57Z</time></trkpt><trkpt lat="40.923204608895084" lon="15.673082685928712"><ele>623.0</ele><time>2026-04-24T13:12:58Z</time></trkpt><trkpt lat="40.923319953980084" lon="15.673144065387898"><ele>623.0</ele><time>2026-04-24T13:12:59Z</time></trkpt><trkpt lat="40.9234403360621" lon="15.673235898263462"><ele>623.0</ele><time>2026-04-24T13:13:00Z</time></trkpt><trkpt lat="40.92357787927475" lon="15.673329582739116"><ele>623.0</ele><time>2026-04-24T13:13:01Z</time></trkpt><trkpt lat="40.923698350291396" lon="15.673402230763386"><ele>623.0</ele><time>2026-04-24T13:13:02Z</time></trkpt><trkpt lat="40.92380661031051" lon="15.673462804138783"><ele>623.0</ele><time>2026-04-24T13:13:03Z</time></trkpt><trkpt lat="40.923897633418306" lon="15.673529906018175"><ele>623.0</ele><time>2026-04-24T13:13:04Z</time></trkpt><trkpt lat="40.9239880677503" lon="15.67357789318246"><ele>623.0</ele><time>2026-04-24T13:13:05Z</time></trkpt><trkpt lat="40.92405255246065" lon="15.673673096844947"><ele>623.0</ele><time>2026-04-24T13:13:06Z</time></trkpt><trkpt lat="40.92411526822845" lon="15.673726179016313"><ele>623.0</ele><time>2026-04-24T13:13:07Z</time></trkpt><trkpt lat="40.924197579149585" lon="15.673784603821401"><ele>623.4</ele><time>2026-04-24T13:13:09Z</time></trkpt><trkpt lat="40.924268785212085" lon="15.673842902211478"><ele>623.8</ele><time>2026-04-24T13:13:12Z</time></trkpt><trkpt lat="40.92433390796803" lon="15.673891646583092"><ele>624.2</ele><time>2026-04-24T13:13:15Z</time></trkpt><trkpt lat="40.92423505922742" lon="15.674090100831354"><ele>624.6</ele><time>2026-04-24T13:13:17Z</time></trkpt><trkpt lat="40.92417875284539" lon="15.674129945296594"><ele>625.0</ele><time>2026-04-24T13:13:18Z</time></trkpt><trkpt lat="40.92411174315515" lon="15.674151928272549"><ele>625.0</ele><time>2026-04-24T13:13:19Z</time></trkpt><trkpt lat="40.92405261487589" lon="15.674209637555519"><ele>625.0</ele><time>2026-04-24T13:13:21Z</time></trkpt><trkpt lat="40.924118883190935" lon="15.674280263745832"><ele>625.0</ele><time>2026-04-24T13:13:23Z</time></trkpt><trkpt lat="40.92418618223632" lon="15.674330840834111"><ele>625.0</ele><time>2026-04-24T13:13:24Z</time></trkpt><trkpt lat="40.92428312939446" lon="15.674376669399384"><ele>625.0</ele><time>2026-04-24T13:13:25Z</time></trkpt><trkpt lat="40.924377016200495" lon="15.674443766611455"><ele>625.0</ele><time>2026-04-24T13:13:26Z</time></trkpt><trkpt lat="40.9244977583912" lon="15.674465558061188"><ele>627.3333333333334</ele><time>2026-04-24T13:13:27Z</time></trkpt><trkpt lat="40.92460148239146" lon="15.674472970929743"><ele>629.6666666666667</ele><time>2026-04-24T13:13:28Z</time></trkpt><trkpt lat="40.924672688415214" lon="15.674471344376192"><ele>632.0</ele><time>2026-04-24T13:13:29Z</time></trkpt><trkpt lat="40.924785175624066" lon="15.674459031986778"><ele>634.3333333333334</ele><time>2026-04-24T13:13:31Z</time></trkpt><trkpt lat="40.924848432460635" lon="15.67445129083315"><ele>636.6666666666666</ele><time>2026-04-24T13:13:32Z</time></trkpt><trkpt lat="40.924915538160874" lon="15.674487526968722"><ele>639.0</ele><time>2026-04-24T13:13:33Z</time></trkpt><trkpt lat="40.92500776124174" lon="15.674574467508492"><ele>638.8</ele><time>2026-04-24T13:13:35Z</time></trkpt><trkpt lat="40.925074748608026" lon="15.67464043222905"><ele>638.5999999999999</ele><time>2026-04-24T13:13:37Z</time></trkpt><trkpt lat="40.92511613958574" lon="15.674754051481994"><ele>638.4</ele><time>2026-04-24T13:13:39Z</time></trkpt><trkpt lat="40.92517349219759" lon="15.674887769814665"><ele>638.1999999999999</ele><time>2026-04-24T13:13:41Z</time></trkpt><trkpt lat="40.92524151796477" lon="15.67495861394628"><ele>638.0</ele><time>2026-04-24T13:13:42Z</time></trkpt><trkpt lat="40.925325707615585" lon="15.67501930361763"><ele>638.0</ele><time>2026-04-24T13:13:43Z</time></trkpt><trkpt lat="40.92540773176185" lon="15.675078491988256"><ele>638.0</ele><time>2026-04-24T13:13:44Z</time></trkpt><trkpt lat="40.92547159088068" lon="15.675127284003032"><ele>638.0</ele><time>2026-04-24T13:13:45Z</time></trkpt><trkpt lat="40.92552925914625" lon="15.675180636298968"><ele>638.0</ele><time>2026-04-24T13:13:46Z</time></trkpt><trkpt lat="40.925587863641105" lon="15.675230633337414"><ele>638.0</ele><time>2026-04-24T13:13:47Z</time></trkpt><trkpt lat="40.92569142467231" lon="15.675300057219964"><ele>638.0</ele><time>2026-04-24T13:13:49Z</time></trkpt><trkpt lat="40.925784890730185" lon="15.675374579009988"><ele>639.0</ele><time>2026-04-24T13:13:51Z</time></trkpt><trkpt lat="40.92584191172622" lon="15.675430431516391"><ele>640.0</ele><time>2026-04-24T13:13:53Z</time></trkpt><trkpt lat="40.92590385065742" lon="15.675473666810303"><ele>641.0</ele><time>2026-04-24T13:14:00Z</time></trkpt><trkpt lat="40.92610306163265" lon="15.675493592486172"><ele>642.0</ele><time>2026-04-24T13:14:03Z</time></trkpt><trkpt lat="40.9262405811903" lon="15.675560554447456"><ele>639.0</ele><time>2026-04-24T13:14:04Z</time></trkpt><trkpt lat="40.92642887406706" lon="15.675039368771152"><ele>636.0</ele><time>2026-04-24T13:14:07Z</time></trkpt><trkpt lat="40.92646199462564" lon="15.674922319683645"><ele>636.0</ele><time>2026-04-24T13:14:14Z</time></trkpt><trkpt lat="40.92649792951098" lon="15.67482074364643"><ele>636.0</ele><time>2026-04-24T13:14:15Z</time></trkpt><trkpt lat="40.92654605469041" lon="15.674661729186814"><ele>636.0</ele><time>2026-04-24T13:14:17Z</time></trkpt><trkpt lat="40.926553555460394" lon="15.674576197663802"><ele>636.0</ele><time>2026-04-24T13:14:19Z</time></trkpt><trkpt lat="40.92647480107376" lon="15.674604188478057"><ele>636.0</ele><time>2026-04-24T13:14:20Z</time></trkpt><trkpt lat="40.92658689564702" lon="15.67461832128951"><ele>636.0</ele><time>2026-04-24T13:14:22Z</time></trkpt><trkpt lat="40.92665641814355" lon="15.674649738360545"><ele>636.0</ele><time>2026-04-24T13:14:23Z</time></trkpt><trkpt lat="40.926722523459" lon="15.67466062303586"><ele>636.0</ele><time>2026-04-24T13:14:24Z</time></trkpt><trkpt lat="40.926829523012685" lon="15.674691699509545"><ele>636.0</ele><time>2026-04-24T13:14:25Z</time></trkpt><trkpt lat="40.92694624230964" lon="15.674723404291159"><ele>636.0</ele><time>2026-04-24T13:14:26Z</time></trkpt><trkpt lat="40.927069005206086" lon="15.674744180050666"><ele>637.4</ele><time>2026-04-24T13:14:27Z</time></trkpt><trkpt lat="40.92716356438215" lon="15.674748907703131"><ele>638.8</ele><time>2026-04-24T13:14:28Z</time></trkpt><trkpt lat="40.927289169060515" lon="15.674781557951963"><ele>640.1999999999999</ele><time>2026-04-24T13:14:29Z</time></trkpt><trkpt lat="40.92737670347717" lon="15.67480100216575"><ele>641.6</ele><time>2026-04-24T13:14:30Z</time></trkpt><trkpt lat="40.92744173056383" lon="15.674806570419445"><ele>643.0</ele><time>2026-04-24T13:14:32Z</time></trkpt><trkpt lat="40.927427932280146" lon="15.67495680782707"><ele>643.0</ele><time>2026-04-24T13:14:36Z</time></trkpt><trkpt lat="40.92743749625932" lon="15.675047715801652"><ele>643.0</ele><time>2026-04-24T13:14:37Z</time></trkpt><trkpt lat="40.9274828109209" lon="15.675169419781371"><ele>643.0</ele><time>2026-04-24T13:14:39Z</time></trkpt><trkpt lat="40.927502635483904" lon="15.675280197693274"><ele>643.0</ele><time>2026-04-24T13:14:41Z</time></trkpt><trkpt lat="40.92757327002417" lon="15.675354992688181"><ele>643.0</ele><time>2026-04-24T13:14:44Z</time></trkpt><trkpt lat="40.92766101988553" lon="15.67532155356714"><ele>643.0</ele><time>2026-04-24T13:14:46Z</time></trkpt><trkpt lat="40.9277394652791" lon="15.675316229730267"><ele>644.2</ele><time>2026-04-24T13:14:48Z</time></trkpt><trkpt lat="40.927819800836474" lon="15.675263297815723"><ele>645.4</ele><time>2026-04-24T13:14:54Z</time></trkpt><trkpt lat="40.92789308558411" lon="15.675251914878544"><ele>646.6</ele><time>2026-04-24T13:15:08Z</time></trkpt><trkpt lat="40.92799355427946" lon="15.675223855279546"><ele>647.8000000000001</ele><time>2026-04-24T13:15:10Z</time></trkpt><trkpt lat="40.92809291194702" lon="15.675173982172993"><ele>649.0</ele><time>2026-04-24T13:15:12Z</time></trkpt><trkpt lat="40.92819184229239" lon="15.675136753501187"><ele>649.0</ele><time>2026-04-24T13:15:14Z</time></trkpt><trkpt lat="40.928287137111724" lon="15.67510698799799"><ele>649.0</ele><time>2026-04-24T13:15:16Z</time></trkpt><trkpt lat="40.92832188359201" lon="15.674986705767285"><ele>649.0</ele><time>2026-04-24T13:15:18Z</time></trkpt><trkpt lat="40.928292421331015" lon="15.67489523807344"><ele>649.0</ele><time>2026-04-24T13:15:19Z</time></trkpt><trkpt lat="40.92823059276621" lon="15.674784099247688"><ele>649.0</ele><time>2026-04-24T13:15:20Z</time></trkpt><trkpt lat="40.92818280749046" lon="15.674645125248333"><ele>649.0</ele><time>2026-04-24T13:15:21Z</time></trkpt><trkpt lat="40.928167970391925" lon="15.674520419285562"><ele>649.0</ele><time>2026-04-24T13:15:22Z</time></trkpt><trkpt lat="40.92813140849888" lon="15.674413755974442"><ele>649.0</ele><time>2026-04-24T13:15:24Z</time></trkpt><trkpt lat="40.92823260459806" lon="15.674326788263482"><ele>649.0</ele><time>2026-04-24T13:15:29Z</time></trkpt><trkpt lat="40.92828948372007" lon="15.674284752653916"><ele>649.0</ele><time>2026-04-24T13:15:30Z</time></trkpt><trkpt lat="40.92840214948764" lon="15.674253765422433"><ele>650.0</ele><time>2026-04-24T13:15:32Z</time></trkpt><trkpt lat="40.928514118474254" lon="15.674197986588354"><ele>651.0</ele><time>2026-04-24T13:15:34Z</time></trkpt><trkpt lat="40.92863043917881" lon="15.674155316745722"><ele>652.0</ele><time>2026-04-24T13:15:36Z</time></trkpt><trkpt lat="40.928691743210464" lon="15.6741301748453"><ele>653.0</ele><time>2026-04-24T13:15:37Z</time></trkpt><trkpt lat="40.928809054356826" lon="15.674085614756565"><ele>654.0</ele><time>2026-04-24T13:15:39Z</time></trkpt><trkpt lat="40.92891787625064" lon="15.674051381698538"><ele>654.0</ele><time>2026-04-24T13:15:41Z</time></trkpt><trkpt lat="40.92903384309863" lon="15.674012035368827"><ele>654.0</ele><time>2026-04-24T13:15:43Z</time></trkpt><trkpt lat="40.929143440116846" lon="15.673970444025894"><ele>654.0</ele><time>2026-04-24T13:15:45Z</time></trkpt><trkpt lat="40.929240027258786" lon="15.673954278784025"><ele>654.0</ele><time>2026-04-24T13:15:47Z</time></trkpt><trkpt lat="40.929333808215084" lon="15.673943359979441"><ele>654.0</ele><time>2026-04-24T13:15:49Z</time></trkpt><trkpt lat="40.92940066128378" lon="15.673922818508458"><ele>654.8000000000001</ele><time>2026-04-24T13:15:51Z</time></trkpt><trkpt lat="40.92947691638788" lon="15.673946596607996"><ele>655.6</ele><time>2026-04-24T13:15:55Z</time></trkpt><trkpt lat="40.929544772378875" lon="15.673948441643086"><ele>656.4</ele><time>2026-04-24T13:15:56Z</time></trkpt><trkpt lat="40.92963023194888" lon="15.673895193523569"><ele>657.2</ele><time>2026-04-24T13:15:57Z</time></trkpt><trkpt lat="40.929720173328725" lon="15.673835010125378"><ele>658.0</ele><time>2026-04-24T13:15:58Z</time></trkpt><trkpt lat="40.929810505707465" lon="15.673729061883417"><ele>658.0</ele><time>2026-04-24T13:15:59Z</time></trkpt><trkpt lat="40.92990015893637" lon="15.673626088351739"><ele>658.0</ele><time>2026-04-24T13:16:00Z</time></trkpt><trkpt lat="40.929977214876104" lon="15.673508567513565"><ele>658.0</ele><time>2026-04-24T13:16:01Z</time></trkpt><trkpt lat="40.93006212871945" lon="15.67338851553763"><ele>658.0</ele><time>2026-04-24T13:16:02Z</time></trkpt><trkpt lat="40.93014005209554" lon="15.673278177041981"><ele>658.75</ele><time>2026-04-24T13:16:03Z</time></trkpt><trkpt lat="40.93020950419745" lon="15.673185727178566"><ele>659.5</ele><time>2026-04-24T13:16:04Z</time></trkpt><trkpt lat="40.93029250461392" lon="15.67308478251123"><ele>660.25</ele><time>2026-04-24T13:16:05Z</time></trkpt><trkpt lat="40.93038063601156" lon="15.67297635773597"><ele>661.0</ele><time>2026-04-24T13:16:06Z</time></trkpt><trkpt lat="40.93047507572146" lon="15.672856052042611"><ele>661.0</ele><time>2026-04-24T13:16:07Z</time></trkpt><trkpt lat="40.93055933380476" lon="15.672739063431031"><ele>661.0</ele><time>2026-04-24T13:16:08Z</time></trkpt><trkpt lat="40.93064352655175" lon="15.672611025019698"><ele>661.0</ele><time>2026-04-24T13:16:09Z</time></trkpt><trkpt lat="40.93070624212147" lon="15.67250335364283"><ele>661.0</ele><time>2026-04-24T13:16:10Z</time></trkpt><trkpt lat="40.9307524218175" lon="15.672442661330319"><ele>661.0</ele><time>2026-04-24T13:16:11Z</time></trkpt><trkpt lat="40.930805311228895" lon="15.672393330925654"><ele>661.0</ele><time>2026-04-24T13:16:14Z</time></trkpt><trkpt lat="40.93083134497452" lon="15.672317303278117"><ele>661.0</ele><time>2026-04-24T13:16:22Z</time></trkpt><trkpt lat="40.930698658286836" lon="15.672249037490706"><ele>661.0</ele><time>2026-04-24T13:16:24Z</time></trkpt><trkpt lat="40.93060233528444" lon="15.672248470728295"><ele>661.0</ele><time>2026-04-24T13:16:25Z</time></trkpt><trkpt lat="40.93049207956681" lon="15.672257012496372"><ele>661.0</ele><time>2026-04-24T13:16:26Z</time></trkpt><trkpt lat="40.9303727223786" lon="15.672273605193313"><ele>661.0</ele><time>2026-04-24T13:16:27Z</time></trkpt><trkpt lat="40.93024995412418" lon="15.672289564935769"><ele>661.0</ele><time>2026-04-24T13:16:28Z</time></trkpt><trkpt lat="40.93011034335411" lon="15.672309546252379"><ele>661.0</ele><time>2026-04-24T13:16:29Z</time></trkpt><trkpt lat="40.92997014925769" lon="15.672347279387214"><ele>661.0</ele><time>2026-04-24T13:16:30Z</time></trkpt><trkpt lat="40.92982134839615" lon="15.672376917782406"><ele>662.0</ele><time>2026-04-24T13:16:31Z</time></trkpt><trkpt lat="40.929667324250886" lon="15.672392315372818"><ele>663.0</ele><time>2026-04-24T13:16:32Z</time></trkpt><trkpt lat="40.92951548753577" lon="15.672405278889343"><ele>664.0</ele><time>2026-04-24T13:16:33Z</time></trkpt><trkpt lat="40.92936549796134" lon="15.672416040020828"><ele>665.0</ele><time>2026-04-24T13:16:34Z</time></trkpt><trkpt lat="40.92920506896309" lon="15.672406618940062"><ele>666.0</ele><time>2026-04-24T13:16:35Z</time></trkpt><trkpt lat="40.929039709602705" lon="15.672351749022516"><ele>667.0</ele><time>2026-04-24T13:16:36Z</time></trkpt><trkpt lat="40.92887244173216" lon="15.67231190717159"><ele>667.0</ele><time>2026-04-24T13:16:37Z</time></trkpt><trkpt lat="40.92870087504759" lon="15.672258588460766"><ele>667.0</ele><time>2026-04-24T13:16:38Z</time></trkpt><trkpt lat="40.92852139882155" lon="15.672207907772803"><ele>667.0</ele><time>2026-04-24T13:16:39Z</time></trkpt><trkpt lat="40.928358068855616" lon="15.672165158771032"><ele>665.75</ele><time>2026-04-24T13:16:40Z</time></trkpt><trkpt lat="40.92821293053641" lon="15.672132198489445"><ele>664.5</ele><time>2026-04-24T13:16:41Z</time></trkpt><trkpt lat="40.92809390611488" lon="15.672109241286872"><ele>663.25</ele><time>2026-04-24T13:16:42Z</time></trkpt><trkpt lat="40.92799849410242" lon="15.672085830567994"><ele>662.0</ele><time>2026-04-24T13:16:43Z</time></trkpt><trkpt lat="40.92791102546046" lon="15.672059725908866"><ele>662.0</ele><time>2026-04-24T13:16:44Z</time></trkpt><trkpt lat="40.92783149562197" lon="15.672019945928769"><ele>662.0</ele><time>2026-04-24T13:16:45Z</time></trkpt><trkpt lat="40.92774407748108" lon="15.67195141870482"><ele>662.0</ele><time>2026-04-24T13:16:46Z</time></trkpt><trkpt lat="40.92766082375299" lon="15.671840754158286"><ele>662.0</ele><time>2026-04-24T13:16:47Z</time></trkpt><trkpt lat="40.927570007536275" lon="15.67170498755034"><ele>662.0</ele><time>2026-04-24T13:16:48Z</time></trkpt><trkpt lat="40.9274770344583" lon="15.671561892374694"><ele>662.0</ele><time>2026-04-24T13:16:49Z</time></trkpt><trkpt lat="40.92737225792717" lon="15.67140780045487"><ele>662.0</ele><time>2026-04-24T13:16:50Z</time></trkpt><trkpt lat="40.92727549741835" lon="15.671282282483052"><ele>662.0</ele><time>2026-04-24T13:16:51Z</time></trkpt><trkpt lat="40.92718785802042" lon="15.67117379489781"><ele>662.0</ele><time>2026-04-24T13:16:52Z</time></trkpt><trkpt lat="40.927127039619954" lon="15.67106127486236"><ele>662.4000000000001</ele><time>2026-04-24T13:16:53Z</time></trkpt><trkpt lat="40.9270566885015" lon="15.670992145803279"><ele>662.8000000000001</ele><time>2026-04-24T13:16:54Z</time></trkpt><trkpt lat="40.92701437249944" lon="15.670925855093508"><ele>663.2</ele><time>2026-04-24T13:16:55Z</time></trkpt><trkpt lat="40.9269368540814" lon="15.670804252826853"><ele>663.6</ele><time>2026-04-24T13:16:57Z</time></trkpt><trkpt lat="40.9268856499549" lon="15.670717898830233"><ele>664.0</ele><time>2026-04-24T13:16:59Z</time></trkpt><trkpt lat="40.92679849139397" lon="15.67062072840122"><ele>664.0</ele><time>2026-04-24T13:17:01Z</time></trkpt><trkpt lat="40.926744690366064" lon="15.670560674905373"><ele>664.0</ele><time>2026-04-24T13:17:02Z</time></trkpt><trkpt lat="40.92668861257416" lon="15.67049405907667"><ele>664.0</ele><time>2026-04-24T13:17:03Z</time></trkpt><trkpt lat="40.9266368982664" lon="15.67041685116005"><ele>664.0</ele><time>2026-04-24T13:17:04Z</time></trkpt><trkpt lat="40.926582370440904" lon="15.670336590438104"><ele>664.0</ele><time>2026-04-24T13:17:05Z</time></trkpt><trkpt lat="40.9265357590923" lon="15.670260936510337"><ele>664.0</ele><time>2026-04-24T13:17:06Z</time></trkpt><trkpt lat="40.92648750797495" lon="15.670192690420848"><ele>663.1666666666667</ele><time>2026-04-24T13:17:07Z</time></trkpt><trkpt lat="40.92644120273385" lon="15.670113394420717"><ele>662.3333333333334</ele><time>2026-04-24T13:17:08Z</time></trkpt><trkpt lat="40.92639743042799" lon="15.670025077668353"><ele>661.5</ele><time>2026-04-24T13:17:09Z</time></trkpt><trkpt lat="40.92636129559826" lon="15.669926200899612"><ele>660.6666666666666</ele><time>2026-04-24T13:17:10Z</time></trkpt><trkpt lat="40.926331330186464" lon="15.669813542147201"><ele>659.8333333333333</ele><time>2026-04-24T13:17:11Z</time></trkpt><trkpt lat="40.92630858704721" lon="15.669721270198393"><ele>659.0</ele><time>2026-04-24T13:17:12Z</time></trkpt><trkpt lat="40.92629911281946" lon="15.669612802760327"><ele>659.0</ele><time>2026-04-24T13:17:13Z</time></trkpt><trkpt lat="40.92629306107007" lon="15.66950527798467"><ele>659.0</ele><time>2026-04-24T13:17:14Z</time></trkpt><trkpt lat="40.92626899490829" lon="15.669419654656844"><ele>659.0</ele><time>2026-04-24T13:17:15Z</time></trkpt><trkpt lat="40.92621217874282" lon="15.669364664292313"><ele>659.0</ele><time>2026-04-24T13:17:16Z</time></trkpt><trkpt lat="40.92613552669993" lon="15.669330772815329"><ele>659.0</ele><time>2026-04-24T13:17:17Z</time></trkpt><trkpt lat="40.926055756041045" lon="15.669298401586026"><ele>659.0</ele><time>2026-04-24T13:17:18Z</time></trkpt><trkpt lat="40.92598604150034" lon="15.669228618971502"><ele>658.8000000000001</ele><time>2026-04-24T13:17:19Z</time></trkpt><trkpt lat="40.92592622047101" lon="15.66912600101351"><ele>658.6</ele><time>2026-04-24T13:17:20Z</time></trkpt><trkpt lat="40.9258737753047" lon="15.669018720146216"><ele>658.4</ele><time>2026-04-24T13:17:21Z</time></trkpt><trkpt lat="40.92581362816887" lon="15.66889959229463"><ele>658.2</ele><time>2026-04-24T13:17:22Z</time></trkpt><trkpt lat="40.92575246132464" lon="15.668794618293143"><ele>658.0</ele><time>2026-04-24T13:17:23Z</time></trkpt><trkpt lat="40.92568000587214" lon="15.668700917598128"><ele>657.8</ele><time>2026-04-24T13:17:24Z</time></trkpt><trkpt lat="40.92560176247899" lon="15.668607874387966"><ele>657.5999999999999</ele><time>2026-04-24T13:17:25Z</time></trkpt><trkpt lat="40.9255244189466" lon="15.668515699125715"><ele>657.4000000000001</ele><time>2026-04-24T13:17:26Z</time></trkpt><trkpt lat="40.92544617546711" lon="15.668432667656486"><ele>657.2</ele><time>2026-04-24T13:17:27Z</time></trkpt><trkpt lat="40.9253643284272" lon="15.668348040967462"><ele>657.0</ele><time>2026-04-24T13:17:28Z</time></trkpt><trkpt lat="40.92528380096164" lon="15.668275251768847"><ele>657.0</ele><time>2026-04-24T13:17:29Z</time></trkpt><trkpt lat="40.92520687665199" lon="15.668213219226766"><ele>657.0</ele><time>2026-04-24T13:17:30Z</time></trkpt><trkpt lat="40.92514472274027" lon="15.668136630395592"><ele>657.0</ele><time>2026-04-24T13:17:31Z</time></trkpt><trkpt lat="40.925070924373166" lon="15.668083208339969"><ele>657.0</ele><time>2026-04-24T13:17:32Z</time></trkpt><trkpt lat="40.92499943023669" lon="15.668061102007412"><ele>657.0</ele><time>2026-04-24T13:17:33Z</time></trkpt><trkpt lat="40.92494105675265" lon="15.667991536155018"><ele>657.0</ele><time>2026-04-24T13:17:34Z</time></trkpt><trkpt lat="40.92488580762369" lon="15.667902832077006"><ele>656.2</ele><time>2026-04-24T13:17:35Z</time></trkpt><trkpt lat="40.92485561013803" lon="15.667784690799696"><ele>655.4000000000001</ele><time>2026-04-24T13:17:36Z</time></trkpt><trkpt lat="40.92482282513342" lon="15.667665887972861"><ele>654.5999999999999</ele><time>2026-04-24T13:17:37Z</time></trkpt><trkpt lat="40.92478651129977" lon="15.667530768084175"><ele>653.8</ele><time>2026-04-24T13:17:38Z</time></trkpt><trkpt lat="40.92475433119417" lon="15.667378831506634"><ele>653.0</ele><time>2026-04-24T13:17:39Z</time></trkpt><trkpt lat="40.924720523487466" lon="15.667230757655508"><ele>653.0</ele><time>2026-04-24T13:17:40Z</time></trkpt><trkpt lat="40.92468164019284" lon="15.667088903601938"><ele>653.0</ele><time>2026-04-24T13:17:41Z</time></trkpt><trkpt lat="40.924650101772485" lon="15.666960978651298"><ele>653.0</ele><time>2026-04-24T13:17:42Z</time></trkpt><trkpt lat="40.92463214155707" lon="15.666848979509147"><ele>653.0</ele><time>2026-04-24T13:17:43Z</time></trkpt><trkpt lat="40.92461529991374" lon="15.666761964630258"><ele>653.0</ele><time>2026-04-24T13:17:44Z</time></trkpt><trkpt lat="40.924569805296905" lon="15.666657670964604"><ele>652.8333333333333</ele><time>2026-04-24T13:17:46Z</time></trkpt><trkpt lat="40.9244840303621" lon="15.666669759358339"><ele>652.6666666666666</ele><time>2026-04-24T13:17:48Z</time></trkpt><trkpt lat="40.924422784650574" lon="15.666700734175347"><ele>652.5</ele><time>2026-04-24T13:17:49Z</time></trkpt><trkpt lat="40.92433457923885" lon="15.666711959645333"><ele>652.3333333333334</ele><time>2026-04-24T13:17:50Z</time></trkpt><trkpt lat="40.9242496472525" lon="15.66673724695329"><ele>652.1666666666667</ele><time>2026-04-24T13:17:51Z</time></trkpt><trkpt lat="40.92417211059703" lon="15.666760332400504"><ele>652.0</ele><time>2026-04-24T13:17:52Z</time></trkpt><trkpt lat="40.92409924412326" lon="15.666782027447622"><ele>650.3333333333334</ele><time>2026-04-24T13:17:53Z</time></trkpt><trkpt lat="40.924039181992654" lon="15.66681281256989"><ele>648.6666666666667</ele><time>2026-04-24T13:17:54Z</time></trkpt><trkpt lat="40.923963157516155" lon="15.666844414399092"><ele>647.0</ele><time>2026-04-24T13:17:55Z</time></trkpt><trkpt lat="40.92389673958605" lon="15.666893287366372"><ele>645.3333333333334</ele><time>2026-04-24T13:17:56Z</time></trkpt><trkpt lat="40.9238138341188" lon="15.666928557505399"><ele>643.6666666666666</ele><time>2026-04-24T13:17:57Z</time></trkpt><trkpt lat="40.92373839148395" lon="15.66696338461958"><ele>642.0</ele><time>2026-04-24T13:17:58Z</time></trkpt><trkpt lat="40.92365851297861" lon="15.66700327659494"><ele>642.0</ele><time>2026-04-24T13:17:59Z</time></trkpt><trkpt lat="40.923579567144" lon="15.667052244917972"><ele>642.0</ele><time>2026-04-24T13:18:00Z</time></trkpt><trkpt lat="40.92350918617835" lon="15.66709281480207"><ele>642.0</ele><time>2026-04-24T13:18:01Z</time></trkpt><trkpt lat="40.92338986283537" lon="15.667113593681753"><ele>642.0</ele><time>2026-04-24T13:18:03Z</time></trkpt><trkpt lat="40.923318507625495" lon="15.66712785441674"><ele>642.0</ele><time>2026-04-24T13:18:04Z</time></trkpt><trkpt lat="40.92324547246877" lon="15.667107459691723"><ele>642.0</ele><time>2026-04-24T13:18:05Z</time></trkpt><trkpt lat="40.923146698370026" lon="15.667091531706577"><ele>640.8333333333334</ele><time>2026-04-24T13:18:06Z</time></trkpt><trkpt lat="40.923037761037335" lon="15.667073252060899"><ele>639.6666666666666</ele><time>2026-04-24T13:18:07Z</time></trkpt><trkpt lat="40.92293192690174" lon="15.667044256038901"><ele>638.5</ele><time>2026-04-24T13:18:08Z</time></trkpt><trkpt lat="40.92285781728193" lon="15.667026298582421"><ele>637.3333333333333</ele><time>2026-04-24T13:18:09Z</time></trkpt><trkpt lat="40.92279205543087" lon="15.666988255065476"><ele>636.1666666666666</ele><time>2026-04-24T13:18:10Z</time></trkpt><trkpt lat="40.92273273418092" lon="15.666932421503454"><ele>635.0</ele><time>2026-04-24T13:18:11Z</time></trkpt><trkpt lat="40.92268219478298" lon="15.666871639809338"><ele>634.8333333333333</ele><time>2026-04-24T13:18:12Z</time></trkpt><trkpt lat="40.92262415252938" lon="15.666814597355778"><ele>634.6666666666666</ele><time>2026-04-24T13:18:13Z</time></trkpt><trkpt lat="40.92252525491096" lon="15.666720279729457"><ele>634.5</ele><time>2026-04-24T13:18:15Z</time></trkpt><trkpt lat="40.92241254192323" lon="15.666682592640154"><ele>634.3333333333334</ele><time>2026-04-24T13:18:17Z</time></trkpt><trkpt lat="40.92234730133665" lon="15.666674888103381"><ele>634.1666666666667</ele><time>2026-04-24T13:18:18Z</time></trkpt><trkpt lat="40.922279922288084" lon="15.666675700092682"><ele>634.0</ele><time>2026-04-24T13:18:19Z</time></trkpt><trkpt lat="40.922208617591046" lon="15.666708305470111"><ele>633.0</ele><time>2026-04-24T13:18:20Z</time></trkpt><trkpt lat="40.922129013530906" lon="15.666758328585416"><ele>632.0</ele><time>2026-04-24T13:18:21Z</time></trkpt><trkpt lat="40.92205246317703" lon="15.666801219246297"><ele>631.0</ele><time>2026-04-24T13:18:22Z</time></trkpt><trkpt lat="40.921984051171655" lon="15.666828812380274"><ele>630.0</ele><time>2026-04-24T13:18:23Z</time></trkpt><trkpt lat="40.92191901194658" lon="15.666856607767757"><ele>629.0</ele><time>2026-04-24T13:18:24Z</time></trkpt><trkpt lat="40.92181435013902" lon="15.666876861152009"><ele>628.0</ele><time>2026-04-24T13:18:26Z</time></trkpt><trkpt lat="40.921779886755004" lon="15.666958511676075"><ele>628.0</ele><time>2026-04-24T13:18:27Z</time></trkpt><trkpt lat="40.92178671974563" lon="15.66707741450071"><ele>628.0</ele><time>2026-04-24T13:18:28Z</time></trkpt><trkpt lat="40.92185867047139" lon="15.667180021436021"><ele>628.0</ele><time>2026-04-24T13:18:29Z</time></trkpt><trkpt lat="40.921927423784624" lon="15.66728569956435"><ele>628.0</ele><time>2026-04-24T13:18:30Z</time></trkpt><trkpt lat="40.92197544923565" lon="15.667411417749955"><ele>628.0</ele><time>2026-04-24T13:18:31Z</time></trkpt><trkpt lat="40.92199182064353" lon="15.667571024617715"><ele>628.0</ele><time>2026-04-24T13:18:32Z</time></trkpt><trkpt lat="40.92197991817028" lon="15.667722471763748"><ele>628.0</ele><time>2026-04-24T13:18:33Z</time></trkpt><trkpt lat="40.9219954144181" lon="15.667837907317697"><ele>628.0</ele><time>2026-04-24T13:18:34Z</time></trkpt><trkpt lat="40.9219971931562" lon="15.667940449320387"><ele>628.0</ele><time>2026-04-24T13:18:35Z</time></trkpt><trkpt lat="40.92198590342071" lon="15.668031013201283"><ele>628.0</ele><time>2026-04-24T13:18:36Z</time></trkpt><trkpt lat="40.921981855341436" lon="15.668175200819322"><ele>627.4</ele><time>2026-04-24T13:18:38Z</time></trkpt><trkpt lat="40.92208131298714" lon="15.66825613604742"><ele>626.8</ele><time>2026-04-24T13:18:40Z</time></trkpt><trkpt lat="40.92215640136809" lon="15.668260539247784"><ele>626.2</ele><time>2026-04-24T13:18:41Z</time></trkpt><trkpt lat="40.92225078428837" lon="15.668261117407061"><ele>625.6</ele><time>2026-04-24T13:18:42Z</time></trkpt><trkpt lat="40.92235468855941" lon="15.668301457653396"><ele>625.0</ele><time>2026-04-24T13:18:43Z</time></trkpt><trkpt lat="40.922447251024245" lon="15.668379295610928"><ele>625.0</ele><time>2026-04-24T13:18:44Z</time></trkpt><trkpt lat="40.92254816782151" lon="15.668460543727658"><ele>625.0</ele><time>2026-04-24T13:18:45Z</time></trkpt><trkpt lat="40.92265323812891" lon="15.66854433299115"><ele>625.0</ele><time>2026-04-24T13:18:46Z</time></trkpt><trkpt lat="40.92276439002379" lon="15.668627811298228"><ele>625.0</ele><time>2026-04-24T13:18:47Z</time></trkpt><trkpt lat="40.92287479178749" lon="15.668723327643635"><ele>626.25</ele><time>2026-04-24T13:18:48Z</time></trkpt><trkpt lat="40.92299230199392" lon="15.668826769479063"><ele>627.5</ele><time>2026-04-24T13:18:49Z</time></trkpt><trkpt lat="40.923114668150745" lon="15.668923467258983"><ele>628.75</ele><time>2026-04-24T13:18:50Z</time></trkpt><trkpt lat="40.92324752500722" lon="15.669026200510105"><ele>630.0</ele><time>2026-04-24T13:18:51Z</time></trkpt><trkpt lat="40.92337661202992" lon="15.66912696707399"><ele>632.6666666666666</ele><time>2026-04-24T13:18:52Z</time></trkpt><trkpt lat="40.92351348308455" lon="15.669222106637537"><ele>635.3333333333333</ele><time>2026-04-24T13:18:53Z</time></trkpt><trkpt lat="40.923662794258775" lon="15.669316691027593"><ele>638.0</ele><time>2026-04-24T13:18:54Z</time></trkpt><trkpt lat="40.92380124797491" lon="15.669384374561405"><ele>638.0</ele><time>2026-04-24T13:18:55Z</time></trkpt><trkpt lat="40.92394692449652" lon="15.669455557928469"><ele>638.0</ele><time>2026-04-24T13:18:56Z</time></trkpt><trkpt lat="40.924079221974" lon="15.669556251382879"><ele>638.0</ele><time>2026-04-24T13:18:57Z</time></trkpt><trkpt lat="40.924207081657805" lon="15.669619179136463"><ele>638.0</ele><time>2026-04-24T13:18:58Z</time></trkpt><trkpt lat="40.9243296356709" lon="15.66970146181989"><ele>639.5999999999999</ele><time>2026-04-24T13:18:59Z</time></trkpt><trkpt lat="40.92443622191626" lon="15.669759518453546"><ele>641.1999999999999</ele><time>2026-04-24T13:19:00Z</time></trkpt><trkpt lat="40.924527628894616" lon="15.669781104179576"><ele>642.8</ele><time>2026-04-24T13:19:01Z</time></trkpt><trkpt lat="40.924617671856524" lon="15.669775144760846"><ele>644.4</ele><time>2026-04-24T13:19:02Z</time></trkpt><trkpt lat="40.92470890975693" lon="15.669731758339452"><ele>646.0</ele><time>2026-04-24T13:19:03Z</time></trkpt><trkpt lat="40.9247653422392" lon="15.669658102308725"><ele>646.0</ele><time>2026-04-24T13:19:04Z</time></trkpt><trkpt lat="40.924808652578335" lon="15.669556006635215"><ele>646.0</ele><time>2026-04-24T13:19:05Z</time></trkpt><trkpt lat="40.92482354802337" lon="15.669424771306582"><ele>646.0</ele><time>2026-04-24T13:19:06Z</time></trkpt><trkpt lat="40.92481788218203" lon="15.669298013400805"><ele>646.0</ele><time>2026-04-24T13:19:07Z</time></trkpt><trkpt lat="40.924787594280566" lon="15.669151289773659"><ele>646.0</ele><time>2026-04-24T13:19:08Z</time></trkpt><trkpt lat="40.924753756009835" lon="15.66899134566034"><ele>645.75</ele><time>2026-04-24T13:19:09Z</time></trkpt><trkpt lat="40.92472400550578" lon="15.668829963478899"><ele>645.5</ele><time>2026-04-24T13:19:10Z</time></trkpt><trkpt lat="40.924696707371645" lon="15.668664862956364"><ele>645.25</ele><time>2026-04-24T13:19:11Z</time></trkpt><trkpt lat="40.92468308012458" lon="15.668501623588371"><ele>645.0</ele><time>2026-04-24T13:19:12Z</time></trkpt><trkpt lat="40.9246956379229" lon="15.668355257146047"><ele>646.4</ele><time>2026-04-24T13:19:13Z</time></trkpt><trkpt lat="40.92474258639104" lon="15.668223798842234"><ele>647.8</ele><time>2026-04-24T13:19:14Z</time></trkpt><trkpt lat="40.924818791326956" lon="15.66814697911124"><ele>649.2</ele><time>2026-04-24T13:19:15Z</time></trkpt><trkpt lat="40.924916255024144" lon="15.668100802881373"><ele>650.6</ele><time>2026-04-24T13:19:16Z</time></trkpt><trkpt lat="40.92502868879963" lon="15.668107803102128"><ele>652.0</ele><time>2026-04-24T13:19:17Z</time></trkpt><trkpt lat="40.925139589984575" lon="15.66817779724701"><ele>651.75</ele><time>2026-04-24T13:19:18Z</time></trkpt><trkpt lat="40.925243695398414" lon="15.66827942280757"><ele>651.5</ele><time>2026-04-24T13:19:19Z</time></trkpt><trkpt lat="40.925354443515495" lon="15.668399749805223"><ele>651.25</ele><time>2026-04-24T13:19:20Z</time></trkpt><trkpt lat="40.92546679730747" lon="15.668507142169641"><ele>651.0</ele><time>2026-04-24T13:19:21Z</time></trkpt><trkpt lat="40.92558448233136" lon="15.668617927213463"><ele>651.0</ele><time>2026-04-24T13:19:22Z</time></trkpt><trkpt lat="40.925689440141134" lon="15.668767777102268"><ele>651.0</ele><time>2026-04-24T13:19:23Z</time></trkpt><trkpt lat="40.92579719232709" lon="15.668935990681465"><ele>651.0</ele><time>2026-04-24T13:19:24Z</time></trkpt><trkpt lat="40.925904593790946" lon="15.669109252605333"><ele>652.75</ele><time>2026-04-24T13:19:25Z</time></trkpt><trkpt lat="40.92599068012702" lon="15.669254289459937"><ele>654.5</ele><time>2026-04-24T13:19:26Z</time></trkpt><trkpt lat="40.92605166488438" lon="15.669397048330122"><ele>656.25</ele><time>2026-04-24T13:19:27Z</time></trkpt><trkpt lat="40.926126822152675" lon="15.669539525052764"><ele>658.0</ele><time>2026-04-24T13:19:28Z</time></trkpt><trkpt lat="40.926198188865854" lon="15.669690445240752"><ele>658.25</ele><time>2026-04-24T13:19:29Z</time></trkpt><trkpt lat="40.92627893114374" lon="15.669843048843159"><ele>658.5</ele><time>2026-04-24T13:19:30Z</time></trkpt><trkpt lat="40.92636221079505" lon="15.6700072873026"><ele>658.75</ele><time>2026-04-24T13:19:31Z</time></trkpt><trkpt lat="40.92645130183531" lon="15.670178310521102"><ele>659.0</ele><time>2026-04-24T13:19:32Z</time></trkpt><trkpt lat="40.926540910730985" lon="15.670326101824717"><ele>659.0</ele><time>2026-04-24T13:19:33Z</time></trkpt><trkpt lat="40.92662108077444" lon="15.670441139379705"><ele>659.0</ele><time>2026-04-24T13:19:34Z</time></trkpt><trkpt lat="40.926692039505205" lon="15.67053091330672"><ele>659.0</ele><time>2026-04-24T13:19:35Z</time></trkpt><trkpt lat="40.926743258441725" lon="15.67060920428109"><ele>659.0</ele><time>2026-04-24T13:19:36Z</time></trkpt><trkpt lat="40.92683829832876" lon="15.67074002943887"><ele>659.0</ele><time>2026-04-24T13:19:38Z</time></trkpt><trkpt lat="40.92692296018027" lon="15.670823349702282"><ele>659.6</ele><time>2026-04-24T13:19:40Z</time></trkpt><trkpt lat="40.92699771479487" lon="15.670928521331305"><ele>660.2</ele><time>2026-04-24T13:19:42Z</time></trkpt><trkpt lat="40.927040703073246" lon="15.6709917503909"><ele>660.8000000000001</ele><time>2026-04-24T13:19:43Z</time></trkpt><trkpt lat="40.92712575277206" lon="15.67110300326334"><ele>661.4000000000001</ele><time>2026-04-24T13:19:45Z</time></trkpt><trkpt lat="40.9271815551816" lon="15.671198264885508"><ele>662.0</ele><time>2026-04-24T13:19:47Z</time></trkpt><trkpt lat="40.92726113455234" lon="15.671306703454784"><ele>662.0</ele><time>2026-04-24T13:19:49Z</time></trkpt><trkpt lat="40.92730744970266" lon="15.671369742583925"><ele>662.0</ele><time>2026-04-24T13:19:50Z</time></trkpt><trkpt lat="40.927355243227325" lon="15.67143479401857"><ele>662.0</ele><time>2026-04-24T13:19:51Z</time></trkpt><trkpt lat="40.92740596579588" lon="15.671503832006625"><ele>662.0</ele><time>2026-04-24T13:19:52Z</time></trkpt><trkpt lat="40.9274862699191" lon="15.671612121333277"><ele>662.0</ele><time>2026-04-24T13:19:54Z</time></trkpt><trkpt lat="40.92754068160387" lon="15.67168688578666"><ele>662.0</ele><time>2026-04-24T13:19:56Z</time></trkpt><trkpt lat="40.92760631597625" lon="15.671773559274621"><ele>662.0</ele><time>2026-04-24T13:20:00Z</time></trkpt><trkpt lat="40.92765819195439" lon="15.671902135448164"><ele>662.0</ele><time>2026-04-24T13:20:02Z</time></trkpt><trkpt lat="40.92766309721891" lon="15.671989070800471"><ele>662.0</ele><time>2026-04-24T13:20:03Z</time></trkpt><trkpt lat="40.9277096663759" lon="15.672069585938194"><ele>662.0</ele><time>2026-04-24T13:20:05Z</time></trkpt><trkpt lat="40.92792181515868" lon="15.672112967492643"><ele>663.6666666666666</ele><time>2026-04-24T13:20:08Z</time></trkpt><trkpt lat="40.92770841746047" lon="15.671830977455809"><ele>665.3333333333334</ele><time>2026-04-24T13:20:09Z</time></trkpt><trkpt lat="40.92769196019644" lon="15.671738093632321"><ele>667.0</ele><time>2026-04-24T13:20:10Z</time></trkpt><trkpt lat="40.92764533513701" lon="15.671654202747854"><ele>667.0</ele><time>2026-04-24T13:20:11Z</time></trkpt><trkpt lat="40.92757770672207" lon="15.671589196004545"><ele>667.0</ele><time>2026-04-24T13:20:12Z</time></trkpt><trkpt lat="40.92752919547355" lon="15.671532858592576"><ele>667.0</ele><time>2026-04-24T13:20:13Z</time></trkpt><trkpt lat="40.92752828307849" lon="15.671406371992324"><ele>667.0</ele><time>2026-04-24T13:20:15Z</time></trkpt><trkpt lat="40.927664249053805" lon="15.671323014638736"><ele>667.0</ele><time>2026-04-24T13:20:17Z</time></trkpt><trkpt lat="40.92774214058618" lon="15.671235663248856"><ele>667.0</ele><time>2026-04-24T13:20:18Z</time></trkpt><trkpt lat="40.92781341040155" lon="15.671156008737572"><ele>667.0</ele><time>2026-04-24T13:20:19Z</time></trkpt><trkpt lat="40.92787170972819" lon="15.671090850375338"><ele>665.0</ele><time>2026-04-24T13:20:20Z</time></trkpt><trkpt lat="40.9279231857897" lon="15.671033317908119"><ele>665.0</ele><time>2026-04-24T13:20:21Z</time></trkpt><trkpt lat="40.92796905900861" lon="15.670954066447587"><ele>665.0</ele><time>2026-04-24T13:20:23Z</time></trkpt></trkseg></trk></gpx>